[[{"header":{"parameterUnit":"m.s-1","parameterCategory":1,"la1":30.6,"la2":28.766,"lo1":-90.7593,"lo2":-88.6598,"dy":0.0162,"dx":0.0183,"nx":116,"ny":114,"refTime":"2023-11-20T06:00:00:Z","depth":0,"parameterNumber":2,"parameterNumberName":"U-component_of_WINDS"},"data":[0.0,0.0,0.0,0.0,0.0,0.0,0.0,0.0,0.0,0.0,0.0,0.0,0.0,0.0,0.0,0.0,0.0,0.0,0.0,0.0,0.0,0.0,0.0,0.0,0.0,0.0,0.0,0.0,0.0,0.0,0.0,0.0,0.0,0.0,0.0,0.0,0.0,0.0,0.0,0.0,0.0,0.0,0.0,0.0,0.0,0.0,0.0,0.0,0.0,0.0,0.0,0.0,0.0,0.0,0.0,0.0,0.0,0.0,0.0,0.0,0.0,0.0,0.0,0.0,0.0,0.0,0.0,0.0,0.0,0.0,0.0,0.0,0.0,0.0,0.0,0.0,0.0,0.0,0.0,0.0,0.0,0.0,0.0,0.0,0.0,0.0,0.0,0.0,0.0,0.0,0.0,0.0,0.0,0.0,0.0,0.0,0.0,0.0,0.0,0.0,0.0,0.0,0.0,0.0,0.0,0.0,0.0,0.0,0.0,0.0,0.0,0.0,0.0,0.0,0.0,0.0,0.0,0.0,0.0,0.0,0.0,0.0,0.0,0.0,0.0,0.0,0.0,0.0,0.0,0.0,0.0,0.0,0.0,0.0,0.0,0.0,0.0,0.0,0.0,0.0,0.0,0.0,0.0,0.0,0.0,0.0,0.0,0.0,0.0,0.0,0.0,0.0,0.0,0.0,0.0,0.0,0.0,0.0,0.0,0.0,0.0,0.0,0.0,0.0,0.0,0.0,0.0,0.0,0.0,0.0,0.0,0.0,0.0,0.0,0.0,0.0,0.0,0.0,0.0,0.0,0.0,0.0,0.0,0.0,0.0,0.0,0.0,0.0,0.0,0.0,0.0,0.0,0.0,0.0,0.0,0.0,0.0,0.0,0.0,0.0,0.0,0.0,0.0,0.0,0.0,0.0,0.0,0.0,0.0,0.0,0.0,0.0,0.0,0.0,0.0,0.0,0.0,0.0,0.0,0.0,0.0,0.0,0.0,0.0,0.0,0.0,0.0,0.0,0.0,0.0,0.0,0.0,0.0,0.0,0.0,0.0,0.0,0.0,0.0,0.0,0.0,0.0,0.0,0.0,0.0,0.0,0.0,0.0,0.0,0.0,0.0,0.0,0.0,0.0,0.0,0.0,0.0,0.0,0.0,0.0,0.0,0.0,0.0,0.0,0.0,0.0,0.0,0.0,0.0,0.0,0.0,0.0,0.0,0.0,0.0,0.0,0.0,0.0,0.0,0.0,0.0,0.0,0.0,0.0,0.0,0.0,0.0,0.0,0.0,0.0,0.0,0.0,0.0,0.0,0.0,0.0,0.0,0.0,0.0,0.0,0.0,0.0,0.0,0.0,0.0,0.0,0.0,0.0,0.0,0.0,0.0,0.0,0.0,0.0,0.0,0.0,0.0,0.0,0.0,0.0,0.0,0.0,0.0,0.0,0.0,0.0,0.0,0.0,0.0,0.0,0.0,0.0,0.0,0.0,0.0,0.0,0.0,0.0,0.0,0.0,0.0,0.0,0.0,0.0,0.0,0.0,0.0,0.0,0.0,0.0,0.0,0.0,0.0,0.0,0.0,0.0,0.0,0.0,0.0,0.0,0.0,0.0,0.0,0.0,0.0,0.0,0.0,0.0,0.0,0.0,0.0,0.0,0.0,0.0,0.0,0.0,0.0,0.0,0.0,0.0,0.0,0.0,0.0,0.0,0.0,0.0,0.0,0.0,0.0,0.0,0.0,0.0,0.0,0.0,0.0,0.0,0.0,0.0,0.0,0.0,0.0,0.0,0.0,0.0,0.0,0.0,0.0,0.0,0.0,0.0,0.0,0.0,0.0,0.0,0.0,0.0,0.0,0.0,0.0,0.0,0.0,0.0,0.0,0.0,0.0,0.0,0.0,0.0,0.0,0.0,0.0,0.0,0.0,0.0,0.0,0.0,0.0,0.0,0.0,0.0,0.0,0.0,0.0,0.0,0.0,0.0,0.0,0.0,0.0,0.0,0.0,0.0,0.0,0.0,0.0,0.0,0.0,0.0,0.0,0.0,0.0,0.0,0.0,0.0,0.0,0.0,0.0,0.0,0.0,0.0,0.0,0.0,0.0,0.0,0.0,0.0,0.0,0.0,0.0,0.0,0.0,0.0,0.0,0.0,0.0,0.0,0.0,0.0,0.0,0.0,0.0,0.0,0.0,0.0,0.0,0.0,0.0,0.0,0.0,0.0,0.0,0.0,0.0,0.0,0.0,0.0,0.0,0.0,0.0,0.0,0.0,0.0,0.0,0.0,0.0,0.0,0.0,0.0,0.0,0.0,0.0,0.0,0.0,0.0,0.0,0.0,0.0,0.0,0.0,0.0,0.0,0.0,0.0,0.0,0.0,0.0,0.0,0.0,0.0,0.0,0.0,0.0,0.0,0.0,0.0,0.0,0.0,0.0,0.0,0.0,0.0,0.0,0.0,0.0,0.0,0.0,0.0,0.0,0.0,0.0,0.0,0.0,0.0,0.0,0.0,0.0,0.0,0.0,0.0,0.0,0.0,0.0,0.0,0.0,0.0,0.0,0.0,0.0,0.0,0.0,0.0,0.0,0.0,0.0,0.0,0.0,0.0,0.0,0.0,0.0,0.0,0.0,0.0,0.0,0.0,0.0,0.0,0.0,0.0,0.0,0.0,0.0,0.0,0.0,0.0,0.0,0.0,0.0,0.0,0.0,0.0,0.0,0.0,0.0,0.0,0.0,0.0,0.0,0.0,0.0,0.0,0.0,0.0,0.0,0.0,0.0,0.0,0.0,0.0,0.0,0.0,0.0,0.0,0.0,0.0,0.0,0.0,0.0,0.0,0.0,0.0,0.0,0.0,0.0,0.0,0.0,0.0,0.0,0.0,0.0,0.0,0.0,0.0,0.0,0.0,0.0,0.0,0.0,0.0,0.0,0.0,0.0,0.0,0.0,0.0,0.0,0.0,0.0,0.0,0.0,0.0,0.0,0.0,0.0,0.0,0.0,0.0,0.0,0.0,0.0,0.0,0.0,0.0,0.0,0.0,0.0,0.0,0.0,0.0,0.0,0.0,0.0,0.0,0.0,0.0,0.0,0.0,0.0,0.0,0.0,0.0,0.0,0.0,0.0,0.0,0.0,0.0,0.0,0.0,0.0,0.0,0.0,0.0,0.0,0.0,0.0,0.0,0.0,0.0,0.0,0.0,0.0,0.0,0.0,0.0,0.0,0.0,0.0,0.0,0.0,0.0,0.0,0.0,0.0,0.0,0.0,0.0,0.0,0.0,0.0,0.0,0.0,0.0,0.0,0.0,0.0,0.0,0.0,0.0,0.0,0.0,0.0,0.0,0.0,0.0,0.0,0.0,0.0,0.0,0.0,0.0,0.0,0.0,0.0,0.0,0.0,0.0,0.0,0.0,0.0,0.0,0.0,0.0,0.0,0.0,0.0,0.0,0.0,0.0,0.0,0.0,0.0,0.0,0.0,0.0,0.0,0.0,0.0,0.0,0.0,0.0,0.0,0.0,0.0,0.0,0.0,0.0,0.0,0.0,0.0,0.0,0.0,0.0,0.0,0.0,0.0,0.0,0.0,0.0,0.0,0.0,0.0,0.0,0.0,0.0,0.0,0.0,0.0,0.0,0.0,0.0,0.0,0.0,0.0,0.0,0.0,0.0,0.0,0.0,0.0,0.0,0.0,0.0,0.0,0.0,0.0,0.0,0.0,0.0,0.0,0.0,0.0,0.0,0.0,0.0,0.0,0.0,0.0,0.0,0.0,0.0,0.0,0.0,0.0,0.0,0.0,0.0,0.0,0.0,0.0,0.0,0.0,0.0,0.0,0.0,0.0,0.0,0.0,0.0,0.0,0.0,0.0,0.0,0.0,0.0,0.0,0.0,0.0,0.0,0.0,0.0,0.0,0.0,0.0,0.0,0.0,0.0,0.0,0.0,0.0,0.0,0.0,0.0,0.0,0.0,0.0,0.0,0.0,0.0,0.0,0.0,0.0,0.0,0.0,0.0,0.0,0.0,0.0,0.0,0.0,0.0,0.0,0.0,0.0,0.0,0.0,0.0,0.0,0.0,0.0,0.0,0.0,0.0,0.0,0.0,0.0,0.0,0.0,0.0,0.0,0.0,0.0,0.0,0.0,0.0,0.0,0.0,0.0,0.0,0.0,0.0,0.0,0.0,0.0,0.0,0.0,0.0,0.0,0.0,0.0,0.0,0.0,0.0,0.0,0.0,0.0,0.0,0.0,0.0,0.0,0.0,0.0,0.0,0.0,0.0,0.0,0.0,0.0,0.0,0.0,0.0,0.0,0.0,0.0,0.0,0.0,0.0,0.0,0.0,0.0,0.0,0.0,0.0,0.0,0.0,0.0,0.0,0.0,0.0,0.0,0.0,0.0,0.0,0.0,0.0,0.0,0.0,0.0,0.0,0.0,0.0,0.0,0.0,0.0,0.0,0.0,0.0,0.0,0.0,0.0,0.0,0.0,0.0,0.0,0.0,0.0,0.0,0.0,0.0,0.0,0.0,0.0,0.0,0.0,0.0,0.0,0.0,0.0,0.0,0.0,0.0,0.0,0.0,0.0,0.0,0.0,0.0,0.0,0.0,0.0,0.0,0.0,0.0,0.0,0.0,0.0,0.0,0.0,0.0,0.0,0.0,0.0,0.0,0.0,0.0,0.0,0.0,0.0,0.0,0.0,0.0,0.0,0.0,0.0,0.0,0.0,0.0,0.0,0.0,0.0,0.0,0.0,0.0,0.0,0.0,0.0,0.0,0.0,0.0,0.0,0.0,0.0,0.0,0.0,0.0,0.0,0.0,0.0,0.0,0.0,0.0,0.0,0.0,0.0,0.0,0.0,0.0,0.0,0.0,0.0,0.0,0.0,0.0,0.0,0.0,0.0,0.0,0.0,0.0,0.0,0.0,0.0,0.0,0.0,0.0,0.0,0.0,0.0,0.0,0.0,0.0,0.0,0.0,0.0,0.0,0.0,0.0,0.0,0.0,0.0,0.0,0.0,0.0,0.0,0.0,0.0,0.0,0.0,0.0,0.0,0.0,0.0,0.0,0.0,0.0,0.0,0.0,0.0,0.0,0.0,0.0,0.0,0.0,0.0,0.0,0.0,0.0,0.0,0.0,0.0,0.0,0.0,0.0,0.0,0.0,0.0,0.0,0.0,0.0,0.0,0.0,0.0,0.0,0.0,0.0,0.0,0.0,0.0,0.0,0.0,0.0,0.0,0.0,0.0,0.0,0.0,0.0,0.0,0.0,0.0,0.0,0.0,0.0,0.0,0.0,0.0,0.0,0.0,0.0,0.0,0.0,0.0,0.0,0.0,0.0,0.0,0.0,0.0,0.0,0.0,0.0,0.0,0.0,0.0,0.0,0.0,0.0,0.0,0.0,0.0,0.0,0.0,0.0,0.0,0.0,0.0,0.0,0.0,0.0,0.0,0.0,0.0,0.0,0.0,0.0,0.0,0.0,0.0,0.0,0.0,0.0,0.0,0.0,0.0,0.0,0.0,0.0,0.0,0.0,0.0,0.0,0.0,0.0,0.0,0.0,0.0,0.0,0.0,0.0,0.0,0.0,0.0,0.0,0.0,0.0,0.0,0.0,0.0,0.0,0.0,0.0,0.0,0.0,0.0,0.0,0.0,0.0,0.0,0.0,0.0,0.0,0.0,0.0,0.0,0.0,0.0,0.0,0.0,0.0,0.0,0.0,0.0,0.0,0.0,0.0,0.0,0.0,0.0,0.0,0.0,0.0,0.0,0.0,0.0,0.0,0.0,0.0,0.0,0.0,0.0,0.0,0.0,0.0,0.0,0.0,0.0,0.0,0.0,0.0,0.0,0.0,0.0,0.0,0.0,0.0,0.0,0.0,0.0,0.0,0.0,0.0,0.0,0.0,0.0,0.0,0.0,0.0,0.0,0.0,0.0,0.0,0.0,0.0,0.0,0.0,0.0,0.0,0.0,0.0,0.0,0.0,0.0,0.0,0.0,0.0,0.0,0.0,0.0,0.0,0.0,0.0,0.0,0.0,0.0,0.0,0.0,0.0,0.0,0.0,0.0,0.0,0.0,0.0,0.0,0.0,0.0,0.0,0.0,0.0,0.0,3.7368,0.0,0.0,0.0,0.0,0.0,0.0,0.0,0.0,0.0,0.0,0.0,0.0,0.0,0.0,0.0,0.0,0.0,0.0,0.0,0.0,0.0,0.0,0.0,0.0,0.0,0.0,0.0,0.0,0.0,0.0,0.0,0.0,0.0,0.0,0.0,0.0,0.0,0.0,0.0,4.1405,4.1594,4.1241,4.1811,4.0901,3.8958,0.0,0.0,0.0,0.0,0.0,0.0,0.0,0.0,0.0,0.0,0.0,0.0,0.0,0.0,0.0,0.0,0.0,0.0,0.0,0.0,0.0,0.0,0.0,0.0,0.0,0.0,0.0,0.0,0.0,0.0,0.0,0.0,0.0,0.0,0.0,0.0,0.0,0.0,0.0,0.0,0.0,0.0,0.0,0.0,0.0,0.0,0.0,0.0,0.0,0.0,0.0,0.0,0.0,0.0,0.0,0.0,0.0,0.0,0.0,0.0,0.0,0.0,0.0,0.0,0.0,0.0,0.0,0.0,0.0,0.0,0.0,3.7407,0.0,0.0,0.0,0.0,0.0,0.0,0.0,0.0,0.0,0.0,0.0,0.0,0.0,0.0,0.0,0.0,0.0,0.0,0.0,0.0,0.0,0.0,0.0,3.9606,3.9794,3.9592,3.969,3.9527,0.0,0.0,0.0,0.0,0.0,0.0,0.0,4.1077,4.1721,4.1853,4.2622,4.3136,4.3395,4.4723,4.3783,4.0966,4.1031,0.0,0.0,0.0,0.0,0.0,0.0,0.0,0.0,0.0,0.0,0.0,0.0,0.0,0.0,0.0,0.0,0.0,0.0,0.0,0.0,0.0,0.0,0.0,0.0,0.0,0.0,0.0,0.0,0.0,0.0,0.0,0.0,0.0,0.0,0.0,0.0,0.0,0.0,0.0,0.0,0.0,0.0,0.0,0.0,0.0,0.0,0.0,0.0,0.0,0.0,0.0,0.0,0.0,0.0,0.0,0.0,0.0,0.0,0.0,0.0,0.0,0.0,0.0,4.1565,4.1953,4.284,4.284,4.2466,4.1802,4.0284,3.9302,3.8634,0.0,0.0,0.0,0.0,0.0,0.0,0.0,0.0,0.0,0.0,0.0,0.0,0.0,0.0,0.0,0.0,0.0,0.0,0.0,0.0,0.0,0.0,4.0124,4.1004,4.0081,4.063,4.0959,4.0861,0.0,0.0,0.0,0.0,0.0,3.9565,4.1183,4.1662,4.0832,4.3331,4.5144,4.6342,4.7184,4.7346,4.6763,4.4366,4.3589,4.3913,0.0,0.0,0.0,0.0,0.0,0.0,0.0,0.0,0.0,0.0,0.0,0.0,0.0,0.0,0.0,0.0,0.0,0.0,0.0,0.0,0.0,0.0,0.0,0.0,0.0,0.0,0.0,0.0,0.0,0.0,0.0,0.0,0.0,0.0,0.0,0.0,0.0,0.0,0.0,0.0,0.0,3.9462,4.0078,0.0,0.0,0.0,0.0,0.0,0.0,0.0,0.0,0.0,0.0,0.0,0.0,0.0,4.14,4.2076,4.3146,4.3524,4.3148,4.4817,4.5434,4.4985,4.4985,4.4595,4.3963,4.3709,0.0,3.8736,3.8587,0.0,0.0,0.0,0.0,0.0,0.0,0.0,0.0,0.0,0.0,0.0,0.0,0.0,0.0,0.0,0.0,0.0,0.0,0.0,0.0,0.0,4.2067,4.326,4.2798,4.4136,4.4168,4.2113,4.1931,4.1452,4.0545,4.072,4.0798,4.0672,4.1403,4.2296,4.3221,4.633,4.8091,4.8706,4.9451,4.9807,4.9742,4.8479,4.6957,4.5241,4.3168,0.0,0.0,0.0,0.0,0.0,0.0,0.0,0.0,0.0,0.0,0.0,0.0,0.0,0.0,0.0,0.0,0.0,0.0,0.0,0.0,0.0,0.0,0.0,0.0,0.0,0.0,0.0,0.0,0.0,0.0,0.0,0.0,0.0,0.0,0.0,0.0,0.0,0.0,0.0,3.9062,3.9924,3.9431,3.9801,3.937,0.0,0.0,0.0,0.0,0.0,0.0,0.0,0.0,0.0,4.4756,4.4122,4.4377,4.5832,4.5201,4.5335,4.5995,4.6232,4.6567,4.6866,4.6866,4.6599,4.5998,4.6364,4.4912,4.2304,4.0576,3.8833,3.7147,0.0,0.0,0.0,0.0,3.5169,3.5008,0.0,0.0,0.0,0.0,0.0,0.0,0.0,0.0,0.0,0.0,0.0,0.0,4.1419,4.3556,4.4983,4.5505,4.7001,4.6773,4.4073,4.3588,4.2749,4.1265,4.1114,4.1151,4.1358,4.2059,4.3654,4.6223,4.9199,5.0843,5.1232,5.1944,5.2268,5.2268,5.2074,5.0422,4.7572,4.5241,4.3524,4.2261,0.0,0.0,0.0,0.0,0.0,0.0,0.0,0.0,0.0,0.0,0.0,0.0,0.0,0.0,0.0,0.0,0.0,0.0,0.0,0.0,0.0,0.0,0.0,0.0,0.0,0.0,0.0,0.0,0.0,0.0,0.0,0.0,0.0,0.0,0.0,0.0,0.0,4.0385,4.1001,3.9493,4.1093,4.1155,0.0,0.0,0.0,0.0,0.0,0.0,4.3532,4.3868,4.5099,4.7471,4.6676,4.7081,4.8799,4.7174,4.6906,4.8106,4.7207,4.7235,4.8134,4.8134,4.7881,4.7488,4.7937,4.7235,4.5605,4.2964,4.0969,3.9451,3.8112,3.6796,3.5818,3.6571,3.6383,3.5954,0.0,0.0,0.0,0.0,0.0,0.0,0.0,0.0,0.0,0.0,0.0,3.9606,4.1419,4.3555,4.5571,4.7308,4.7538,4.7538,4.7341,4.443,4.2751,4.3071,4.1789,4.1119,4.1122,4.3409,4.5991,4.8853,5.098,5.2819,5.4211,5.4891,5.5215,5.5183,5.4535,5.3758,5.2624,4.7767,4.6439,4.7151,4.1678,0.0,0.0,0.0,0.0,0.0,0.0,0.0,0.0,0.0,0.0,0.0,0.0,0.0,0.0,0.0,0.0,0.0,0.0,0.0,0.0,0.0,0.0,0.0,0.0,0.0,0.0,0.0,0.0,0.0,0.0,0.0,0.0,0.0,0.0,0.0,0.0,0.0,0.0,4.1678,4.488,0.0,0.0,0.0,0.0,4.331,4.391,4.4839,4.6184,4.5513,4.6637,4.9904,4.8769,4.8701,5.0154,4.9218,4.8583,4.8134,4.8078,4.8078,4.8134,4.8134,4.8106,4.8078,4.8106,4.774,4.701,4.5661,4.3666,4.1303,3.9645,3.793,3.6468,3.6358,3.6331,3.6606,0.0,0.0,0.0,0.0,0.0,0.0,0.0,0.0,3.9153,3.8665,4.0577,4.2427,4.3524,4.6831,4.9401,5.0489,5.1782,5.1815,5.0066,4.7902,4.6233,4.5213,4.3221,4.2595,4.3747,4.5959,4.8243,5.0721,5.2333,5.3842,5.5053,5.5312,5.5409,5.5409,5.515,5.4924,5.4405,5.0293,4.8058,4.6989,4.3589,4.1387,0.0,0.0,0.0,0.0,0.0,0.0,0.0,0.0,0.0,0.0,0.0,0.0,0.0,0.0,0.0,0.0,0.0,0.0,0.0,0.0,0.0,0.0,0.0,0.0,0.0,0.0,0.0,0.0,0.0,0.0,0.0,0.0,0.0,0.0,0.0,0.0,0.0,4.5003,4.8019,0.0,4.5772,4.5788,4.6061,4.6061,4.6897,4.791,4.8798,4.8963,5.0015,5.2111,5.0859,5.0544,5.1408,5.0209,4.9314,4.8724,4.8724,4.8499,4.8134,4.8134,4.8134,4.8134,4.8134,4.7993,4.774,4.6897,4.5296,4.3209,4.1151,3.9543,3.841,3.7923,3.7429,3.7079,0.0,0.0,0.0,0.0,0.0,0.0,0.0,0.0,3.9202,3.9316,4.1642,4.4075,4.6018,4.9386,5.2009,5.3175,5.4373,5.4049,5.1685,4.9515,4.7723,4.6365,4.4389,4.4236,4.6127,4.798,5.0026,5.2365,5.3469,5.4548,5.5409,5.5409,5.5409,5.5409,5.5409,5.5409,5.5247,5.2657,5.0455,4.8414,4.5565,4.3848,4.278,0.0,0.0,0.0,0.0,0.0,0.0,0.0,0.0,0.0,0.0,0.0,0.0,0.0,0.0,0.0,0.0,0.0,0.0,0.0,0.0,0.0,0.0,0.0,0.0,0.0,0.0,0.0,0.0,0.0,0.0,0.0,0.0,0.0,0.0,0.0,4.882,4.7434,5.0913,5.2236,4.9281,4.93,4.9494,4.9494,4.9881,5.0242,5.0446,5.0656,5.1309,5.2484,5.119,5.0823,5.168,5.036,4.9454,4.9033,4.8836,4.8527,4.8134,4.8134,4.8134,4.8134,4.8134,4.8134,4.8078,4.7235,4.6167,4.4836,4.2712,4.0797,3.9272,3.9198,3.8523,3.7826,0.0,0.0,0.0,0.0,0.0,0.0,0.0,3.8479,3.9112,4.0836,4.2053,4.4301,4.8609,5.1005,5.3142,5.528,5.4826,5.3823,5.2333,4.8933,4.6818,4.6468,4.5476,4.5896,4.8016,4.9377,5.1247,5.3775,5.4512,5.4998,5.5409,5.5409,5.5409,5.5409,5.5409,5.5409,5.5377,5.4729,5.3596,5.1912,4.767,4.6795,4.7572,0.0,0.0,0.0,0.0,0.0,0.0,0.0,0.0,0.0,0.0,0.0,0.0,0.0,0.0,0.0,0.0,0.0,0.0,0.0,0.0,0.0,0.0,0.0,0.0,0.0,0.0,0.0,0.0,0.0,0.0,0.0,0.0,0.0,4.3771,4.7804,5.0328,4.9035,5.3591,5.553,5.2267,5.2913,5.3555,5.3555,5.2573,5.1736,5.1132,5.0408,5.0269,5.0888,4.9735,4.9651,5.0831,4.9679,4.9061,4.9005,4.8443,4.8134,4.8134,4.8134,4.8134,4.8134,4.8134,4.8134,4.8021,4.6813,4.6307,4.6126,4.4327,4.1723,3.8969,3.9866,3.9529,3.8766,0.0,0.0,0.0,0.0,0.0,0.0,0.0,3.8184,3.8942,4.0172,4.3267,4.6486,4.9515,5.2624,5.4988,5.6089,5.5539,5.4535,5.311,5.0131,4.8006,4.7133,4.7056,4.8421,5.1295,5.147,5.2586,5.4955,5.4819,5.4998,5.5409,5.5409,5.5409,5.5409,5.5409,5.5409,5.5409,5.5215,5.4891,5.4244,5.1005,4.9321,4.844,0.0,0.0,0.0,0.0,0.0,0.0,0.0,0.0,0.0,0.0,0.0,0.0,0.0,0.0,0.0,0.0,0.0,0.0,0.0,0.0,0.0,0.0,0.0,0.0,0.0,0.0,0.0,0.0,0.0,0.0,0.0,0.0,4.6142,4.6449,5.0605,5.3837,5.4453,5.673,5.8054,5.7623,5.5943,5.4789,5.4789,5.2934,5.1774,5.1604,5.1389,5.1365,5.1534,5.0775,5.0326,5.0213,4.9876,4.9258,4.8387,4.8668,4.8555,4.8134,4.8134,4.8134,4.8134,4.8134,4.8134,4.8078,4.7291,4.6278,4.5029,4.3639,4.2258,4.0887,3.9205,3.813,3.7687,0.0,0.0,0.0,0.0,0.0,0.0,0.0,3.7616,3.8618,4.0607,4.4129,4.7573,5.0681,5.3628,5.5474,5.5604,5.5247,5.4146,5.2106,5.0131,4.8691,4.8087,4.8871,5.0442,5.2924,5.2763,5.3757,5.5863,5.5448,5.5448,5.5863,5.5863,5.5701,5.5409,5.5409,5.5571,5.5863,5.5539,5.5766,5.6122,5.3855,5.2462,5.1274,4.7617,4.6685,4.6925,4.3956,4.3811,4.4709,4.1899,0.0,0.0,0.0,0.0,0.0,0.0,0.0,0.0,0.0,0.0,0.0,0.0,0.0,0.0,0.0,0.0,0.0,0.0,0.0,0.0,0.0,0.0,0.0,0.0,4.6049,4.8327,4.9558,5.2852,5.5653,5.7008,5.8116,5.8947,5.9316,5.6912,5.5276,5.5276,5.3074,5.1674,5.1421,5.1393,5.1393,5.1393,5.0803,5.0326,4.996,4.9707,4.9089,4.8134,4.8499,4.8471,4.8134,4.8134,4.7801,0.0,4.7903,4.7568,4.666,4.703,4.619,0.0,0.0,0.0,0.0,0.0,3.7952,3.7509,0.0,0.0,0.0,0.0,0.0,0.0,0.0,3.6938,3.8153,4.1629,4.4573,4.7758,5.1609,5.4082,5.5183,5.4567,5.4373,5.311,5.039,4.9548,4.9256,4.9483,5.0746,5.2106,5.3531,5.3841,5.4806,5.651,5.6156,5.6188,5.6608,5.6608,5.6284,5.5668,5.5668,5.6025,5.6575,5.5928,5.6413,5.745,5.6007,5.531,5.4695,4.9626,4.8965,5.0141,4.6615,4.5152,4.4769,4.3599,0.0,0.0,0.0,0.0,0.0,0.0,0.0,0.0,0.0,0.0,0.0,0.0,0.0,0.0,0.0,0.0,0.0,0.0,0.0,0.0,0.0,0.0,0.0,0.0,4.8521,5.0641,5.276,5.4637,5.6269,5.75,5.8239,5.8701,5.8662,5.6659,5.5335,5.5171,5.3159,5.1618,5.0785,0.0,0.0,0.0,0.0,4.9805,4.996,4.9238,4.8518,4.8134,4.8134,4.8134,4.8134,4.8134,4.7568,4.6687,4.7699,4.6818,4.4914,4.6448,4.6045,4.4347,4.4316,4.2699,4.0252,3.9138,3.8313,3.764,0.0,0.0,0.0,0.0,0.0,0.0,0.0,3.6754,3.7715,4.0912,4.4123,4.734,5.0583,5.3631,5.5377,5.5215,5.4179,5.2786,5.1102,5.0293,5.0681,5.243,5.2754,5.3563,5.4988,5.5619,5.6136,5.651,5.6977,5.7268,5.7352,5.7352,5.7288,5.7158,5.7158,5.7223,5.7352,5.7223,5.732,5.7514,5.5847,5.4772,5.402,5.1654,5.0352,4.9435,4.7332,4.777,4.8783,4.574,4.5354,4.5734,4.3265,4.1217,0.0,0.0,0.0,0.0,0.0,0.0,0.0,0.0,0.0,0.0,0.0,0.0,0.0,0.0,0.0,0.0,0.0,0.0,0.0,4.6894,4.9519,5.2154,5.4728,5.5961,5.6669,5.6915,5.7562,5.7948,5.7728,5.6735,5.5518,5.438,5.3234,5.1794,5.0129,5.0102,0.0,5.0102,4.861,4.8433,4.996,4.8342,4.7736,4.8134,0.0,0.0,4.8134,4.8134,4.8004,4.7801,4.8004,4.7363,4.6032,4.6474,4.525,4.3174,4.3559,4.241,4.0402,4.0095,3.826,3.6184,0.0,0.0,0.0,0.0,0.0,0.0,0.0,3.6877,3.7654,4.0244,4.3132,4.5794,4.8221,5.0714,5.1912,5.1199,5.0519,5.026,5.0617,5.0973,5.2106,5.4276,5.4729,5.5409,5.6478,5.6834,5.7191,5.7579,5.7935,5.8097,5.8097,5.8097,5.7903,5.7579,5.7579,5.7773,5.8097,5.7709,5.7773,5.8032,5.6777,5.5834,5.4869,5.2641,5.1364,5.0578,4.9271,4.9123,4.9252,4.7464,4.6993,4.6748,4.4604,4.2828,4.1322,0.0,0.0,0.0,0.0,0.0,0.0,0.0,0.0,0.0,0.0,0.0,0.0,0.0,0.0,4.0176,0.0,0.0,4.5493,4.8892,5.05,5.2031,5.3736,5.4586,5.5357,5.6085,5.6724,5.694,5.6422,5.5907,5.5097,5.4165,5.3238,5.2212,5.0878,5.0266,4.9901,4.9901,4.8205,4.7873,4.9055,4.7889,4.7526,4.8134,4.8134,4.8134,4.8134,4.8134,4.7801,4.726,4.7801,4.7129,4.5475,4.5813,4.575,4.5445,4.508,4.319,4.0671,3.9808,3.864,3.7415,0.0,0.0,0.0,0.0,0.0,0.0,0.0,3.7121,3.7747,3.9654,4.209,4.4172,4.5527,4.7516,4.8317,4.6989,4.7281,4.835,5.039,5.1977,5.3725,5.5733,5.651,5.7191,5.7773,5.8065,5.8421,5.8842,5.9134,5.9101,5.8842,5.9004,5.868,5.8,5.8,5.8324,5.881,5.8389,5.8518,5.9004,5.8259,5.7515,5.6419,5.3739,5.2557,5.1935,5.0905,4.964,4.8537,4.8537,4.7695,4.6475,4.5457,4.4298,4.2731,4.0329,3.9513,0.0,0.0,0.0,0.0,0.0,0.0,0.0,0.0,0.0,3.8739,3.9624,4.0491,4.1818,4.4338,4.5545,4.7289,5.0603,5.1257,5.1678,5.2553,5.3183,5.3917,5.4929,5.5688,5.5931,5.5213,5.5076,5.4754,5.4041,5.3326,5.2519,5.1654,5.0572,4.9788,4.9562,4.7968,4.7468,4.8327,4.7487,4.7479,4.8302,4.819,4.8134,4.8134,4.8134,4.7568,4.6818,4.7466,4.6714,4.5022,4.5281,4.6243,4.7355,4.656,4.4354,4.1392,3.9965,3.9396,3.9016,0.0,0.0,0.0,0.0,0.0,0.0,0.0,0.0,3.7773,3.8997,4.1561,4.3259,4.3115,4.6057,4.7799,4.6957,4.8641,5.0357,5.1879,5.392,5.5733,5.7255,5.8,5.8421,5.8518,5.9781,6.017,5.9587,6.085,6.0818,5.9619,6.0267,6.017,5.949,5.949,5.9522,5.9619,6.0202,6.0494,6.0494,5.9781,5.9191,5.8592,5.6153,5.3979,5.1942,5.0379,4.9001,4.7898,4.7898,4.7027,4.6069,4.6229,4.5194,4.3516,4.1621,4.0072,3.8601,3.6864,3.641,3.6795,3.8399,3.8399,3.8799,0.0,0.0,4.1674,4.342,4.4678,4.5661,4.6011,4.7475,4.9218,5.0889,5.1597,5.2514,5.3877,5.4156,5.4009,5.3308,5.455,5.5272,5.4996,5.5411,5.5192,5.3839,5.367,5.2825,5.114,5.034,4.9448,4.8326,4.6959,4.7121,4.8814,4.7224,4.7189,4.8921,4.8387,4.8134,4.8134,4.8134,4.8004,4.7903,4.6922,4.6478,4.611,4.5592,4.5284,4.5076,4.5934,4.5121,4.3202,4.2571,4.0855,3.871,0.0,0.0,0.0,0.0,0.0,0.0,0.0,0.0,0.0,3.8591,4.0198,4.1246,4.1151,4.2591,4.3686,4.3783,4.6115,4.8738,5.1426,5.4373,5.7061,5.936,6.0105,6.0494,6.0494,6.1077,6.1239,6.0915,6.153,6.1498,6.0947,6.1239,6.1239,6.0915,6.0915,6.0915,6.0947,6.1239,6.1368,6.1368,6.1044,6.058,5.9868,5.7245,5.4665,5.2337,5.0434,4.8856,0.0,4.6911,4.6239,4.5685,4.5479,4.4813,4.3746,4.1938,4.1339,4.0914,3.9785,3.9365,0.0,0.0,4.0828,4.1671,4.3582,4.3891,4.42,4.5717,4.6484,4.6916,4.7273,4.7675,4.8463,0.0,5.0708,5.1285,5.2673,5.2837,5.2587,5.1925,5.2937,5.3932,5.4146,5.4771,5.4913,5.4231,5.3866,5.3163,5.2043,5.1062,5.0054,4.9133,4.7951,4.7922,4.9033,4.7537,4.7621,4.9033,4.8415,4.8134,4.8134,4.8134,4.8134,4.8106,4.7568,4.7363,4.7335,4.7086,4.6806,4.666,4.7141,4.6209,4.4387,4.2917,4.154,4.0169,0.0,0.0,0.0,0.0,0.0,0.0,0.0,0.0,0.0,0.0,3.9202,3.9927,4.0119,4.0038,4.0286,4.1071,4.3622,4.6694,5.0283,5.3952,5.7288,6.0364,6.1336,6.1919,6.2113,6.2502,6.2502,6.2113,6.2696,6.2599,6.1821,6.2437,6.2372,6.1821,6.2016,6.1983,6.1821,6.2016,6.2113,6.2081,6.1886,6.14,6.0477,5.7589,5.4853,5.2178,4.994,4.8101,4.6592,4.5663,4.5049,4.4669,4.4292,4.4117,4.3624,4.1938,4.1709,4.1934,4.1308,0.0,0.0,4.2261,4.3329,4.4509,4.5464,4.6026,4.6645,4.774,4.8132,4.8162,4.811,4.7958,4.8205,4.9066,4.9567,5.032,5.1433,5.168,5.1618,5.1169,5.1759,5.2517,5.3332,5.3978,5.44,5.4569,5.3866,5.3276,5.2995,5.182,5.0812,5.0173,4.9213,4.8725,4.9033,4.8029,4.7992,4.9033,4.8415,4.8134,4.8134,4.8134,4.8134,4.8134,4.8134,4.8021,4.7881,4.7881,4.7881,4.7853,4.7684,4.6673,4.5088,4.3144,4.2112,4.1327,0.0,0.0,0.0,0.0,0.0,0.0,0.0,0.0,0.0,0.0,0.0,0.0,0.0,3.9282,3.8908,3.9962,4.2332,4.5139,4.8432,5.2308,5.6057,5.9587,6.1077,6.2145,6.2825,6.4218,6.425,6.2858,6.4963,6.4542,6.1854,6.3959,6.3797,6.1821,6.2534,6.2469,6.1854,6.2566,6.2858,6.2793,6.2081,6.14,6.0469,5.7185,5.4272,5.141,4.8761,4.6243,4.4095,4.4066,4.3459,4.2883,4.3197,4.3281,4.3079,4.1959,4.0772,3.9873,3.9845,0.0,4.2064,4.3863,4.5268,4.6673,4.8499,4.8921,4.9117,4.9735,5.0382,5.0286,4.8464,4.9087,4.926,4.7679,4.8759,5.0118,5.0857,5.1461,5.1787,5.1759,5.1281,5.1393,0.0,5.3304,5.395,5.454,5.3445,5.2995,5.3613,5.2489,5.1516,5.0911,5.0227,4.963,4.9033,4.8436,4.8404,4.9033,4.8415,4.8134,4.8134,4.8134,4.8134,4.8134,4.8134,4.7797,4.7235,4.7235,4.7235,4.7178,4.6588,4.5914,4.5183,4.3947,4.2711,4.1531,0.0,0.0,0.0,0.0,0.0,0.0,0.0,0.0,0.0,0.0,0.0,0.0,0.0,0.0,0.0,0.0,4.061,4.332,4.7235,5.0775,5.4244,5.7785,6.0016,6.1465,6.2145,6.3117,6.3603,6.3635,6.4347,6.4218,6.3311,6.4477,6.4639,6.3991,6.4704,6.4898,6.4639,6.4412,6.4315,6.4153,6.2469,6.14,6.0405,5.6765,5.3647,5.084,0.0,4.5257,4.3282,4.2876,4.2045,4.1251,4.1824,4.1853,4.1538,4.1167,4.0997,4.1081,4.1531,0.0,4.3919,4.5802,4.6897,4.7993,4.9848,4.9932,4.9609,4.9417,4.8185,4.6828,4.5449,4.4739,4.4635,4.5259,4.6968,4.8646,5.0032,5.182,5.2433,5.0775,5.2208,0.0,0.0,0.0,0.0,5.4484,5.381,5.3248,5.3051,5.3023,5.2631,5.1544,5.1711,5.1322,5.0293,4.9681,4.9203,4.9033,4.8415,4.8134,4.8134,4.8134,4.8134,4.8134,4.8134,4.7769,4.7207,4.7207,4.7207,4.715,4.6532,4.5886,4.5183,4.3947,4.2711,4.1531,0.0,0.0,0.0,0.0,0.0,0.0,0.0,0.0,0.0,0.0,0.0,0.0,0.0,0.0,0.0,0.0,0.0,4.1403,4.4685,4.7458,5.0575,5.4345,5.6272,5.7732,5.8959,5.9531,6.0332,6.1336,6.1854,6.2242,6.2502,6.37,6.3991,6.357,6.4509,6.4801,6.4509,6.3797,6.3505,6.3311,6.0882,5.936,5.8141,5.4909,5.1963,0.0,4.7176,4.4809,4.265,4.2204,4.1555,4.0907,4.1253,4.1057,4.0744,4.0969,4.1615,4.2486,4.3329,4.4621,4.6139,4.7797,4.864,4.9483,5.0888,5.0397,4.955,4.8927,4.6971,4.4904,4.3337,4.2835,4.2802,4.3384,4.5385,4.7607,4.9626,5.146,5.2321,5.1393,5.2854,5.3388,0.0,0.0,0.0,5.381,5.3754,5.3388,5.2742,5.3107,5.2967,5.2152,5.2293,5.1787,5.055,5.0382,4.9876,4.9033,4.8415,4.8134,4.8134,4.8134,4.8134,4.8134,4.8134,4.7656,4.6897,4.6897,4.6897,4.6785,4.5942,4.5493,4.5155,4.3694,4.2514,4.1531,0.0,0.0,0.0,0.0,0.0,0.0,0.0,0.0,0.0,0.0,0.0,0.0,0.0,0.0,0.0,0.0,0.0,0.0,4.1006,4.269,4.5492,4.9582,5.0288,5.1577,5.355,5.4083,5.4988,5.6381,5.7709,5.8745,5.9402,6.1498,6.1724,6.0526,6.1886,6.2145,6.1498,6.0818,6.0558,6.0332,5.7482,5.5539,5.4114,5.1944,4.9363,4.6877,4.6845,4.4936,4.2402,4.2239,4.2092,4.1731,4.1592,4.1199,4.0912,4.1531,4.2598,4.3863,4.5099,4.6757,4.8471,4.9707,5.0438,5.1028,5.1618,5.0436,4.9009,4.8246,4.6482,4.4393,0.0,0.0,4.3654,4.198,4.4279,4.7189,4.963,5.0629,5.1787,0.0,0.0,0.0,0.0,0.0,0.0,5.277,0.0,5.3388,5.2742,5.2742,5.2714,5.2658,5.2096,5.1225,5.0016,5.0522,5.0185,4.9033,4.8415,4.8134,4.8134,4.8134,4.8134,4.8134,4.8134,4.7431,4.6335,4.6335,4.6335,4.6223,4.4902,4.479,4.5099,4.3216,4.2149,4.1531,0.0,0.0,0.0,0.0,0.0,0.0,0.0,0.0,0.0,0.0,0.0,0.0,0.0,0.0,0.0,0.0,0.0,0.0,3.9106,4.0872,4.2905,4.5231,4.7764,4.9695,5.1016,5.2126,5.3308,5.4516,5.46,5.4891,5.532,5.615,5.6381,5.6057,5.6931,5.7514,5.7806,5.7093,5.7093,5.7385,5.5086,5.392,5.3369,5.1199,4.9415,4.7978,4.7109,4.5728,4.4339,4.399,0.0,0.0,4.284,4.2539,4.2471,4.2913,4.3891,4.5127,4.6392,4.774,4.9089,5.0326,5.0775,5.0916,5.1056,5.0057,4.8199,4.5152,4.2941,4.0643,0.0,0.0,0.0,4.1224,4.5261,0.0,5.039,5.3208,0.0,5.3782,0.0,5.6198,5.4512,5.4878,0.0,0.0,5.3838,5.3388,5.2742,5.3164,5.2995,5.204,5.1871,5.1421,5.0663,4.9876,4.9342,4.9033,4.8415,4.8134,4.8134,4.8134,4.8134,4.8134,4.8134,4.7684,4.6982,4.6982,4.6982,4.6813,4.5071,4.479,4.5043,4.2711,4.1755,4.1531,0.0,0.0,0.0,0.0,0.0,0.0,0.0,0.0,0.0,0.0,0.0,0.0,0.0,0.0,0.0,0.0,0.0,0.0,0.0,3.8712,4.0,4.1578,4.3246,4.4665,4.5827,4.7162,4.8345,4.9413,5.0166,5.0779,5.1231,5.2133,5.245,5.2294,5.3161,5.379,5.4146,5.3725,5.3596,0.0,0.0,5.107,5.0357,4.9159,4.8038,4.7069,4.6693,4.638,4.6087,0.0,0.0,4.4353,4.4663,4.453,4.4287,4.5035,0.0,4.7178,4.8134,4.9314,5.041,5.1112,5.1084,5.0663,4.9848,4.8256,4.6017,4.2425,4.0092,0.0,3.6006,0.0,0.0,0.0,0.0,0.0,5.1374,5.3661,5.5243,0.0,5.6592,0.0,5.5524,5.5524,5.544,0.0,5.4681,5.4091,5.3164,5.3473,5.322,5.2208,5.1927,5.1618,5.1281,5.0073,4.9454,4.9426,4.8808,4.8387,4.8134,4.8134,4.8134,4.8134,0.0,4.7769,4.7178,4.6926,4.6813,4.6645,4.5043,4.4453,4.4312,4.2654,4.1699,4.1165,0.0,0.0,0.0,0.0,0.0,0.0,0.0,0.0,0.0,0.0,0.0,0.0,0.0,0.0,0.0,0.0,0.0,0.0,0.0,0.0,3.753,3.8747,3.8621,3.9122,4.0451,4.1406,4.2489,4.3548,4.5351,4.6571,4.7299,4.8473,4.8877,4.8689,4.9628,5.0098,5.0196,5.0196,4.9872,4.9354,4.8803,4.7864,4.673,0.0,4.6228,4.5432,4.5936,4.6574,0.0,0.0,4.6597,4.5645,4.6897,4.6807,4.6367,4.7673,4.8562,4.9426,5.0045,5.1028,5.1899,5.1815,5.1337,5.0382,4.8443,4.6283,4.3616,4.0103,3.8083,3.6478,3.56,3.7909,4.0549,4.2091,0.0,4.9258,5.2489,5.3585,5.4878,5.7126,5.6957,5.6648,5.6564,5.5496,5.5046,5.558,5.5468,5.4878,5.3726,5.3585,5.3248,5.2602,5.2068,5.1787,5.1787,5.0663,5.0073,5.0073,4.937,4.8752,4.8246,4.8162,4.8134,4.8134,0.0,0.0,4.7291,4.6673,4.642,4.6279,4.4931,4.4031,4.3413,4.2711,4.1699,4.0688,0.0,0.0,0.0,0.0,0.0,0.0,0.0,0.0,0.0,0.0,3.9062,3.8319,0.0,0.0,0.0,0.0,0.0,0.0,0.0,0.0,0.0,3.7644,3.8239,3.8994,4.0066,4.0579,4.1365,4.241,4.2473,4.2861,4.3516,4.3547,4.3587,4.3783,4.3978,4.4431,4.5014,4.5014,4.5273,4.5759,4.618,4.6212,4.605,4.6666,0.0,0.0,4.5478,0.0,0.0,4.7959,4.86,4.8736,4.9326,4.9156,4.8821,4.9632,5.0408,5.101,5.1417,5.1983,5.2433,5.1899,5.1337,5.0269,4.7909,4.6196,0.0,0.0,3.7952,3.6418,3.3352,3.6049,3.9319,4.0938,0.0,0.0,0.0,0.0,5.6311,0.0,0.0,0.0,0.0,0.0,0.0,0.0,0.0,5.4428,5.3726,5.3164,5.2574,5.1983,5.1843,5.1787,5.1787,5.1084,5.0719,5.0691,4.9567,4.8977,4.8864,4.8359,4.8134,4.8134,4.8134,0.0,4.7909,4.7291,4.7038,4.6869,4.5099,4.4031,4.3357,4.2205,4.1334,4.0688,0.0,0.0,0.0,0.0,0.0,0.0,0.0,0.0,0.0,4.197,4.1257,4.0448,4.0092,3.9586,0.0,0.0,0.0,0.0,0.0,0.0,0.0,0.0,0.0,0.0,3.8399,3.9724,4.0156,3.9699,0.0,4.1736,4.1024,4.1754,4.198,4.1851,4.2365,4.2686,4.2912,4.3493,4.3557,4.3524,4.4973,4.5327,4.5134,0.0,0.0,0.0,0.0,0.0,0.0,0.0,4.8662,4.9634,5.0662,5.1036,5.1164,5.1288,5.1754,5.2363,5.2428,5.2853,5.3051,5.2433,5.1562,4.996,4.6532,0.0,0.0,3.7945,3.6797,3.6088,3.4331,3.6159,0.0,0.0,0.0,0.0,0.0,0.0,0.0,0.0,0.0,0.0,0.0,0.0,0.0,0.0,0.0,0.0,5.4625,5.3726,5.277,5.1815,5.1787,5.1787,5.1787,5.1506,5.1197,5.0859,5.0269,4.9651,4.9033,4.8724,4.8443,4.8134,4.8134,0.0,4.805,4.7122,4.6729,4.6588,4.5015,4.3835,4.2935,4.2345,4.1531,4.0688,0.0,0.0,0.0,0.0,0.0,0.0,0.0,4.1355,4.2002,4.4334,4.401,4.333,4.278,4.1517,4.0328,0.0,0.0,0.0,0.0,0.0,0.0,0.0,0.0,0.0,0.0,0.0,0.0,0.0,4.0876,0.0,0.0,0.0,0.0,0.0,4.2109,4.2365,4.227,4.3105,4.2944,0.0,0.0,4.4605,0.0,0.0,0.0,0.0,0.0,0.0,0.0,0.0,4.7985,4.9328,5.0545,5.1697,5.2442,5.1972,5.2537,5.3241,5.3383,5.3641,5.3726,5.3079,5.1787,4.9651,4.5717,4.3554,0.0,3.7043,3.6086,3.5869,3.5573,3.6498,3.8226,0.0,4.2677,0.0,0.0,0.0,0.0,0.0,0.0,0.0,0.0,0.0,0.0,0.0,0.0,0.0,5.4878,5.3866,5.2798,5.1815,5.1787,5.1787,5.1787,5.1787,5.1534,5.1056,5.0944,5.0297,4.923,4.9089,4.8696,4.8134,4.8134,0.0,0.0,4.6729,4.6223,4.597,4.4846,4.375,4.2767,4.2767,4.2064,4.1109,0.0,0.0,0.0,0.0,0.0,0.0,0.0,4.2618,4.4431,4.7249,4.6957,4.6471,4.6407,4.346,4.1193,0.0,0.0,0.0,0.0,0.0,0.0,0.0,0.0,0.0,0.0,0.0,0.0,0.0,0.0,0.0,0.0,0.0,0.0,0.0,0.0,0.0,4.2555,4.2652,0.0,0.0,0.0,0.0,0.0,0.0,0.0,0.0,0.0,0.0,0.0,0.0,0.0,4.7845,4.814,4.961,5.1116,5.0989,0.0,0.0,5.3893,5.4262,5.4344,5.3726,5.1787,4.9342,4.6729,0.0,4.0969,3.8274,3.7293,3.6498,3.5213,3.6124,3.7613,3.9404,4.0924,4.4003,0.0,0.0,0.0,0.0,0.0,0.0,0.0,0.0,0.0,0.0,0.0,0.0,0.0,5.2321,5.1899,5.1787,5.1787,5.1787,5.1787,5.1787,5.1759,5.1702,5.114,5.0522,4.9848,4.9286,4.8696,4.8134,4.8134,0.0,0.0,4.656,4.5942,4.5352,4.4678,4.4003,4.3413,4.3413,4.2992,4.2402,0.0,0.0,0.0,0.0,0.0,0.0,0.0,4.2512,4.3913,4.8091,4.7993,4.7572,4.7572,4.5888,4.3783,0.0,0.0,0.0,0.0,0.0,0.0,0.0,0.0,0.0,0.0,0.0,0.0,0.0,0.0,0.0,0.0,0.0,0.0,0.0,0.0,0.0,0.0,4.2429,0.0,0.0,0.0,0.0,0.0,0.0,0.0,0.0,0.0,0.0,0.0,0.0,0.0,0.0,4.5031,4.6107,0.0,0.0,5.1091,5.2816,5.3408,5.4346,5.499,5.4372,5.2068,4.9314,4.6869,0.0,4.0463,3.8327,3.74,3.6816,3.6253,3.6347,3.7041,3.8811,3.9285,0.0,4.6279,0.0,0.0,0.0,0.0,0.0,0.0,0.0,0.0,0.0,0.0,0.0,0.0,5.2461,5.218,5.1787,5.1787,5.1787,5.1787,5.1787,5.1787,5.1787,5.1169,5.055,4.9932,4.9314,4.8696,4.8134,4.8134,0.0,0.0,4.656,4.5914,4.5268,4.465,4.4031,4.3497,4.3497,4.3104,4.257,0.0,0.0,0.0,0.0,0.0,4.0548,4.2774,4.272,4.3943,4.8334,4.8161,4.7929,4.8576,4.7022,4.5111,4.3006,0.0,0.0,0.0,0.0,0.0,0.0,0.0,0.0,0.0,0.0,0.0,3.9811,4.0469,0.0,0.0,0.0,0.0,0.0,0.0,0.0,0.0,0.0,0.0,0.0,0.0,0.0,0.0,0.0,0.0,0.0,0.0,0.0,0.0,0.0,0.0,0.0,0.0,4.3546,4.5062,0.0,4.931,5.1609,5.2652,5.412,5.5247,5.5025,5.2315,4.9117,0.0,0.0,4.0013,3.8496,3.754,3.6978,3.6978,3.6641,3.6894,3.858,3.8468,3.9592,4.3582,4.5212,0.0,0.0,0.0,0.0,0.0,0.0,0.0,0.0,0.0,0.0,0.0,5.2517,5.2236,5.1787,5.1787,5.1787,5.1787,5.1787,5.1787,5.1787,5.1169,5.055,4.9932,4.9314,4.8696,4.8134,0.0,0.0,0.0,4.6476,4.5802,4.5015,4.4593,4.4144,4.3778,4.3778,4.3497,4.3132,0.0,0.0,0.0,0.0,0.0,0.0,0.0,4.3635,4.5304,4.8228,4.7623,4.7702,4.9839,4.6277,4.4302,4.5629,0.0,0.0,0.0,0.0,0.0,0.0,0.0,0.0,0.0,0.0,3.9156,4.0475,4.1151,4.2141,4.3436,4.2141,0.0,0.0,0.0,0.0,0.0,0.0,0.0,0.0,0.0,0.0,4.2767,0.0,0.0,0.0,0.0,0.0,0.0,0.0,0.0,0.0,0.0,4.2633,4.2785,4.3646,4.6403,4.9609,5.1918,5.3566,5.4798,5.5676,5.238,4.8696,0.0,0.0,3.962,3.9002,3.785,3.6978,3.6978,3.6978,3.74,3.8664,3.8861,3.9957,4.3076,4.4565,0.0,0.0,0.0,0.0,0.0,0.0,0.0,0.0,0.0,0.0,0.0,5.2124,5.1787,5.1787,5.1787,5.1787,5.1787,5.1787,5.1787,5.1787,5.1169,5.055,4.9932,4.9314,4.8696,0.0,0.0,0.0,0.0,4.6307,4.5549,4.4425,4.4425,4.4425,4.4397,4.4397,4.4397,4.4397,0.0,0.0,0.0,0.0,0.0,0.0,0.0,4.182,4.3074,4.6437,4.6576,4.688,4.8256,4.6716,4.544,4.5177,0.0,0.0,0.0,0.0,0.0,0.0,0.0,0.0,0.0,0.0,4.0316,4.2648,4.2427,4.3041,4.4324,4.3425,4.2493,4.1688,0.0,0.0,0.0,0.0,0.0,0.0,0.0,4.1851,4.2119,0.0,0.0,0.0,0.0,0.0,0.0,0.0,0.0,0.0,0.0,0.0,0.0,4.1683,4.4294,4.7405,4.8565,5.0231,5.1555,5.186,4.9259,4.6415,4.6044,0.0,3.9114,3.8917,3.7878,3.6978,3.6978,3.6978,3.754,3.9226,3.9507,4.0126,4.1952,0.0,0.0,0.0,0.0,0.0,0.0,0.0,0.0,0.0,0.0,0.0,0.0,5.1899,5.1787,5.1787,5.1787,5.1787,5.1787,5.1787,5.1562,5.1169,5.055,4.9932,4.9314,4.8696,0.0,0.0,0.0,0.0,0.0,4.6307,4.5549,4.4425,4.4425,4.4425,4.4425,4.4425,4.4425,4.4425,0.0,0.0,0.0,0.0,0.0,0.0,0.0,4.1018,4.1816,4.4347,4.48,4.553,4.724,4.6187,4.537,4.57,0.0,0.0,0.0,0.0,0.0,0.0,0.0,0.0,0.0,3.8851,4.0629,4.3749,4.3256,4.4042,4.5885,4.4884,4.3816,4.2687,4.2396,0.0,0.0,0.0,0.0,0.0,4.1194,4.1494,4.2048,0.0,0.0,0.0,0.0,0.0,0.0,0.0,0.0,0.0,0.0,0.0,0.0,0.0,4.2455,4.4851,4.6572,4.8172,4.945,5.0094,4.8014,0.0,0.0,0.0,3.947,3.8999,3.8046,3.7259,3.7035,3.6978,3.7456,3.8833,3.9283,3.9957,4.1418,0.0,0.0,0.0,0.0,0.0,0.0,0.0,0.0,0.0,0.0,0.0,0.0,0.0,5.1534,5.1787,5.1787,5.1787,5.1787,5.1562,5.1253,5.0859,5.0016,4.9398,4.9033,4.8415,0.0,0.0,0.0,0.0,0.0,4.6307,4.5549,4.4425,4.4425,4.4425,4.4425,4.4425,4.4425,4.4425,0.0,0.0,0.0,0.0,0.0,0.0,0.0,0.0,0.0,4.2241,4.2699,4.393,4.6681,4.4815,4.439,4.6853,0.0,0.0,0.0,0.0,0.0,0.0,0.0,0.0,0.0,3.8425,4.0318,4.3783,4.3699,4.5144,4.7848,4.6487,4.5473,4.4693,4.3395,4.2322,0.0,0.0,0.0,0.0,4.0786,4.1309,0.0,0.0,0.0,0.0,0.0,0.0,0.0,0.0,0.0,0.0,0.0,0.0,0.0,0.0,0.0,0.0,0.0,4.7046,4.8113,4.9674,4.8119,4.5903,0.0,0.0,0.0,0.0,0.0,3.776,3.7147,3.7007,3.7231,3.7934,3.858,3.962,0.0,0.0,0.0,0.0,0.0,0.0,0.0,0.0,0.0,0.0,0.0,0.0,0.0,0.0,5.1169,5.1702,5.1839,5.1839,5.1731,5.1112,5.0775,5.0719,4.9595,4.9033,4.8949,4.8387,0.0,0.0,0.0,0.0,0.0,4.6251,4.5521,4.4425,4.4425,4.4425,4.4425,4.4425,4.4425,4.4397,0.0,0.0,0.0,0.0,0.0,0.0,0.0,0.0,0.0,0.0,4.2689,4.3492,4.4372,4.4395,4.4697,0.0,0.0,0.0,0.0,0.0,0.0,0.0,0.0,0.0,0.0,3.9303,4.0974,4.3731,4.4224,4.5653,4.7928,4.7506,4.6682,4.5483,4.4611,4.3233,0.0,0.0,0.0,0.0,4.0601,4.0724,0.0,0.0,0.0,0.0,4.1648,4.137,0.0,0.0,0.0,0.0,0.0,0.0,0.0,0.0,4.0632,4.1023,4.2456,0.0,4.4782,4.5122,4.4758,4.4077,0.0,0.0,0.0,0.0,0.0,0.0,0.0,3.7288,3.7512,3.9086,3.9873,4.0772,4.2149,0.0,0.0,0.0,0.0,0.0,0.0,0.0,0.0,0.0,0.0,0.0,0.0,0.0,5.1421,5.1084,5.1697,5.1697,5.1084,5.0466,4.9932,4.9454,4.9174,4.8808,4.8331,4.819,0.0,0.0,0.0,0.0,4.6251,4.5774,4.5099,4.4425,4.4425,4.4425,4.4425,4.4425,4.4425,4.434,0.0,0.0,0.0,0.0,0.0,0.0,0.0,0.0,0.0,0.0,0.0,0.0,0.0,0.0,0.0,0.0,0.0,0.0,0.0,0.0,0.0,0.0,0.0,3.937,3.9187,3.9778,4.1413,4.4186,4.4566,4.6164,4.8862,4.8464,4.7766,4.6709,4.4909,4.3346,0.0,0.0,0.0,4.1423,4.077,0.0,0.0,0.0,0.0,0.0,4.097,4.0847,0.0,4.0539,4.0539,4.0539,0.0,0.0,0.0,0.0,4.0539,4.0601,4.1001,4.2109,4.3187,4.3494,4.3608,4.338,4.2711,0.0,0.0,0.0,0.0,0.0,0.0,0.0,0.0,3.8887,4.0407,0.0,0.0,0.0,0.0,0.0,0.0,0.0,0.0,0.0,0.0,0.0,0.0,0.0,0.0,0.0,5.206,5.2426,5.2265,5.1844,5.1043,5.0726,5.0443,5.0098,4.981,4.9494,4.9149,4.8467,4.8155,0.0,0.0,0.0,4.6377,4.6289,4.5959,4.5355,4.5355,4.5355,4.5355,4.5355,4.5183,4.4834,0.0,0.0,0.0,0.0,0.0,0.0,0.0,0.0,0.0,0.0,0.0,0.0,0.0,0.0,0.0,0.0,0.0,0.0,0.0,0.0,0.0,0.0,0.0,4.0,3.9755,4.0036,4.1606,4.4668,4.4883,4.6743,5.0123,4.9657,4.8892,4.7774,4.521,4.3487,0.0,0.0,4.2071,4.2343,4.1137,0.0,0.0,0.0,0.0,0.0,0.0,0.0,0.0,4.0539,4.0539,4.0539,4.0539,0.0,0.0,0.0,0.0,0.0,4.0662,4.1771,4.2971,4.3217,4.3433,4.3376,4.2758,0.0,0.0,0.0,0.0,0.0,0.0,0.0,0.0,0.0,0.0,0.0,0.0,0.0,0.0,0.0,0.0,0.0,0.0,0.0,0.0,0.0,0.0,0.0,0.0,0.0,0.0,5.4127,5.3266,5.2288,5.1309,5.1326,5.1297,5.1208,5.0648,5.0383,5.0383,4.9039,4.8461,0.0,0.0,0.0,4.661,4.7134,4.7022,4.6491,4.6491,4.6491,4.6491,4.6491,4.6167,4.5608,0.0,0.0,0.0,0.0,0.0,0.0,0.0,0.0,0.0,0.0,0.0,0.0,0.0,0.0,0.0,0.0,0.0,0.0,0.0,0.0,0.0,4.1933,4.0956,4.053,4.0863,4.0578,4.1686,4.4181,4.5754,4.778,5.0156,5.1247,5.0393,4.7868,4.6735,4.5202,4.3317,4.3257,4.2585,4.1617,4.1456,0.0,0.0,0.0,0.0,0.0,0.0,0.0,0.0,4.0539,4.0539,4.0539,4.0539,0.0,0.0,0.0,0.0,0.0,4.1278,4.2817,4.3895,4.2294,4.2756,4.3433,4.2732,0.0,0.0,0.0,0.0,0.0,0.0,0.0,0.0,0.0,0.0,0.0,0.0,0.0,0.0,0.0,0.0,0.0,0.0,0.0,0.0,0.0,0.0,0.0,0.0,0.0,0.0,5.3508,5.3973,5.3639,5.2336,5.1706,5.109,5.053,5.0442,5.0383,5.0383,4.964,4.9222,0.0,0.0,4.743,4.7284,4.6874,4.658,4.6491,4.6491,4.6491,4.6491,4.6491,4.6432,4.6197,0.0,0.0,0.0,0.0,0.0,0.0,0.0,0.0,0.0,0.0,0.0,0.0,0.0,0.0,0.0,0.0,0.0,0.0,0.0,0.0,0.0,4.2164,4.1435,4.1309,4.1629,4.1625,4.2897,4.5484,4.722,4.9251,5.1629,5.1363,5.0048,4.7834,4.6278,4.5081,4.4064,4.3647,4.3136,4.252,0.0,0.0,0.0,0.0,0.0,0.0,0.0,0.0,0.0,0.0,4.0539,4.0539,4.0539,0.0,0.0,0.0,0.0,0.0,4.094,4.1986,4.2848,4.2294,4.3679,4.4941,4.3895,0.0,0.0,0.0,0.0,0.0,0.0,0.0,0.0,0.0,0.0,0.0,0.0,0.0,0.0,0.0,0.0,0.0,0.0,0.0,0.0,0.0,0.0,0.0,0.0,0.0,0.0,5.4624,5.4582,5.4135,5.316,5.2849,5.2299,5.1665,5.1665,5.1665,5.1604,5.0214,4.9552,4.9492,0.0,4.7523,4.7581,4.7598,4.7649,4.7649,4.7649,4.7649,4.7588,4.7226,4.7105,4.7015,0.0,0.0,0.0,0.0,0.0,0.0,0.0,0.0,0.0,0.0,0.0,0.0,0.0,0.0,0.0,0.0,0.0,0.0,0.0,0.0,4.3005,4.2365,4.2045,4.2139,4.2845,4.2829,4.4172,4.6883,4.8784,5.1102,5.3617,5.1688,4.9853,4.8071,4.6007,4.4891,4.4587,4.3972,4.3647,4.3376,0.0,0.0,0.0,0.0,0.0,0.0,0.0,0.0,0.0,0.0,0.0,0.0,0.0,0.0,0.0,4.0539,4.0539,4.057,4.0724,4.1401,4.214,4.2509,4.4141,4.5588,4.5341,0.0,0.0,0.0,0.0,0.0,0.0,0.0,0.0,0.0,0.0,0.0,0.0,0.0,0.0,0.0,0.0,0.0,0.0,0.0,0.0,0.0,0.0,0.0,0.0,0.0,0.0,5.5468,5.4976,5.4391,5.3745,5.3714,5.3375,5.2698,5.2544,5.2483,5.2421,5.051,4.9607,4.9546,4.8364,4.7849,4.7849,4.8355,4.8604,4.8604,4.8604,4.8604,4.8543,4.7937,4.7753,4.7691,0.0,0.0,0.0,0.0,0.0,0.0,0.0,0.0,0.0,0.0,0.0,0.0,0.0,0.0,0.0,0.0,0.0,0.0,0.0,0.0,4.3156,4.3019,4.2648,4.3267,4.492,4.4103,4.4973,4.769,5.0588,5.3298,5.5723,5.328,5.098,4.8849,4.7327,4.5872,4.4587,4.4553,4.4121,4.3495,4.3376,0.0,0.0,0.0,0.0,0.0,0.0,0.0,0.0,0.0,0.0,0.0,0.0,0.0,4.0539,4.0539,4.0539,4.0662,4.134,4.2448,4.331,4.2756,4.2756,0.0,4.6696,4.688,0.0,0.0,0.0,0.0,0.0,0.0,0.0,0.0,0.0,0.0,0.0,0.0,0.0,0.0,0.0,0.0,0.0,0.0,0.0,0.0,0.0,0.0,0.0,0.0,0.0,5.4728,5.476,5.4391,5.3745,5.3714,5.3375,5.2698,5.2082,5.1775,5.1713,5.0359,4.9658,4.9627,4.8859,4.8521,4.8521,4.8604,4.8604,4.8604,4.8604,4.8604,4.8604,4.8324,4.821,4.821,0.0,0.0,0.0,0.0,0.0,0.0,0.0,0.0,0.0,0.0,0.0,0.0,0.0,0.0,0.0,0.0,0.0,0.0,0.0,4.1822,4.2303,4.3015,4.2255,4.2877,4.5179,4.5355,4.7456,5.1496,5.3787,5.4771,5.4499,5.2191,5.0125,4.824,4.6278,4.5094,4.4587,4.4587,4.444,4.4179,4.3706,4.3647,0.0,0.0,0.0,0.0,0.0,0.0,0.0,0.0,4.1119,4.048,4.1006,4.0851,4.0539,4.0539,4.0539,4.057,4.0847,4.1925,4.3002,4.3156,0.0,0.0,0.0,0.0,0.0,0.0,0.0,0.0,0.0,0.0,0.0,0.0,0.0,0.0,0.0,0.0,0.0,0.0,0.0,0.0,0.0,0.0,0.0,0.0,0.0,0.0,0.0,0.0,0.0,5.4114,5.3283,5.2729,5.2483,5.2052,5.1713,5.1467,5.1621,5.1713,5.1652,5.0297,4.9682,4.9651,4.8912,4.8604,4.8604,4.8604,4.8604,4.8604,4.8604,4.8521,4.8355,4.8301,4.8218,4.8133,0.0,0.0,0.0,0.0,0.0,0.0,0.0,0.0,0.0,0.0,0.0,0.0,0.0,0.0,0.0,0.0,0.0,0.0,4.0554,4.0967,4.1631,4.2413,4.1978,4.2729,4.5036,4.6159,4.8496,5.2167,5.4363,5.4668,5.301,5.1142,4.9424,4.7833,4.5848,4.506,4.5229,4.479,4.4587,4.4587,4.403,4.4179,0.0,0.0,0.0,0.0,0.0,0.0,0.0,0.0,4.1455,4.0798,4.1598,4.117,4.0473,4.0789,4.0646,4.0539,4.0539,4.1357,4.2426,0.0,0.0,0.0,0.0,0.0,0.0,0.0,0.0,0.0,0.0,0.0,0.0,0.0,0.0,0.0,0.0,0.0,0.0,0.0,0.0,0.0,0.0,0.0,0.0,0.0,0.0,0.0,0.0,0.0,0.0,0.0,5.199,5.1374,5.1374,5.0913,5.0697,5.0697,5.0944,5.1067,5.1036,4.9866,4.9343,4.9312,4.882,4.8604,4.8604,4.8604,4.8604,4.8604,4.8604,4.8438,4.8301,4.8218,4.8049,4.7849,0.0,0.0,0.0,0.0,0.0,0.0,0.0,0.0,0.0,0.0,0.0,0.0,0.0,0.0,0.0,0.0,0.0,0.0,4.1136,4.1204,4.1244,4.1309,4.1981,4.3065,4.4823,4.6324,4.7697,4.8827,5.1765,5.2673,5.1563,5.0551,4.9345,4.7932,4.6354,4.6109,4.6684,4.5196,4.4587,4.4587,4.4587,4.4587,4.4587,0.0,0.0,0.0,0.0,0.0,0.0,0.0,4.1286,4.1403,4.2252,4.1533,4.0544,4.1304,4.1024,4.0539,4.0539,4.0956,0.0,0.0,0.0,0.0,0.0,0.0,0.0,0.0,0.0,0.0,0.0,0.0,0.0,0.0,0.0,0.0,0.0,0.0,0.0,0.0,0.0,0.0,0.0,0.0,0.0,0.0,0.0,0.0,0.0,0.0,0.0,0.0,5.1036,5.0697,5.0697,5.0667,5.0667,5.0667,4.9989,4.9682,4.9651,4.8943,4.8604,4.8604,4.8604,4.8604,4.8604,4.8604,4.8604,4.8604,4.8604,4.8469,4.8301,4.8049,4.7794,4.7533,0.0,0.0,0.0,0.0,0.0,0.0,0.0,0.0,0.0,0.0,0.0,0.0,0.0,0.0,0.0,0.0,0.0,0.0,4.0392,4.0426,4.0679,4.1211,4.1446,4.1802,4.2402,4.4618,4.7437,5.0909,5.2323,5.2191,5.071,4.9255,4.8017,4.712,4.6152,4.5534,4.5196,4.4756,4.4587,4.4587,4.4587,4.4587,4.4519,0.0,0.0,0.0,0.0,0.0,0.0,0.0,0.0,0.0,4.1387,4.1764,4.1725,4.0926,4.1362,4.1784,4.077,4.1357,0.0,0.0,0.0,0.0,0.0,0.0,0.0,0.0,0.0,0.0,0.0,0.0,0.0,0.0,0.0,0.0,0.0,0.0,0.0,0.0,0.0,0.0,0.0,0.0,0.0,0.0,0.0,0.0,0.0,0.0,0.0,0.0,5.0574,4.9989,4.9989,4.9466,4.922,4.922,4.9035,4.9189,4.9651,4.8943,4.8604,4.8604,4.8604,4.8604,4.8604,4.8604,4.8604,4.8604,4.8604,4.8385,4.8049,4.8049,4.7709,4.7366,0.0,0.0,0.0,0.0,0.0,0.0,0.0,0.0,0.0,0.0,4.1538,0.0,0.0,0.0,0.0,0.0,0.0,0.0,0.0,4.0257,4.029,4.073,4.0764,4.1086,4.1766,4.4497,4.7045,4.9358,5.0589,5.0435,4.9001,4.8572,4.814,4.767,4.7511,4.7022,4.6312,4.5703,4.5128,4.4553,4.4293,4.4327,4.4485,0.0,0.0,0.0,0.0,0.0,0.0,0.0,0.0,0.0,4.181,4.2055,4.1987,4.2072,4.2173,4.2122,4.1872,0.0,0.0,0.0,0.0,0.0,0.0,0.0,0.0,0.0,0.0,0.0,0.0,0.0,0.0,0.0,0.0,0.0,0.0,0.0,0.0,0.0,0.0,0.0,0.0,0.0,0.0,0.0,0.0,0.0,0.0,0.0,0.0,0.0,4.9835,4.9251,4.9251,4.882,4.8604,4.8604,4.8604,4.885,4.9251,4.882,4.8604,4.8604,4.8604,4.8604,4.8604,4.8604,4.8604,4.8604,4.8604,4.8355,4.8133,4.8049,4.7794,4.7478,0.0,0.0,0.0,0.0,0.0,0.0,0.0,0.0,0.0,0.0,4.1194,4.0554,0.0,0.0,0.0,0.0,0.0,0.0,0.0,0.0,4.0087,4.0087,4.0223,4.1001,4.2557,4.5365,4.6418,4.5703,4.7457,4.7881,4.7032,4.8362,4.9028,4.9094,4.9645,4.9492,4.8714,4.7225,4.5805,4.453,4.3798,4.3914,4.4429,4.2965,0.0,0.0,0.0,0.0,0.0,0.0,0.0,0.0,4.2692,4.2378,4.1896,4.3794,4.3132,4.2037,4.3332,0.0,0.0,0.0,0.0,0.0,0.0,0.0,0.0,0.0,0.0,0.0,0.0,0.0,0.0,0.0,0.0,0.0,0.0,0.0,0.0,0.0,0.0,0.0,0.0,0.0,0.0,0.0,0.0,0.0,0.0,0.0,0.0,0.0,4.8974,4.8604,4.8604,4.8604,4.8604,0.0,4.8604,4.8604,4.8604,4.8604,4.8604,4.8604,4.8604,4.8604,4.8604,4.8604,4.8604,4.8604,4.8604,4.8407,4.821,4.8042,4.7873,4.7607,0.0,0.0,0.0,0.0,0.0,0.0,0.0,0.0,0.0,0.0,0.0,0.0,0.0,0.0,0.0,0.0,0.0,0.0,0.0,0.0,4.0087,4.0087,4.1204,4.2794,4.4925,4.5162,4.5399,4.5703,4.6835,4.7428,4.772,4.8023,4.8495,4.9001,4.8585,4.797,4.7158,4.5669,4.4857,4.453,4.3798,4.3914,4.4429,4.2965,4.2445,0.0,0.0,0.0,0.0,0.0,0.0,0.0,4.0696,4.1774,4.2858,4.2219,4.2927,4.3907,0.0,0.0,0.0,0.0,0.0,0.0,0.0,0.0,0.0,0.0,0.0,0.0,0.0,0.0,0.0,0.0,0.0,0.0,0.0,0.0,0.0,0.0,0.0,0.0,0.0,0.0,0.0,0.0,0.0,0.0,0.0,0.0,0.0,4.9682,4.8974,4.8604,4.8604,4.8604,4.8604,0.0,4.8604,4.8604,4.8604,4.8604,4.8604,4.8604,4.8604,4.8604,4.8604,4.8604,4.8604,4.8604,4.8604,4.8131,4.7507,4.7507,4.7175,4.6719,0.0,0.0,0.0,0.0,0.0,0.0,0.0,0.0,0.0,0.0,0.0,0.0,0.0,0.0,0.0,0.0,0.0,0.0,0.0,0.0,4.0087,4.0087,4.117,4.2151,4.2997,4.3728,4.4101,4.4079,4.5275,4.6225,4.6853,4.6891,4.7429,4.8477,4.8443,4.7834,4.6752,4.5974,4.5229,4.453,4.3798,4.3706,4.3963,4.285,4.2176,4.1774,4.1336,0.0,0.0,0.0,0.0,0.0,0.0,0.0,4.2875,4.2847,4.3231,4.3812,0.0,0.0,0.0,0.0,0.0,0.0,0.0,0.0,0.0,0.0,0.0,0.0,0.0,0.0,0.0,0.0,0.0,0.0,0.0,0.0,0.0,0.0,0.0,0.0,0.0,0.0,0.0,0.0,0.0,0.0,0.0,4.9343,4.9127,4.9158,4.882,4.8604,4.8604,4.8604,4.8604,4.8604,4.8604,4.8604,4.8604,4.8604,4.8604,4.8604,4.8604,4.8604,4.8604,4.8604,4.8604,4.8604,4.8604,4.8306,4.7916,4.7834,4.7668,4.741,0.0,0.0,0.0,0.0,0.0,0.0,0.0,0.0,0.0,0.0,0.0,0.0,0.0,0.0,0.0,0.0,0.0,0.0,0.0,0.0,0.0,4.046,4.1068,4.1238,4.0865,4.2523,4.3166,4.2692,4.3842,4.4823,4.5703,4.5878,4.6675,4.7936,4.8409,4.7936,4.6786,4.6515,4.5703,4.453,4.3798,4.3588,4.3639,4.2866,4.217,4.1643,4.162,4.1035,4.0257,4.0257,0.0,0.0,0.0,0.0,4.2354,4.3639,4.3272,4.2983,0.0,0.0,0.0,0.0,0.0,0.0,0.0,0.0,0.0,0.0,0.0,0.0,0.0,0.0,0.0,0.0,0.0,0.0,0.0,0.0,0.0,0.0,0.0,0.0,0.0,0.0,0.0,0.0,0.0,0.0,4.8696,4.9189,4.922,4.8635,4.8604,4.8604,4.8604,4.8604,4.8604,4.8604,4.8604,4.8543,4.845,4.845,4.8512,4.8604,4.8604,4.8604,4.8604,4.8604,4.8604,4.8604,4.8481,4.8358,4.8266,4.8101,4.8101,4.8091,0.0,0.0,0.0,0.0,0.0,0.0,0.0,0.0,0.0,0.0,4.0776,0.0,0.0,0.0,0.0,0.0,0.0,0.0,4.0223,0.0,0.0,4.1948,4.2083,4.2726,4.3944,4.3606,4.3707,4.4282,4.3809,4.4316,0.0,0.0,4.7132,4.7902,4.7327,4.6989,4.6718,4.5432,4.4756,4.453,4.3798,4.3914,4.435,4.3606,4.3222,4.3124,4.3111,4.2219,4.1068,4.1068,4.0696,0.0,0.0,0.0,4.1407,4.161,4.1963,4.2656,0.0,0.0,0.0,0.0,0.0,0.0,0.0,0.0,0.0,0.0,0.0,0.0,0.0,0.0,0.0,0.0,0.0,0.0,0.0,0.0,0.0,0.0,0.0,0.0,0.0,0.0,0.0,0.0,0.0,0.0,4.8666,4.8696,4.8696,4.8604,4.8604,4.8604,4.8604,4.8604,4.8604,4.8604,4.8604,4.8296,4.7742,4.7742,4.805,4.8604,4.8604,4.8604,4.8604,4.8604,4.8604,4.8543,4.7958,4.7373,4.685,4.688,4.672,4.6548,0.0,0.0,0.0,0.0,0.0,0.0,0.0,0.0,0.0,0.0,0.0,4.0776,0.0,0.0,0.0,4.0288,4.0188,4.0087,4.0087,4.0087,4.0358,4.1035,4.1068,4.1373,4.2049,4.2151,4.2354,4.2692,4.3166,0.0,0.0,4.6447,4.6955,4.7259,4.6515,4.6177,4.6109,4.5026,4.4609,4.4665,4.4293,4.3853,4.3551,4.3954,4.3059,4.1765,4.2934,4.2455,4.1204,4.1204,4.1271,4.117,4.0324,0.0,0.0,0.0,4.1441,0.0,0.0,0.0,0.0,0.0,0.0,0.0,0.0,0.0,0.0,0.0,0.0,0.0,0.0,0.0,0.0,0.0,0.0,0.0,0.0,0.0,0.0,0.0,0.0,0.0,0.0,0.0,0.0,0.0,0.0,4.8943,4.8635,4.8604,4.8604,4.8604,4.8235,4.805,4.805,4.805,4.8235,4.8604,4.8604,4.8266,4.7619,4.7619,4.7773,4.8019,4.765,4.7681,4.8019,4.765,4.7496,4.7465,4.7157,4.7096,4.7157,4.7157,4.7323,4.7518,0.0,0.0,0.0,0.0,0.0,0.0,0.0,0.0,0.0,0.0,0.0,0.0,0.0,0.0,0.0,0.0,4.0238,4.0138,4.0087,4.0087,4.0087,4.0087,4.0087,4.0087,4.0087,4.0629,4.1001,4.1204,0.0,0.0,4.6007,4.6549,4.7192,0.0,4.6752,4.6075,4.5669,4.5151,4.497,4.4992,4.4618,4.3799,4.3048,4.3842,4.2711,4.1021,4.282,4.2591,4.1508,0.0,0.0,0.0,4.073,4.0629,0.0,0.0,0.0,0.0,0.0,0.0,0.0,0.0,0.0,0.0,0.0,0.0,0.0,0.0,0.0,0.0,0.0,0.0,0.0,0.0,0.0,0.0,0.0,0.0,0.0,0.0,0.0,0.0,0.0,0.0,0.0,0.0,0.0,4.8604,4.8604,4.8604,4.8604,4.8604,4.7958,4.7619,4.7619,4.7434,4.7619,4.8112,4.8112,4.7742,4.7096,4.7096,4.7096,4.7065,4.6726,4.688,4.7311,4.6819,4.6603,4.6573,4.6419,4.6634,4.7127,4.7281,4.7681,4.8112,0.0,0.0,0.0,0.0,0.0,0.0,0.0,0.0,0.0,0.0,0.0,0.0,4.0871,4.0776,4.0714,4.0714,4.0436,4.0238,4.0138,4.0087,4.0087,4.0087,4.0087,0.0,4.0087,4.0121,4.0493,4.1204,0.0,0.0,4.6718,4.6786,4.8274,5.0879,4.8748,4.7022,4.5703,0.0,0.0,0.0,4.4409,4.3795,4.3498,4.2977,4.2618,4.2513,4.3294,0.0,0.0,0.0,0.0,0.0,4.117,4.0696,4.0155,0.0,0.0,0.0,0.0,4.4181,0.0,0.0,0.0,0.0,0.0,0.0,0.0,0.0,0.0,0.0,0.0,0.0,0.0,0.0,0.0,0.0,0.0,0.0,0.0,0.0,0.0,0.0,0.0,0.0,0.0,0.0,0.0,4.8604,4.8604,4.8604,4.8604,4.8604,4.7958,4.7619,4.7619,4.6973,4.6665,4.6696,4.6696,4.6357,4.568,4.568,4.568,4.5741,4.6326,4.6603,4.6634,4.6603,4.6603,4.6542,4.5895,4.5649,4.5772,4.6419,4.6665,4.6788,0.0,0.0,0.0,0.0,0.0,0.0,0.0,0.0,0.0,0.0,0.0,0.0,0.0,4.0776,4.0714,4.0714,4.0436,4.0288,4.0238,4.0138,4.0087,4.0087,4.0087,4.0087,4.0087,4.0087,4.0223,0.0,0.0,4.2388,4.4654,4.5635,4.6921,4.8376,4.8071,4.7631,4.7022,4.5659,0.0,0.0,0.0,4.3897,4.3045,4.3389,0.0,0.0,0.0,0.0,0.0,0.0,0.0,0.0,4.0798,4.029,4.0087,4.0087,4.0257,4.073,4.1948,0.0,0.0,0.0,0.0,0.0,0.0,0.0,0.0,0.0,0.0,0.0,0.0,0.0,0.0,0.0,0.0,0.0,0.0,0.0,0.0,0.0,0.0,0.0,0.0,0.0,0.0,0.0,0.0,0.0,4.8604,4.8604,4.8419,4.7989,4.7311,4.6757,4.6326,4.608,4.6172,4.6603,4.6603,4.6234,4.5588,4.5588,4.5341,4.4941,4.5187,4.5557,4.5926,4.5495,4.5311,4.528,4.5033,4.5218,4.568,4.6357,4.688,4.7342,0.0,0.0,0.0,0.0,0.0,0.0,0.0,0.0,0.0,0.0,0.0,0.0,0.0,0.0,4.0762,4.068,4.0485,4.0337,4.0288,4.0188,4.0087,4.0087,4.0087,4.0087,4.0087,4.0324,4.0324,0.0,0.0,0.0,0.0,4.4451,4.5602,4.6819,4.7056,4.7327,0.0,0.0,0.0,4.506,0.0,0.0,4.315,0.0,0.0,0.0,0.0,0.0,0.0,0.0,0.0,0.0,0.0,4.0493,4.0087,4.0087,4.0087,4.029,4.1271,4.1745,0.0,0.0,0.0,0.0,0.0,0.0,0.0,0.0,0.0,0.0,0.0,0.0,0.0,0.0,0.0,0.0,0.0,0.0,0.0,0.0,0.0,0.0,0.0,0.0,0.0,0.0,0.0,0.0,4.8604,4.8389,4.7865,4.6973,4.648,4.5926,4.5249,4.5249,4.5464,4.5926,4.5926,4.568,4.5249,4.5249,4.5003,4.4572,4.4572,4.4818,4.5218,4.4756,4.4572,4.4572,4.4572,4.5003,4.568,4.6357,4.7034,4.7711,0.0,0.0,0.0,0.0,0.0,0.0,0.0,0.0,0.0,4.094,0.0,0.0,0.0,0.0,0.0,4.0783,4.0651,4.047,4.0288,4.0188,4.0138,4.0138,4.0138,4.0087,4.0138,4.0798,4.0832,4.0087,4.0832,4.1914,4.3301,4.3335,4.4553,4.6616,4.594,4.6041,4.6684,0.0,4.6428,4.5625,0.0,4.4094,4.3989,0.0,0.0,0.0,4.3872,4.3562,0.0,0.0,0.0,0.0,0.0,4.1238,4.0087,4.0087,4.0087,4.0087,0.0,0.0,0.0,0.0,0.0,0.0,0.0,0.0,0.0,0.0,0.0,0.0,0.0,0.0,0.0,0.0,0.0,0.0,0.0,0.0,0.0,0.0,0.0,0.0,0.0,0.0,0.0,0.0,0.0,4.7896,4.8543,4.7927,4.6942,4.5618,4.5557,4.5249,4.4603,4.4572,4.4572,4.4572,4.4572,4.4572,4.4572,4.4572,4.4572,4.4572,4.4572,4.4572,4.4572,4.4572,4.4572,4.4572,4.4572,4.5003,4.568,4.6357,4.7034,4.7711,0.0,0.0,0.0,0.0,0.0,0.0,0.0,0.0,4.2575,0.0,0.0,0.0,4.2645,4.3009,4.3113,4.2546,4.2412,4.1831,4.0686,4.0387,4.0288,4.0387,4.0188,4.0138,4.0238,4.0341,4.029,4.0087,4.029,4.0595,4.1001,4.1576,4.2422,0.0,4.391,4.4147,4.4384,4.5015,0.0,0.0,4.5644,4.5583,0.0,0.0,0.0,0.0,0.0,4.5539,0.0,0.0,4.3594,4.277,0.0,0.0,4.0087,4.0087,4.0087,4.0087,4.0087,0.0,0.0,0.0,0.0,0.0,4.3978,0.0,0.0,0.0,0.0,0.0,0.0,0.0,0.0,0.0,0.0,0.0,0.0,0.0,0.0,0.0,0.0,0.0,0.0,0.0,0.0,0.0,4.7989,4.7681,4.7865,4.6788,4.5988,4.5588,4.5126,4.4756,4.4572,4.4572,4.4572,4.4572,4.4572,4.4572,4.4572,4.4572,4.4572,4.4572,4.4572,4.4572,4.4572,4.4572,4.4572,4.4572,4.4572,4.5003,4.568,4.6357,4.7034,4.7711,0.0,0.0,0.0,0.0,0.0,0.0,4.5216,4.432,4.3733,0.0,0.0,0.0,4.4113,4.4803,4.4803,4.3784,4.3253,4.2465,4.1229,4.0656,4.0436,4.0485,4.0337,4.0288,4.0387,4.0544,4.0493,4.0188,4.0493,4.0493,4.0087,4.0578,4.107,4.1511,0.0,0.0,0.0,0.0,0.0,0.0,4.5818,0.0,0.0,4.7223,4.73,0.0,0.0,0.0,4.7292,4.5608,4.4639,0.0,0.0,0.0,0.0,4.0155,4.0087,4.0087,4.0087,4.0087,4.0223,0.0,0.0,0.0,4.2557,4.4113,0.0,0.0,0.0,0.0,0.0,0.0,0.0,0.0,0.0,0.0,0.0,0.0,0.0,0.0,0.0,0.0,0.0,0.0,0.0,4.8173,4.7311,4.6757,4.6757,4.6018,4.5464,4.5187,4.4787,4.4572,4.4572,4.4572,4.4572,4.4572,4.4572,4.4572,4.4572,4.4572,4.4572,4.4572,4.4572,4.4572,4.4572,4.4572,4.4572,4.4572,4.4572,4.5157,4.6049,4.6449,4.7188,4.8081,0.0,0.0,0.0,4.6458,4.601,4.5803,4.6596,4.5561,4.4906,0.0,4.5147,4.5113,4.5975,4.6527,4.6251,4.4768,4.3804,4.2893,4.2034,4.1131,4.0603,4.0534,4.0534,4.0534,4.0534,4.1103,4.1086,4.0288,4.1086,4.0951,4.0138,4.0238,4.0288,4.0322,0.0,0.0,0.0,0.0,0.0,4.4575,4.5603,4.659,0.0,0.0,4.8449,0.0,4.7872,4.7838,4.7644,4.6536,4.5528,0.0,0.0,0.0,0.0,0.0,4.0189,4.0189,4.0087,4.0087,4.0392,0.0,0.0,0.0,4.2591,4.3132,4.3572,0.0,0.0,0.0,0.0,0.0,0.0,0.0,0.0,0.0,0.0,0.0,0.0,0.0,0.0,0.0,0.0,4.9694,4.8514,4.7923,4.6528,4.568,4.5588,4.5526,4.5187,4.4603,4.4572,4.4572,4.4572,4.4572,4.4572,4.4572,4.4572,4.4572,4.4572,4.4572,4.4572,4.4572,4.4572,4.4572,4.4572,4.4572,4.4572,4.4572,4.4572,4.5372,4.648,4.6573,4.7404,4.8512,4.5389,0.0,0.0,4.6458,4.6493,4.6631,4.7389,4.7251,4.7113,4.7251,4.7665,4.8459,4.9838,4.9045,4.8045,4.7113,4.5715,4.4337,4.3044,4.2068,4.1297,4.0858,4.0631,4.0534,4.0631,4.1252,4.1203,4.0485,4.1203,4.1103,4.0238,4.0288,4.0288,4.0322,0.0,0.0,0.0,0.0,0.0,4.3973,4.6169,0.0,4.8415,4.9378,4.9642,4.9493,4.8838,4.8596,4.823,0.0,4.4902,4.4007,0.0,0.0,0.0,0.0,0.0,0.0,0.0,0.0,0.0,0.0,0.0,0.0,4.0629,4.1204,4.188,0.0,0.0,0.0,0.0,0.0,0.0,0.0,0.0,0.0,0.0,0.0,0.0,0.0,0.0,0.0,0.0,4.9974,4.8937,4.9378,4.7556,4.6172,4.5618,4.5064,4.4726,4.4572,4.4572,4.4572,4.4572,4.4572,4.4572,4.4572,4.4572,4.4572,4.4572,4.4572,4.4572,4.4572,4.4572,4.4572,4.4572,4.4572,4.4572,4.4572,4.4572,4.5064,4.5865,4.6388,4.7127,4.7865,4.5492,0.0,0.0,4.701,4.7148,4.7527,4.87,4.8528,4.8528,4.9321,5.039,5.1114,5.1114,5.0769,4.9769,4.7872,4.6665,4.5354,4.3837,4.258,4.196,4.2009,4.1533,4.1278,4.1326,4.1606,4.1336,4.0583,4.1336,4.1252,4.0421,4.1271,4.1237,4.0519,4.0812,0.0,0.0,0.0,4.3045,4.3966,4.6215,0.0,4.8198,4.933,4.986,4.9942,4.9562,4.9424,4.9114,4.7072,4.6158,0.0,0.0,4.3234,4.2943,0.0,4.1359,4.1138,0.0,0.0,0.0,4.0087,0.0,0.0,0.0,4.0663,4.1305,0.0,0.0,0.0,0.0,0.0,0.0,0.0,0.0,0.0,0.0,0.0,0.0,0.0,0.0,0.0,0.0,5.0514,4.8997,4.789,4.6774,4.5863,4.5095,4.4756,4.4572,4.4572,4.4572,4.4572,4.4572,4.4572,4.4572,4.4572,4.4572,4.4572,4.4572,4.4572,4.4572,4.4572,4.4572,4.4572,4.4572,4.4572,4.4572,4.4572,4.4572,4.5003,4.568,4.6357,4.7034,4.7711,4.5596,0.0,0.0,4.7596,4.77,4.8217,4.9769,4.9459,4.9597,5.1114,5.239,5.277,5.1666,5.1839,5.1183,4.9183,4.7527,4.6251,0.0,0.0,0.0,4.294,4.2319,4.1905,4.1767,4.1808,4.1484,4.0762,4.1621,4.1572,4.0568,4.2208,4.2224,0.0,4.1405,0.0,0.0,0.0,0.0,4.4126,0.0,4.725,4.7683,4.9042,4.9742,4.9976,4.9666,4.9562,4.9321,4.7803,0.0,4.6811,4.4868,4.4231,0.0,0.0,0.0,0.0,0.0,0.0,0.0,0.0,0.0,4.046,0.0,0.0,0.0,0.0,0.0,0.0,0.0,0.0,0.0,0.0,0.0,0.0,0.0,0.0,0.0,0.0,0.0,0.0,0.0,5.0852,4.901,4.6534,4.6054,4.5636,4.5067,4.4843,4.4799,4.4799,4.4799,4.4723,4.4572,4.4572,4.4572,4.4572,4.4572,4.4572,4.4572,4.4572,4.4572,4.4572,4.4572,4.4572,4.4572,4.4572,4.4572,4.4572,4.4572,4.5003,4.568,4.6357,4.7034,4.7711,4.5596,4.6079,0.0,0.0,4.77,4.8217,4.9769,4.9942,5.0424,5.1908,5.2252,5.2563,0.0,0.0,0.0,0.0,0.0,0.0,4.9217,0.0,4.3457,4.2181,4.2043,4.1664,4.1009,4.1664,4.163,4.0871,4.2319,4.2236,4.0714,4.2259,4.2533,0.0,4.1778,0.0,0.0,0.0,4.3494,0.0,4.6529,4.7455,0.0,4.9309,4.9952,4.9838,4.8459,4.7976,4.7734,0.0,4.5646,4.5577,0.0,4.5039,4.4712,0.0,0.0,0.0,0.0,0.0,0.0,0.0,4.1576,0.0,0.0,0.0,0.0,0.0,0.0,0.0,0.0,0.0,0.0,0.0,0.0,0.0,0.0,0.0,0.0,0.0,0.0,0.0,0.0,0.0,4.9575,4.8602,4.7298,4.6548,4.6582,4.5913,4.5551,4.5551,4.5551,4.529,4.4572,4.4572,4.4572,4.4572,4.4572,4.4572,4.4572,4.4572,4.4572,4.4572,4.4572,4.4572,4.4572,4.4572,4.4572,4.4572,4.4572,4.5003,4.568,4.6357,4.7034,4.7711,4.6182,4.6734,0.0,0.0,4.8079,4.8734,4.9838,5.1494,5.2528,5.2252,5.377,0.0,0.0,0.0,0.0,0.0,0.0,5.0183,0.0,0.0,4.5527,4.532,0.0,0.0,4.2871,4.3147,4.2733,4.1526,4.3044,4.3251,4.2201,4.3666,4.3494,0.0,4.2408,0.0,4.2925,0.0,0.0,0.0,0.0,0.0,0.0,4.9275,4.9918,4.9804,4.8252,4.801,4.8045,0.0,4.5734,0.0,0.0,0.0,0.0,0.0,0.0,0.0,0.0,0.0,0.0,0.0,0.0,0.0,0.0,0.0,4.185,0.0,0.0,0.0,0.0,0.0,0.0,0.0,4.6413,0.0,0.0,0.0,0.0,0.0,0.0,0.0,0.0,0.0,0.0,0.0,0.0,4.6767,4.6795,4.6062,4.5891,4.6308,4.5913,4.5551,4.5216,4.4799,4.4572,4.4572,4.4572,4.4572,4.4572,4.4572,4.4572,4.4572,4.4572,4.4572,4.4572,4.4572,4.4818,4.5157,4.5157,4.5341,4.568,4.6357,4.7034,4.7711,4.6906,0.0,0.0,0.0,0.0,4.8872,4.9873,5.2046,0.0,0.0,0.0,0.0,5.5943,5.5736,0.0,0.0,0.0,5.2839,0.0,0.0,4.7389,0.0,0.0,0.0,0.0,0.0,4.3526,4.1974,4.3526,4.3802,4.2871,4.463,4.432,4.2354,0.0,4.3285,4.294,0.0,0.0,4.4699,4.5903,4.7004,4.8092,4.9344,4.9722,4.9493,4.8183,4.7941,4.7941,4.6044,4.5803,0.0,4.5596,0.0,0.0,0.0,0.0,0.0,4.1675,0.0,0.0,0.0,0.0,0.0,0.0,0.0,0.0,0.0,0.0,0.0,0.0,0.0,0.0,0.0,0.0,4.5669,0.0,0.0,0.0,0.0,0.0,0.0,0.0,0.0,0.0,4.8258,4.7367,4.6847,4.7111,4.6616,4.6548,4.7069,4.6588,4.6198,4.5985,4.5478,4.5067,4.4918,4.4918,4.4799,4.4572,4.4572,4.4572,4.4572,4.4572,4.4572,4.4572,4.4572,4.4972,4.5588,4.5588,4.5803,4.6203,4.6696,4.7311,4.7958,4.7665,4.7113,0.0,0.0,0.0,0.0,0.0,0.0,0.0,0.0,0.0,0.0,0.0,0.0,0.0,0.0,0.0,5.4736,5.5357,0.0,4.8596,0.0,0.0,0.0,0.0,0.0,0.0,4.1974,4.3526,4.3492,4.2078,4.4354,4.4596,4.3197,0.0,4.463,4.5285,4.4561,4.4665,4.5458,4.6286,4.7493,4.8872,0.0,4.9528,4.8769,4.7976,0.0,0.0,4.5699,4.5458,0.0,0.0,0.0,0.0,0.0,0.0,0.0,0.0,0.0,0.0,4.3818,0.0,0.0,0.0,0.0,4.4292,0.0,0.0,0.0,0.0,0.0,4.391,4.5466,0.0,0.0,0.0,0.0,0.0,0.0,0.0,0.0,0.0,0.0,0.0,4.8889,4.7655,4.7095,4.7815,4.7825,4.7868,4.7868,4.7803,4.7473,4.6759,4.6759,4.641,4.5697,4.5697,4.529,4.4572,4.4572,4.4572,4.4572,4.4572,4.4572,4.4572,4.4572,4.4972,4.5588,4.5588,4.6388,4.7558,4.7558,4.7989,4.8573,0.0,0.0,0.0,0.0,0.0,0.0,0.0,5.1804,0.0,0.0,0.0,0.0,0.0,0.0,6.122,0.0,0.0,5.8254,5.6529,5.3287,0.0,0.0,0.0,4.6837,0.0,0.0,0.0,0.0,0.0,0.0,0.0,0.0,0.0,0.0,0.0,4.3975,0.0,0.0,0.0,0.0,0.0,4.775,4.8838,0.0,0.0,4.8734,4.7976,4.7251,0.0,4.5699,4.5423,4.5423,4.5423,4.5423,4.5285,4.4492,4.4285,0.0,0.0,0.0,4.4096,4.3563,0.0,0.0,0.0,0.0,0.0,0.0,0.0,0.0,0.0,0.0,4.4461,4.4857,4.4756,4.4688,0.0,0.0,0.0,0.0,0.0,0.0,0.0,0.0,0.0,4.7564,4.6615,4.6615,4.7808,4.7423,4.7631,4.8606,4.8161,4.777,4.7539,4.7001,4.6657,4.641,4.641,4.634,4.6056,4.6056,4.5769,4.5363,4.5363,4.5067,4.4572,4.4572,4.4972,4.5618,4.608,4.6819,4.7619,4.7619,4.8019,4.8543,4.8217,0.0,0.0,0.0,0.0,0.0,0.0,0.0,0.0,0.0,5.9012,0.0,6.4117,0.0,6.3634,0.0,6.2496,6.0427,5.7391,5.5322,0.0,5.3011,5.0907,0.0,0.0,0.0,0.0,0.0,0.0,4.5044,0.0,0.0,0.0,0.0,0.0,0.0,0.0,0.0,4.4466,0.0,0.0,4.7473,0.0,0.0,4.8355,4.87,0.0,4.6837,4.6113,4.5596,4.5423,4.5423,4.5423,4.5423,4.532,4.4837,4.4699,4.4596,4.4113,4.432,0.0,4.4078,4.4699,0.0,4.4923,0.0,0.0,0.0,0.0,0.0,0.0,0.0,0.0,4.4551,4.413,4.3931,0.0,4.4418,0.0,0.0,0.0,0.0,0.0,0.0,4.6921,4.6447,4.5974,4.6244,0.0,0.0,4.7767,4.8951,4.8513,4.8289,4.8289,4.7836,4.7439,4.7204,4.7204,4.7069,4.6828,4.6828,4.655,4.6127,4.6127,4.5968,4.5751,4.5235,4.5552,4.6392,4.6298,4.6634,4.7311,4.7773,4.8235,4.8543,0.0,0.0,0.0,0.0,5.0114,0.0,0.0,0.0,5.7047,0.0,6.0737,6.3462,6.5807,6.4703,6.4358,6.5773,6.3807,0.0,5.8254,5.7943,0.0,0.0,5.308,5.2046,4.9114,0.0,0.0,0.0,0.0,0.0,0.0,0.0,0.0,0.0,4.3906,0.0,4.432,4.4285,4.4605,4.5163,4.5936,4.6709,4.7312,4.6741,4.7458,4.8596,4.7113,4.6113,4.5423,4.5423,4.5423,4.5423,4.5423,4.5423,4.5423,4.5423,4.5423,4.5423,4.5423,4.5423,4.5423,4.5423,0.0,0.0,0.0,0.0,4.6916,0.0,0.0,0.0,0.0,0.0,0.0,4.4435,4.334,4.2751,4.3335,0.0,0.0,0.0,0.0,0.0,0.0,4.6549,4.5703,4.5669,4.5669,4.5974,0.0,0.0,4.8206,4.8917,4.8984,4.9018,4.9018,4.9018,4.8639,4.7967,4.7967,4.7638,4.6896,4.6896,4.6896,4.6896,4.6896,4.7286,4.7799,4.6375,4.655,4.7688,4.6284,4.6111,4.685,4.8112,4.8543,4.8512,4.9907,5.0149,5.0528,0.0,5.039,5.0873,0.0,0.0,0.0,0.0,6.2944,6.5221,6.8083,6.7532,6.6669,6.5945,6.3807,0.0,0.0,0.0,0.0,5.646,5.4494,5.3046,5.2252,5.0769,0.0,4.7424,0.0,0.0,4.3508,0.0,0.0,0.0,0.0,0.0,4.5079,4.4527,4.4953,4.5985,4.691,4.7582,0.0,0.0,4.7004,4.7872,4.6941,4.6113,4.5423,4.5423,4.5423,4.5423,4.5423,4.5423,4.5423,4.5423,4.5423,4.5423,4.5423,4.5423,4.5423,4.5423,4.5423,4.5423,0.0,0.0,0.0,0.0,0.0,0.0,0.0,0.0,0.0,4.4655,4.3838,4.3362,0.0,0.0,0.0,4.5602,0.0,0.0,4.6177,4.594,4.5466,4.4925,4.4857,4.5196,4.594,0.0,0.0,4.8173,4.8714,4.9018,4.9018,4.9018,4.8923,4.8736,4.8736,4.8576,4.845,4.845,4.8096,4.7605,4.7605,4.7765,4.7831,4.6812,4.6961,4.7782,4.726,4.7496,4.8081,4.7927,4.7558,4.7188,5.0631,0.0,0.0,5.2114,0.0,0.0,5.4701,0.0,0.0,6.191,6.4083,0.0,6.7601,6.7704,6.7152,6.5979,6.3807,0.0,0.0,0.0,0.0,5.7909,5.5977,5.4736,5.4391,5.1804,0.0,4.8734,0.0,0.0,4.368,0.0,0.0,0.0,0.0,4.363,0.0,4.4753,4.567,4.6845,4.7378,0.0,0.0,4.668,4.6529,4.6951,4.6305,4.5803,4.5423,4.5423,4.5423,4.5423,4.5423,4.5423,4.5423,4.5423,4.5423,4.5423,4.5423,4.5423,4.5423,4.5423,4.5423,4.5423,4.5423,4.6534,4.738,0.0,0.0,0.0,0.0,0.0,0.0,0.0,0.0,0.0,0.0,0.0,0.0,0.0,4.488,0.0,4.5162,4.5196,4.5026,4.4621,4.4587,4.4891,0.0,0.0,0.0,4.7902,4.8951,4.9323,4.9018,4.9323,4.9323,4.9018,4.9018,4.9018,4.9018,4.9018,4.8798,4.8386,4.8386,4.876,4.929,4.8134,4.8087,4.8647,4.7573,4.7404,4.7711,4.7619,4.7558,4.7527,0.0,0.0,0.0,0.0,0.0,0.0,0.0,5.8215,0.0,6.2565,0.0,6.6478,6.6324,6.6738,6.6704,6.5945,0.0,6.191,6.0599,6.0323,5.9599,5.8254,5.7288,5.646,5.577,5.2701,0.0,0.0,0.0,0.0,4.4078,4.2664,0.0,0.0,0.0,0.0,0.0,4.5103,4.6449,4.7591,4.7674,4.7674,4.7506,4.6649,4.6266,4.6217,4.5598,4.5423,4.5423,4.5423,4.5423,4.5423,4.5423,4.5423,4.5423,4.5423,4.5423,4.5423,4.5423,4.5423,4.5423,4.5423,4.5423,4.5423,4.5423,4.6168,4.689,4.689,4.7741,4.8453,0.0,0.0,0.0,0.0,0.0,0.0,0.0,0.0,0.0,0.0,0.0,0.0,4.4587,4.4587,4.4587,4.4587,4.4587,4.4857,0.0,0.0,0.0,4.7767,4.9187,4.9695,4.9154,0.0,4.9661,4.9154,4.9052,4.9018,4.9018,4.9018,4.9018,4.9018,4.912,4.9932,5.1119,4.9793,4.9571,4.9812,4.7825,4.6929,4.6942,4.7527,4.805,4.8481,0.0,0.0,0.0,0.0,0.0,5.8591,6.1064,6.2638,6.3974,6.5124,6.7835,0.0,6.8749,6.7669,6.6704,6.5945,6.3807,0.0,0.0,0.0,0.0,5.9806,5.7874,5.6736,5.6598,5.2977,5.0735,0.0,0.0,0.0,4.3404,4.2423,4.2319,0.0,0.0,0.0,4.5649,4.5701,0.0,4.7632,4.8035,4.7955,4.7548,4.6981,4.6788,4.6649,4.5752,4.5423,4.5423,4.5423,4.5423,4.5423,4.5423,4.5423,4.5423,4.5423,4.5423,4.5423,4.5423,4.5423,4.5423,4.5423,4.5423,4.5423,4.5423,4.6168,4.689,4.689,4.8212,4.915,4.8416,0.0,0.0,0.0,0.0,0.0,0.0,0.0,0.0,0.0,0.0,4.5263,0.0,4.4587,4.4587,4.4587,4.4587,4.4654,0.0,0.0,0.0,0.0,4.8409,0.0,0.0,0.0,4.9424,4.9898,4.9289,4.9018,4.9018,4.9018,4.9018,4.9052,4.9627,5.0405,5.1186,5.0859,5.0391,4.9882,4.9474,4.8885,4.8266,4.8389,4.8173,4.7865,0.0,0.0,0.0,0.0,0.0,0.0,0.0,6.6138,0.0,6.5997,6.7473,6.7928,6.5952,6.6152,6.5945,6.4807,6.2944,6.1875,6.1875,6.0427,5.9599,5.9599,5.7805,0.0,5.6805,5.2701,5.0562,5.0562,0.0,0.0,4.3733,4.2561,4.2181,4.2595,0.0,4.4788,0.0,0.0,0.0,4.7995,4.8229,4.8153,4.7915,4.7421,4.7248,4.716,4.6168,4.5803,4.5752,4.5476,4.5423,4.5423,4.5423,4.5423,4.5423,4.5423,4.5423,4.5423,4.5423,4.5423,4.5423,4.5423,4.5423,4.5423,4.5423,4.6168,4.689,4.689,4.7959,4.8852,4.8616,4.8084,0.0,0.0,0.0,0.0,0.0,0.0,0.0,0.0,0.0,0.0,0.0,0.0,0.0,0.0,0.0,4.4418,0.0,0.0,0.0,0.0,0.0,0.0,0.0,0.0,0.0,4.9526,4.9187,4.9187,4.956,4.956,4.9796,5.0168,5.0541,5.1082,5.1761,5.1724,5.1514,5.1102,5.0723,4.9994,4.9228,4.9228,4.8581,4.7711,0.0,5.5943,0.0,0.0,6.0912,0.0,0.0,6.835,6.9444,6.7058,6.741,6.6919,6.4208,6.5278,6.5585,6.4186,6.253,6.1565,6.1565,6.0116,5.9254,5.9254,5.7667,5.6805,5.6805,5.2632,5.0597,0.0,0.0,0.0,0.0,4.3285,4.263,0.0,0.0,0.0,0.0,0.0,4.6705,4.8306,4.8306,4.8306,4.8267,4.7756,4.7674,4.7632,4.6695,4.6469,4.6513,4.5996,4.558,4.5458,4.563,4.5561,4.5423,4.5423,4.5423,4.5423,4.5423,4.5423,4.5423,4.5423,4.5423,4.5423,4.5423,4.6119,4.6788,4.688,4.7669,4.8483,4.9107,4.9101,0.0,0.0,0.0,0.0,0.0,0.0,0.0,0.0,0.0,0.0,4.4661,0.0,0.0,0.0,0.0,4.4147,4.3673,4.4823,4.5534,0.0,0.0,4.8849,4.9018,0.0,4.9661,4.9221,4.9086,4.9289,4.9864,5.0033,5.0405,5.098,5.1319,5.186,5.2538,5.2566,5.2449,5.2236,5.1623,5.0843,5.0104,4.9947,4.9031,4.7923,0.0,0.0,0.0,0.0,0.0,0.0,0.0,6.8346,7.0102,6.9907,7.0518,7.035,6.8781,6.7583,6.6558,6.5745,6.3634,6.2393,6.2393,6.0944,6.0082,6.0082,5.7978,5.6805,5.6805,5.3667,5.139,0.0,0.0,0.0,0.0,0.0,0.0,0.0,0.0,0.0,0.0,4.5713,4.6705,4.8306,4.8306,4.8306,4.8267,4.7756,4.7838,4.8114,4.716,4.7262,4.7773,4.7287,4.636,4.5561,4.6286,4.601,4.5423,4.5423,4.5423,4.5423,4.5423,4.5423,4.5423,4.5423,4.5423,4.5423,4.5423,4.5854,4.6363,4.6799,4.7669,4.8783,5.0358,5.0028,4.9354,0.0,0.0,0.0,0.0,0.0,0.0,0.0,0.0,0.0,0.0,4.381,0.0,0.0,4.3559,4.3809,4.4451,4.4587,4.4993,4.5703,0.0,4.8342,4.8984,4.9086,4.939,4.9965,4.9323,4.9052,4.912,4.9796,5.0135,5.027,5.1623,5.2672,5.3416,5.3382,5.2972,5.2307,5.2236,5.1696,5.0919,5.0182,4.9426,4.8655,0.0,0.0,0.0,0.0,0.0,0.0,0.0,6.9597,7.1122,7.1573,7.1485,7.0642,6.8676,6.7588,6.6531,6.5229,6.3511,6.2289,6.1806,6.0771,5.9771,5.8875,5.7529,5.6564,5.6115,5.3529,5.1942,0.0,0.0,0.0,0.0,0.0,0.0,0.0,0.0,4.4782,4.6391,4.5891,4.6705,4.8306,4.8306,4.8306,4.8267,4.8075,4.8114,4.8229,4.7548,4.7515,4.7815,4.7894,4.7404,4.6769,4.6665,4.6389,4.6044,4.5561,4.5423,4.5423,4.5423,4.5423,4.5423,4.5423,4.5423,4.5423,4.5423,4.5803,4.6315,4.6799,4.843,4.9994,5.0692,5.0912,5.0863,0.0,0.0,0.0,0.0,0.0,0.0,0.0,0.0,0.0,0.0,0.0,0.0,0.0,0.0,4.4045,4.3876,4.4316,4.4722,4.5026,0.0,4.7597,4.8342,4.8781,4.9154,4.9424,4.9154,4.9458,5.0338,5.0642,5.1285,5.2164,5.2773,5.3213,5.3518,5.3518,5.328,5.3041,5.3041,5.252,5.1696,5.0919,5.0147,4.941,6.1737,0.0,6.1875,0.0,6.4358,6.6132,6.8551,6.9688,7.0834,7.2328,7.1427,7.0118,6.8802,6.8026,6.6878,6.5126,6.338,6.216,6.1323,6.0392,5.9254,5.7978,5.7185,0.0,5.5977,5.3942,5.277,5.2563,5.0183,0.0,0.0,0.0,0.0,0.0,4.4389,4.5131,4.6534,4.6177,4.6922,4.8306,4.8306,4.8306,4.8343,4.86,4.8526,4.8304,4.8247,4.826,4.8331,4.8758,4.8766,4.8404,4.7306,4.6769,4.6458,4.5665,4.5423,4.5423,4.5423,4.5423,4.5423,4.5423,4.5423,4.5423,4.5423,4.5701,4.6119,4.6753,4.8756,5.0508,5.0765,5.1463,5.1894,5.1515,0.0,0.0,0.0,0.0,0.0,0.0,4.714,4.6102,4.4997,4.4684,0.0,0.0,0.0,0.0,4.383,4.4135,0.0,0.0,0.0,0.0,0.0,4.8646,4.9018,4.9018,4.9221,4.9864,5.0913,5.1352,5.2266,5.3518,5.3518,5.3518,5.3518,5.3518,5.3518,5.3518,5.3518,5.3144,5.252,5.1769,5.107,5.0493,6.4634,6.4634,6.4634,6.4669,6.5794,6.7088,6.7975,6.7942,6.8898,7.2092,7.044,6.9206,7.0107,6.9502,6.8175,6.5899,6.3618,6.2051,6.136,5.9875,5.8702,0.0,0.0,5.6805,5.6771,5.5288,5.4115,5.3391,0.0,0.0,4.8769,0.0,4.5423,4.5389,4.463,4.4817,4.5749,4.6569,4.7421,4.8306,4.8306,4.8306,4.8379,4.926,4.904,4.8416,4.926,4.9747,4.9973,4.9973,5.0365,5.0414,4.8315,4.7217,4.6458,4.5665,4.5423,4.5423,4.5423,4.5423,4.5423,4.5423,4.5423,4.5423,4.5423,4.5423,4.5701,4.666,4.8321,4.9848,5.0655,5.1463,5.1977,5.1977,0.0,0.0,0.0,0.0,0.0,0.0,4.7119,4.614,4.5117,4.4879,0.0,0.0,0.0,0.0,0.0,0.0,0.0,4.5635,4.6413,0.0,4.7902,4.8646,4.9018,4.9018,4.9729,5.0101,5.0135,5.1623,5.2739,5.3518,5.3518,5.3518,5.3518,5.3518,5.3518,5.3518,5.3518,5.3518,5.3348,5.259,5.2307,5.202,6.6359,6.5842,6.5324,6.4807,6.5512,6.638,6.7059,6.8053,6.918,7.0677,7.0183,6.9614,6.9352,6.8713,6.7788,0.0,6.4392,6.2778,0.0,6.0601,5.9254,5.7978,5.7185,5.6805,5.6805,5.5288,5.4391,5.4149,0.0,0.0,0.0,4.7562,4.67,4.6182,4.5423,4.5621,4.6534,4.6783,4.7421,4.8306,4.8306,4.8306,4.8343,4.86,4.8893,4.9224,4.9481,5.0025,5.055,5.0758,5.0587,5.002,4.8678,4.7819,4.7113,4.5803,4.5423,4.5423,4.5423,4.5423,4.5423,4.5423,4.5423,4.5423,4.5423,4.592,4.6472,4.6799,4.8321,4.9848,5.0655,5.1463,5.1977,5.1977,5.1511,0.0,0.0,0.0,0.0,0.0,4.7166,4.6313,0.0,4.5351,0.0,0.0,0.0,0.0,0.0,0.0,0.0,0.0,4.6669,0.0,4.8048,4.8795,4.9107,4.9018,4.9255,4.9864,5.0913,5.2435,5.3281,5.3518,5.3518,5.3518,5.3518,5.3518,5.3518,5.3518,5.3518,5.3518,5.3416,5.2624,5.2307,5.2092,6.7118,6.6635,6.5945,6.4876,6.5297,6.5933,6.6341,6.7429,6.8559,6.9566,6.9448,6.9119,6.8935,6.8272,0.0,6.6279,6.4445,6.3066,6.2252,6.0897,5.9557,5.8342,5.7593,5.7081,5.6805,0.0,0.0,5.4908,5.3115,5.1356,4.9666,4.8631,4.7734,4.6975,4.6217,4.625,4.689,4.689,4.7421,4.8306,4.8306,4.8306,4.8343,4.8673,4.9114,4.9627,4.9921,5.0582,5.1275,5.142,5.1238,5.0715,4.9829,4.8799,4.7661,4.5925,4.5423,4.5492,4.5803,4.5872,4.5941,4.6217,4.6079,4.5803,4.5492,4.6168,4.689,4.689,4.8575,5.0178,5.0729,5.1683,5.2344,5.205,5.1595,5.0858,4.9774,0.0,0.0,0.0,0.0,0.0,0.0,4.6569,4.6046,0.0,0.0,0.0,0.0,0.0,0.0,4.6498,4.725,0.0,4.8635,4.9052,4.9426,4.961,5.0125,5.0943,5.2097,5.3078,5.3518,5.3518,5.3518,5.3518,5.3518,5.3518,5.3518,5.3518,5.3518,5.3518,5.3416,5.2903,5.2764,5.252,6.7264,6.7014,0.0,0.0,6.5259,0.0,6.5689,6.6253,6.7221,6.8766,6.8235,6.7981,6.8752,6.8091,6.703,6.5561,0.0,0.0,0.0,6.0839,5.9685,5.892,5.8241,5.7598,5.6978,5.684,5.6426,5.5598,5.3391,5.1942,5.1218,4.9631,4.8528,4.7838,4.7044,4.6793,4.7023,4.7069,4.7565,4.8341,4.8379,4.8343,4.8416,4.926,4.9627,4.9774,5.0582,5.1389,5.2087,5.2087,5.2193,5.2236,5.1475,4.9949,4.8118,4.6118,4.5458,4.5596,4.6389,4.6596,4.6769,4.7458,4.7079,4.632,4.5596,4.6168,4.6845,4.689,4.8865,5.0615,5.0765,5.2013,5.2821,5.2087,5.0946,5.0016,4.9625,0.0,0.0,0.0,0.0,0.0,0.0,4.8461,4.7998,0.0,0.0,0.0,0.0,0.0,4.6687,4.7295,4.8025,4.8812,4.959,4.953,4.9846,5.0598,5.1945,5.2938,5.3416,5.3484,5.3484,5.3484,5.3518,5.3518,5.3518,5.3518,5.3518,5.3518,5.3518,5.3518,5.3518,5.3518,5.3416,5.3212,0.0,0.0,6.6704,6.5773,6.5233,6.487,6.4882,6.5409,6.6207,6.7125,6.7541,6.776,6.7944,6.7247,6.6386,6.5384,6.453,6.3733,6.3142,6.1121,5.9674,5.9007,5.8252,5.8081,5.8495,5.7391,5.6426,5.5598,5.3942,5.3046,5.2804,5.07,4.9631,4.939,4.8045,4.7664,4.8091,4.8448,4.8641,4.8665,4.9105,4.8893,4.8416,4.926,4.9958,5.0618,5.1426,5.2234,5.2931,5.2931,5.2553,5.1987,5.1383,5.0185,4.8742,4.7327,4.6204,4.5596,4.6389,4.6596,4.6665,4.6837,4.6286,4.5665,4.5458,4.5905,4.6459,4.6835,4.7702,4.8862,5.0464,5.1132,5.1499,5.194,5.171,5.1046,4.9701,4.9292,0.0,0.0,4.909,4.9331,5.0236,4.955,4.871,0.0,0.0,0.0,0.0,4.7264,4.8015,4.8225,4.8501,4.9205,5.0237,4.9849,4.9966,5.0598,5.2072,5.2925,5.3065,5.3479,5.3651,5.3651,5.3551,5.3518,5.3518,5.3518,5.3518,5.3518,5.3518,5.3518,5.3518,5.3518,5.3144,5.2449,6.9008,6.8281,6.7538,6.6577,6.5723,6.5066,6.4463,6.477,6.5433,6.6064,6.6794,6.7378,6.7687,6.7283,6.6733,6.5925,6.4855,6.3875,6.3145,6.1414,6.0282,5.9902,5.8935,5.8426,5.8495,5.8047,5.7253,5.615,5.4632,5.3736,5.3391,5.2149,5.1011,4.9976,4.9114,4.8598,4.8451,4.8968,4.9241,4.9329,4.9944,4.9884,4.9481,4.9958,5.0655,5.1389,5.183,5.2527,5.3225,5.3225,5.2931,5.2485,5.2193,5.1176,5.0006,4.9329,4.7869,4.6631,4.7424,4.7761,4.7873,4.7525,4.7108,4.6569,4.5649,4.5803,4.6315,4.6799,4.7579,4.8701,5.0464,5.0802,5.0949,5.1389,5.1132,5.0435,4.915,4.8967,0.0,4.9481,4.9647,5.0154,5.1242,5.0649,4.9744,4.8722,4.8413,0.0,4.6815,4.8388,4.921,4.8856,4.9679,5.04,5.0999,5.1137,5.1381,5.1747,5.2946,5.3464,5.34,5.3744,5.3849,5.3849,5.3651,5.3618,5.3618,5.3518,5.3518,5.3518,5.3518,5.3518,5.3518,5.3518,5.2972,5.2164,6.9379,6.9083,6.8444,6.7197,6.6516,6.5625,6.4354,6.4567,6.5039,6.5625,6.6404,6.7117,6.7633,6.7687,6.732,6.6402,6.5081,6.3855,6.2925,6.162,6.0855,6.0796,5.9613,5.8737,5.8081,5.8461,5.8012,5.6633,5.5219,5.4184,5.3563,5.346,5.2321,5.0321,5.0218,4.9604,4.8802,4.9323,4.9816,5.0198,5.0744,5.0912,5.0802,5.0949,5.1389,5.2013,5.2123,5.2637,5.3225,5.3225,5.3225,5.3225,5.3225,5.2375,5.1402,5.1402,4.9906,4.8425,4.891,4.9342,4.9573,4.9097,4.8835,4.8242,4.6691,4.6444,4.6667,4.7155,4.8083,4.9168,5.0456,5.0762,5.0802,5.0802,5.0105,4.9297,4.8416,0.0,4.8783,4.9664,5.0472,5.1316,5.2087,5.1748,5.0941,4.9555,4.9567,4.9019,4.7738,4.9457,5.0211,4.9625,5.0914,5.1551,5.1449,5.2498,5.2997,5.2997,5.3793,5.4175,5.4045,5.4045,5.4045,5.4045,5.3849,5.3717,5.3717,5.3551,5.3484,5.3518,5.3518,5.3518,5.3518,5.3348,5.2834,5.2092,6.9813,6.9452,6.874,6.7269,6.6952,6.6354,6.4813,6.5468,6.61,6.6136,6.7024,6.7704,6.7687,6.7687,6.71,6.5632,6.5264,6.4506,6.3112,6.1681,6.0676,6.0192,5.9383,5.8944,5.884,5.7736,5.6702,5.5805,5.4943,5.446,5.4322,5.3701,5.2873,5.1839,5.1218,5.0771,5.0452,5.0992,5.1144,5.1076,5.1627,5.1389,5.0875,5.1536,5.1867,5.2087,5.2784,5.3115,5.3225,5.3225,5.3225,5.3225,5.3225,5.2733,5.2226,5.2226,5.1646,5.085,5.0282,5.019,5.0432,5.1016,5.0256,4.9644,5.051,4.9372,4.8217,4.8841,4.8875,4.9082,4.9967,5.0483,5.0802,5.0802,5.0105,4.9297,4.8416,0.0,4.9627,5.0508,5.1316,5.2123,5.2931,5.292,5.217,5.0378,5.0638,5.0325,4.8971,5.0268,5.123,5.1548,5.1574,5.1347,5.091,5.2312,5.2811,5.2364,5.3776,5.4431,5.4431,5.4239,5.4175,5.4175,5.4045,5.3849,5.3717,5.3651,5.3618,5.3518,5.3518,5.3518,5.3416,5.2764,5.2164,5.1696,7.0273,6.9566,6.8823,6.8327,6.7235,6.6216,6.5684,6.5526,6.5518,6.5682,6.6141,6.6628,6.7079,6.6765,6.6213,6.5375,6.4897,6.4171,6.2996,6.2023,6.13,6.101,6.0065,5.9383,5.9012,5.7564,5.6633,5.6253,5.5081,5.4494,5.4494,5.4149,5.3598,5.2839,5.2046,5.1405,5.0989,5.1421,5.1535,5.1502,5.2302,5.2417,5.2123,5.2527,5.2637,5.2711,5.3078,5.3225,5.3225,5.3225,5.3225,5.3225,5.3225,5.3017,5.2806,5.2806,5.2268,5.1579,5.1479,5.1502,5.1574,5.1946,5.1574,5.12,5.1607,5.0945,5.0311,5.0879,5.0868,5.0903,5.1602,5.1229,5.0949,5.1389,4.9994,0.0,0.0,4.9591,4.9994,5.1279,5.1756,5.2307,5.3115,5.3225,5.2565,5.0937,5.1746,5.1682,5.0361,5.1528,5.2389,5.2637,5.2535,5.2618,5.2901,5.3211,5.3584,5.3938,5.4337,5.4494,5.4529,5.4367,5.4367,5.4367,5.4175,5.4045,5.398,5.3915,5.3849,5.3717,5.3275,5.3377,5.3617,5.2571,5.2014,5.1736,7.0657,6.9773,6.9173,6.9269,6.7652,6.6388,6.6483,6.5743,6.5196,6.543,6.5475,6.5767,6.6492,6.6081,6.5566,6.5096,6.4604,6.3943,6.2879,6.236,6.2059,6.1897,6.0651,5.9609,5.8771,5.7633,5.6874,5.6529,5.5357,5.4667,5.4494,5.4494,5.4115,5.3356,5.2563,5.1864,5.1338,5.1546,5.1651,5.1848,5.2806,5.3225,5.3225,5.3225,5.3225,5.3225,5.3225,5.3225,5.3225,5.3225,5.3225,5.3225,5.3225,5.3225,5.3225,5.3225,5.2627,5.2042,5.2454,5.2627,5.2627,5.2854,5.2908,5.2878,5.2642,5.2497,5.2461,5.2661,5.2763,5.2935,5.3273,5.2223,5.1573,5.216,0.0,0.0,0.0,5.0435,5.0618,5.183,5.216,5.2527,5.3151,5.3225,5.2724,5.1547,5.2565,5.2681,5.1547,5.2565,5.3225,5.3225,5.3408,5.377,5.4472,5.4353,5.4562,5.5121,5.4852,5.462,5.4494,5.4494,5.4494,5.4494,5.4367,5.4239,5.4175,5.411,5.3943,5.3639,5.3058,5.3092,5.3335,5.2169,5.1722,5.1691,7.0657,7.0443,7.0125,6.9444,6.852,6.77,6.7088,6.6648,6.6355,6.6258,6.6276,6.6296,6.6225,6.6455,6.5985,6.4388,6.4839,6.453,6.2915,6.2755,6.2464,6.1897,6.0651,5.9364,5.8012,5.7874,5.7116,5.5701,5.5598,5.5184,5.4494,5.4494,5.4115,5.3356,5.2563,5.2067,5.1836,5.1667,5.1897,5.2408,5.2974,5.3225,5.3225,5.3225,5.3225,5.3225,5.3225,5.3225,5.3225,5.3225,5.3225,5.3225,5.3225,5.3225,5.3225,5.3225,5.3146,5.3103,5.3103,5.3146,5.3329,5.4063,5.4401,5.4676,5.5176,5.4865,5.4315,5.3733,5.3945,5.4159,5.3763,5.3295,5.3041,5.3115,0.0,0.0,5.0765,5.1389,5.1867,5.1977,5.2674,5.3151,5.3188,5.3225,5.2937,5.2381,5.2857,5.2937,5.2335,5.2893,5.3225,5.3225,5.3922,5.4107,5.3675,5.5039,5.5238,5.4279,5.4992,5.5079,5.4494,5.4494,5.4494,5.4494,5.4494,5.4367,5.4239,5.4175,5.3665,5.2887,5.2819,5.2443,5.1775,5.1123,5.1111,5.1347,7.1299,7.0443,6.9658,6.9372,6.8266,6.7302,6.7017,6.6495,6.5966,6.5671,6.5892,6.5952,6.5637,6.5483,6.5115,6.4353,6.407,6.3566,6.2941,6.2855,6.236,6.1322,6.0796,5.9953,5.8599,5.815,5.7633,5.7047,5.6081,5.546,5.5184,5.4736,5.4356,5.4046,5.3287,5.3098,5.3317,5.259,5.2615,5.3142,5.3156,5.3225,5.3261,5.3739,5.3959,5.3995,5.4509,5.4693,5.462,5.4106,5.3959,5.3959,5.3959,5.3959,5.4032,5.4546,5.4693,5.4693,5.4693,5.3959,5.3518,5.4803,5.5221,5.5569,5.6813,5.6905,5.6656,5.641,5.6511,5.6593,5.642,5.5448,5.484,5.5354,0.0,5.2637,5.3628,5.3592,5.3482,5.3482,5.3775,5.3739,5.3261,5.3225,5.3103,5.2893,5.306,5.3103,5.293,5.3103,5.3225,5.3225,5.4473,5.5045,5.4829,5.5523,5.5938,5.5991,5.5968,5.5658,5.5079,5.5079,5.4834,5.4494,5.4494,5.4431,5.4333,5.3886,5.3507,5.3101,5.2138,5.1953,5.2051,5.0526,5.0753,5.1564,7.1692,7.0621,6.9693,6.9693,6.8373,6.7338,6.7338,6.6482,6.5716,6.5417,6.5467,6.5405,6.5055,6.5017,6.4816,6.4462,6.4328,6.4083,6.3812,6.3406,6.2615,6.1265,6.1033,6.0432,5.9317,5.863,5.815,5.7909,5.684,5.6219,5.5977,5.546,5.5081,5.4805,5.408,5.381,5.3906,5.3299,5.334,5.37,5.388,5.3959,5.3995,5.4583,5.4766,5.484,5.539,5.5574,5.5537,5.5244,5.4987,5.4803,5.506,5.4987,5.4876,5.5427,5.5574,5.5574,5.5574,5.4987,5.462,5.5684,5.6161,5.6565,5.7446,5.7813,5.7923,5.7666,5.7813,5.807,5.8327,5.7042,5.6235,5.7042,5.5354,5.4326,5.5427,5.5097,5.4766,5.4766,5.4766,5.4546,5.3995,5.3959,5.3959,5.3959,5.3739,5.3592,5.3592,5.3592,5.3592,5.3592,5.4876,5.5574,5.5574,5.6244,5.6721,5.7116,5.6757,5.6166,5.5402,5.5402,5.5044,5.4494,5.4494,5.4391,5.4115,5.3598,5.3115,5.2563,5.1528,5.1321,5.1566,5.0287,5.0426,5.1041,7.1692,7.1049,7.0514,7.0478,6.9158,6.8088,6.8088,6.6803,6.5804,6.5804,6.5163,6.4713,6.4713,6.5345,6.5493,6.4678,6.6026,6.6505,6.5543,6.4632,6.3481,6.1987,6.1265,6.0615,6.0001,5.9317,5.8668,5.7909,5.7909,5.7529,5.6805,5.6805,5.6391,5.5598,5.4839,5.4115,5.3418,5.3792,5.392,5.4025,5.5176,5.5574,5.5574,5.5611,5.5611,5.5611,5.5611,5.5611,5.5721,5.6528,5.6271,5.5757,5.6565,5.6271,5.5611,5.5611,5.5611,5.5611,5.5611,5.6198,5.6822,5.6822,5.7409,5.7813,5.7005,5.7446,5.7776,5.7005,5.7446,5.8253,5.9098,5.7923,5.7079,5.7886,5.6675,5.5611,5.5611,5.5611,5.5611,5.5611,5.5611,5.5611,5.5574,5.5574,5.5574,5.5574,5.484,5.4399,5.4399,5.4399,5.4399,5.4399,5.517,5.5574,5.5574,5.7189,5.7726,5.7116,5.7116,5.651,5.5402,5.5402,5.5079,5.4494,5.4494,5.408,5.3391,5.3391,5.2494,5.1114,5.1114,5.0666,5.0066,5.0416,5.0158,4.9559,7.1692,7.1049,7.0336,6.9765,6.9265,6.8587,6.7481,6.6946,6.6446,6.5875,6.6162,6.6134,6.5587,6.633,6.6564,6.5747,6.5975,6.5804,6.4808,6.4401,6.3787,6.2705,6.1969,6.13,6.0615,6.003,5.9574,5.9364,5.8418,5.7805,5.7564,5.7047,5.6391,5.5598,5.5391,5.5092,5.478,5.4772,5.4952,5.5288,5.5533,5.5574,5.5647,5.6235,5.6455,5.6528,5.7079,5.7262,5.7226,5.6932,5.6638,5.6492,5.6712,5.7005,5.7262,5.7262,5.7262,5.7262,5.7262,5.7886,5.8364,5.7776,5.8253,5.8951,5.9245,5.9501,5.9612,5.9391,5.9538,5.9942,6.075,6.0015,5.9612,6.0382,5.9171,5.8143,5.8143,5.7629,5.7079,5.6528,5.6455,5.6235,5.5647,5.5574,5.5574,5.5574,5.5354,5.5244,5.5244,5.4693,5.4399,5.4399,5.517,5.5574,5.5574,5.7189,5.7904,5.7726,5.7726,5.7116,5.6055,5.6055,5.5461,5.4494,5.3942,5.3598,5.3322,5.2252,5.1839,5.177,5.0735,5.0601,5.085,4.9955,4.9944,5.0092,7.1692,7.1049,7.0371,6.9872,6.9515,6.8908,6.7624,6.7195,6.6696,6.5911,6.6306,6.6481,6.5915,6.675,6.7094,6.6611,6.6727,6.6445,6.5545,6.5066,6.4463,6.3615,6.2764,6.1969,6.1322,6.0711,6.0219,6.0001,5.9129,5.8591,5.8323,5.7874,5.7253,5.6529,5.6529,5.6102,5.5462,5.5851,5.6009,5.6104,5.64,5.6528,5.6602,5.7079,5.7262,5.7336,5.7813,5.7997,5.796,5.7813,5.7776,5.7703,5.7373,5.7593,5.7997,5.7997,5.8217,5.8474,5.8474,5.9061,5.9575,5.9061,5.9318,5.9905,6.0676,6.0639,6.0419,6.0419,6.0419,6.0639,6.1447,6.0933,6.0676,6.1484,6.0529,5.9575,5.9245,5.8804,5.818,5.7373,5.7262,5.7079,5.6602,5.6528,5.6418,5.6088,5.6381,5.6271,5.5611,5.5133,5.4876,5.4876,5.5354,5.5757,5.6051,5.7336,5.7997,5.7997,5.7997,5.7401,5.6276,5.6276,5.5517,5.408,5.3908,5.3322,5.2459,5.1804,5.1459,5.1252,5.0355,5.0385,5.0769,4.9937,4.9825,4.9883,7.1585,7.1014,7.0514,7.0514,6.9907,6.9158,6.8337,6.7552,6.6803,6.6018,6.5981,6.5988,6.5988,6.6861,6.7428,6.7428,6.8,6.7975,6.7172,6.6322,6.5374,6.445,6.3615,6.2792,6.2005,6.1322,6.0676,6.0065,6.0001,5.9648,5.9012,5.9012,5.8633,5.7909,5.7909,5.7081,5.5766,5.6917,5.7025,5.6492,5.7583,5.7997,5.7997,5.7997,5.7997,5.7997,5.7997,5.7997,5.8107,5.8877,5.9098,5.8988,5.8217,5.7997,5.7997,5.7997,5.851,5.9134,5.9208,5.9758,6.0309,6.0382,6.0456,6.0713,6.141,6.108,6.0603,6.0603,6.0603,6.086,6.1557,6.1117,6.086,6.1594,6.1043,6.0272,5.9538,5.9318,5.8951,5.818,5.8107,5.807,5.7997,5.7997,5.7703,5.6969,5.7593,5.7373,5.5868,5.5757,5.5684,5.5684,5.5684,5.6051,5.6785,5.7593,5.7997,5.7997,5.7997,5.7401,5.6384,5.6313,5.5221,5.3487,5.4108,5.3142,5.1149,5.1839,5.1321,5.008,5.0045,5.0045,5.0125,5.023,4.9869,4.9297,7.0871,7.0621,7.0514,7.0514,7.0371,6.9979,6.9158,6.8373,6.7588,6.6839,6.6812,6.6846,6.6846,6.7672,6.8246,6.8246,6.8346,6.8123,6.7306,6.6987,6.6112,6.4594,6.4229,6.3677,6.2805,6.2023,6.1358,6.0736,6.0219,5.9648,5.9012,5.9012,5.8633,5.7909,5.7909,5.7391,5.656,5.7164,5.729,5.7188,5.7753,5.7997,5.7997,5.7997,5.7997,5.7997,5.7997,5.7997,5.8033,5.8217,5.8253,5.8217,5.8033,5.7997,5.7997,5.7997,5.8107,5.84,5.9061,5.9355,5.9612,6.0236,6.086,6.1374,6.1557,6.1961,6.2291,6.2291,6.2291,6.2328,6.2511,6.2401,6.2365,6.2511,6.1851,6.1263,6.108,6.0015,5.9171,5.8988,5.8951,5.8694,5.807,5.7997,5.7923,5.774,5.7886,5.785,5.7483,5.6895,5.6528,5.6528,5.6528,5.6638,5.6822,5.7593,5.7997,5.7997,5.7997,5.7594,5.6927,5.6263,5.5259,5.4034,5.3521,5.2462,5.1114,5.1287,5.1149,5.0804,5.0252,5.0355,5.0838,5.0273,4.9939,4.9742,7.1228,7.1085,7.1085,7.1085,7.1085,7.0725,6.9777,6.9077,6.8332,6.7474,6.751,6.7539,6.7174,6.793,6.8506,6.8506,6.8506,6.832,6.7911,6.7455,6.6813,6.5922,6.5371,6.4683,6.3785,6.3319,6.2529,6.1379,6.0736,6.0093,5.945,5.9149,5.8806,5.8426,5.8426,5.8012,5.7354,5.8154,5.8289,5.8009,5.881,5.9134,5.9134,5.9134,5.9134,5.9134,5.9134,5.9134,5.9098,5.8694,5.8584,5.8584,5.8584,5.8327,5.7997,5.7997,5.8253,5.8767,5.9575,5.9795,5.9979,6.0786,6.13,6.1594,6.1594,6.2218,6.2805,6.2805,6.2805,6.2805,6.2805,6.2805,6.2805,6.2805,6.2438,6.2034,6.163,6.0896,6.0199,5.9832,5.9795,5.9465,5.8657,5.8584,5.84,5.8033,5.7997,5.7813,5.7446,5.7042,5.6822,5.6822,5.6822,5.6969,5.7373,5.818,5.8584,5.8584,5.8584,5.8446,5.8275,5.784,5.6617,5.4828,5.4735,5.3753,5.2218,5.2218,5.1977,5.1563,5.0804,5.0562,5.0528,5.0149,5.0011,4.9952,7.1834,7.1692,7.1656,7.1513,7.1478,7.1151,7.0253,6.9496,6.8755,6.7904,6.7955,6.7867,6.7174,6.793,6.8506,6.8506,6.8506,6.8506,6.8506,6.7874,6.7465,6.7317,6.6553,6.5689,6.4604,6.4509,6.3626,6.1951,6.1265,6.0615,6.0001,5.9317,5.9012,5.9012,5.9012,5.8668,5.8148,5.9213,5.9322,5.8887,5.9939,6.0419,6.0419,6.0419,6.0419,6.0419,6.0419,6.0419,6.0309,5.9648,5.9428,5.9428,5.9428,5.8951,5.8364,5.8253,5.8694,5.9355,6.0015,6.0199,6.0382,6.119,6.1484,6.1594,6.1594,6.2218,6.2805,6.2805,6.2805,6.2805,6.2805,6.2805,6.2805,6.2805,6.2805,6.2585,6.1887,6.1704,6.1337,6.0676,6.0493,6.0162,5.9501,5.9428,5.9098,5.8253,5.8217,5.7923,5.7262,5.7079,5.7005,5.7005,5.7005,5.7336,5.7997,5.8804,5.9281,5.9428,5.9538,5.9627,5.9735,5.959,5.8232,5.6056,5.6517,5.5609,5.3748,5.3521,5.2942,5.2114,5.1252,5.0562,5.0011,5.0011,5.0011,4.9952,7.1834,7.1692,7.1478,7.08,7.0657,7.0585,7.044,6.9225,6.8195,6.8076,6.7572,6.7247,6.7137,6.793,6.8506,6.8506,6.8506,6.8506,6.8506,6.8431,6.8023,6.7354,6.7158,6.6293,6.4641,6.4604,6.3825,6.2235,6.1456,6.076,6.0156,5.9383,5.9012,5.9012,5.9012,5.8944,5.8874,5.9461,5.9608,5.9581,6.0158,6.0419,6.0419,6.0419,6.0419,6.0419,6.0419,6.0419,6.0382,6.0272,6.0236,6.0236,6.0236,6.0162,5.9942,5.9245,5.9134,5.9245,5.9355,5.9391,5.9575,6.0382,6.108,6.1594,6.1594,6.2218,6.2805,6.2805,6.2805,6.2805,6.2805,6.2805,6.2805,6.2805,6.2805,6.2768,6.2658,6.2034,6.1557,6.1447,6.0823,6.0382,6.0272,6.0236,5.9905,5.9098,5.9061,5.8988,5.8877,5.8217,5.785,5.785,5.785,5.7886,5.7997,5.8804,5.9575,6.0272,6.0933,6.0921,6.0286,5.959,5.8823,5.7959,5.7529,5.6502,5.5108,5.3879,5.2942,5.208,5.07,5.008,5.0011,5.0011,5.0011,5.0011,7.3048,7.262,7.2334,7.2441,7.1727,7.1294,7.1529,7.0231,6.9045,6.8614,6.8114,6.7611,6.7174,6.793,6.8506,6.8506,6.8506,6.8506,6.8506,6.8506,6.8357,6.7986,6.7986,6.7158,6.544,6.5885,6.5297,6.3677,6.2348,6.1492,6.1207,6.0093,5.9582,5.9516,5.9149,5.9012,5.9046,6.0017,6.038,6.046,6.136,6.1741,6.1741,6.1741,6.1741,6.1704,6.1227,6.1374,6.1667,6.1227,6.1374,6.1741,6.1741,6.1741,6.1594,6.0786,6.0236,5.9979,6.0419,6.0236,6.0162,6.1447,6.2034,6.2291,6.2291,6.2915,6.3539,6.3539,6.3539,6.3539,6.3539,6.3135,6.2805,6.2805,6.2805,6.2805,6.2805,6.2511,6.2291,6.2291,6.1961,6.1557,6.1117,6.108,6.075,5.9942,5.9465,5.9208,5.9208,5.8117,5.7642,5.7997,5.7679,5.7861,5.8657,5.9465,6.0272,6.108,6.1887,6.2071,6.1741,6.1374,6.0638,5.974,5.902,5.8213,5.7228,5.4981,5.3804,5.3322,5.139,5.0355,5.0011,5.0011,5.0011,5.0011]},{"header":{"parameterUnit":"m.s-1","parameterCategory":1,"la1":30.6,"la2":28.766,"lo1":-90.7593,"lo2":-88.6598,"dy":0.0162,"dx":0.0183,"nx":116,"ny":114,"refTime":"2023-11-20T06:00:00:Z","depth":0,"parameterNumber":3,"parameterNumberName":"V-component_of_WINDS"},"data":[0.0,0.0,0.0,0.0,0.0,0.0,0.0,0.0,0.0,0.0,0.0,0.0,0.0,0.0,0.0,0.0,0.0,0.0,0.0,0.0,0.0,0.0,0.0,0.0,0.0,0.0,0.0,0.0,0.0,0.0,0.0,0.0,0.0,0.0,0.0,0.0,0.0,0.0,0.0,0.0,0.0,0.0,0.0,0.0,0.0,0.0,0.0,0.0,0.0,0.0,0.0,0.0,0.0,0.0,0.0,0.0,0.0,0.0,0.0,0.0,0.0,0.0,0.0,0.0,0.0,0.0,0.0,0.0,0.0,0.0,0.0,0.0,0.0,0.0,0.0,0.0,0.0,0.0,0.0,0.0,0.0,0.0,0.0,0.0,0.0,0.0,0.0,0.0,0.0,0.0,0.0,0.0,0.0,0.0,0.0,0.0,0.0,0.0,0.0,0.0,0.0,0.0,0.0,0.0,0.0,0.0,0.0,0.0,0.0,0.0,0.0,0.0,0.0,0.0,0.0,0.0,0.0,0.0,0.0,0.0,0.0,0.0,0.0,0.0,0.0,0.0,0.0,0.0,0.0,0.0,0.0,0.0,0.0,0.0,0.0,0.0,0.0,0.0,0.0,0.0,0.0,0.0,0.0,0.0,0.0,0.0,0.0,0.0,0.0,0.0,0.0,0.0,0.0,0.0,0.0,0.0,0.0,0.0,0.0,0.0,0.0,0.0,0.0,0.0,0.0,0.0,0.0,0.0,0.0,0.0,0.0,0.0,0.0,0.0,0.0,0.0,0.0,0.0,0.0,0.0,0.0,0.0,0.0,0.0,0.0,0.0,0.0,0.0,0.0,0.0,0.0,0.0,0.0,0.0,0.0,0.0,0.0,0.0,0.0,0.0,0.0,0.0,0.0,0.0,0.0,0.0,0.0,0.0,0.0,0.0,0.0,0.0,0.0,0.0,0.0,0.0,0.0,0.0,0.0,0.0,0.0,0.0,0.0,0.0,0.0,0.0,0.0,0.0,0.0,0.0,0.0,0.0,0.0,0.0,0.0,0.0,0.0,0.0,0.0,0.0,0.0,0.0,0.0,0.0,0.0,0.0,0.0,0.0,0.0,0.0,0.0,0.0,0.0,0.0,0.0,0.0,0.0,0.0,0.0,0.0,0.0,0.0,0.0,0.0,0.0,0.0,0.0,0.0,0.0,0.0,0.0,0.0,0.0,0.0,0.0,0.0,0.0,0.0,0.0,0.0,0.0,0.0,0.0,0.0,0.0,0.0,0.0,0.0,0.0,0.0,0.0,0.0,0.0,0.0,0.0,0.0,0.0,0.0,0.0,0.0,0.0,0.0,0.0,0.0,0.0,0.0,0.0,0.0,0.0,0.0,0.0,0.0,0.0,0.0,0.0,0.0,0.0,0.0,0.0,0.0,0.0,0.0,0.0,0.0,0.0,0.0,0.0,0.0,0.0,0.0,0.0,0.0,0.0,0.0,0.0,0.0,0.0,0.0,0.0,0.0,0.0,0.0,0.0,0.0,0.0,0.0,0.0,0.0,0.0,0.0,0.0,0.0,0.0,0.0,0.0,0.0,0.0,0.0,0.0,0.0,0.0,0.0,0.0,0.0,0.0,0.0,0.0,0.0,0.0,0.0,0.0,0.0,0.0,0.0,0.0,0.0,0.0,0.0,0.0,0.0,0.0,0.0,0.0,0.0,0.0,0.0,0.0,0.0,0.0,0.0,0.0,0.0,0.0,0.0,0.0,0.0,0.0,0.0,0.0,0.0,0.0,0.0,0.0,0.0,0.0,0.0,0.0,0.0,0.0,0.0,0.0,0.0,0.0,0.0,0.0,0.0,0.0,0.0,0.0,0.0,0.0,0.0,0.0,0.0,0.0,0.0,0.0,0.0,0.0,0.0,0.0,0.0,0.0,0.0,0.0,0.0,0.0,0.0,0.0,0.0,0.0,0.0,0.0,0.0,0.0,0.0,0.0,0.0,0.0,0.0,0.0,0.0,0.0,0.0,0.0,0.0,0.0,0.0,0.0,0.0,0.0,0.0,0.0,0.0,0.0,0.0,0.0,0.0,0.0,0.0,0.0,0.0,0.0,0.0,0.0,0.0,0.0,0.0,0.0,0.0,0.0,0.0,0.0,0.0,0.0,0.0,0.0,0.0,0.0,0.0,0.0,0.0,0.0,0.0,0.0,0.0,0.0,0.0,0.0,0.0,0.0,0.0,0.0,0.0,0.0,0.0,0.0,0.0,0.0,0.0,0.0,0.0,0.0,0.0,0.0,0.0,0.0,0.0,0.0,0.0,0.0,0.0,0.0,0.0,0.0,0.0,0.0,0.0,0.0,0.0,0.0,0.0,0.0,0.0,0.0,0.0,0.0,0.0,0.0,0.0,0.0,0.0,0.0,0.0,0.0,0.0,0.0,0.0,0.0,0.0,0.0,0.0,0.0,0.0,0.0,0.0,0.0,0.0,0.0,0.0,0.0,0.0,0.0,0.0,0.0,0.0,0.0,0.0,0.0,0.0,0.0,0.0,0.0,0.0,0.0,0.0,0.0,0.0,0.0,0.0,0.0,0.0,0.0,0.0,0.0,0.0,0.0,0.0,0.0,0.0,0.0,0.0,0.0,0.0,0.0,0.0,0.0,0.0,0.0,0.0,0.0,0.0,0.0,0.0,0.0,0.0,0.0,0.0,0.0,0.0,0.0,0.0,0.0,0.0,0.0,0.0,0.0,0.0,0.0,0.0,0.0,0.0,0.0,0.0,0.0,0.0,0.0,0.0,0.0,0.0,0.0,0.0,0.0,0.0,0.0,0.0,0.0,0.0,0.0,0.0,0.0,0.0,0.0,0.0,0.0,0.0,0.0,0.0,0.0,0.0,0.0,0.0,0.0,0.0,0.0,0.0,0.0,0.0,0.0,0.0,0.0,0.0,0.0,0.0,0.0,0.0,0.0,0.0,0.0,0.0,0.0,0.0,0.0,0.0,0.0,0.0,0.0,0.0,0.0,0.0,0.0,0.0,0.0,0.0,0.0,0.0,0.0,0.0,0.0,0.0,0.0,0.0,0.0,0.0,0.0,0.0,0.0,0.0,0.0,0.0,0.0,0.0,0.0,0.0,0.0,0.0,0.0,0.0,0.0,0.0,0.0,0.0,0.0,0.0,0.0,0.0,0.0,0.0,0.0,0.0,0.0,0.0,0.0,0.0,0.0,0.0,0.0,0.0,0.0,0.0,0.0,0.0,0.0,0.0,0.0,0.0,0.0,0.0,0.0,0.0,0.0,0.0,0.0,0.0,0.0,0.0,0.0,0.0,0.0,0.0,0.0,0.0,0.0,0.0,0.0,0.0,0.0,0.0,0.0,0.0,0.0,0.0,0.0,0.0,0.0,0.0,0.0,0.0,0.0,0.0,0.0,0.0,0.0,0.0,0.0,0.0,0.0,0.0,0.0,0.0,0.0,0.0,0.0,0.0,0.0,0.0,0.0,0.0,0.0,0.0,0.0,0.0,0.0,0.0,0.0,0.0,0.0,0.0,0.0,0.0,0.0,0.0,0.0,0.0,0.0,0.0,0.0,0.0,0.0,0.0,0.0,0.0,0.0,0.0,0.0,0.0,0.0,0.0,0.0,0.0,0.0,0.0,0.0,0.0,0.0,0.0,0.0,0.0,0.0,0.0,0.0,0.0,0.0,0.0,0.0,0.0,0.0,0.0,0.0,0.0,0.0,0.0,0.0,0.0,0.0,0.0,0.0,0.0,0.0,0.0,0.0,0.0,0.0,0.0,0.0,0.0,0.0,0.0,0.0,0.0,0.0,0.0,0.0,0.0,0.0,0.0,0.0,0.0,0.0,0.0,0.0,0.0,0.0,0.0,0.0,0.0,0.0,0.0,0.0,0.0,0.0,0.0,0.0,0.0,0.0,0.0,0.0,0.0,0.0,0.0,0.0,0.0,0.0,0.0,0.0,0.0,0.0,0.0,0.0,0.0,0.0,0.0,0.0,0.0,0.0,0.0,0.0,0.0,0.0,0.0,0.0,0.0,0.0,0.0,0.0,0.0,0.0,0.0,0.0,0.0,0.0,0.0,0.0,0.0,0.0,0.0,0.0,0.0,0.0,0.0,0.0,0.0,0.0,0.0,0.0,0.0,0.0,0.0,0.0,0.0,0.0,0.0,0.0,0.0,0.0,0.0,0.0,0.0,0.0,0.0,0.0,0.0,0.0,0.0,0.0,0.0,0.0,0.0,0.0,0.0,0.0,0.0,0.0,0.0,0.0,0.0,0.0,0.0,0.0,0.0,0.0,0.0,0.0,0.0,0.0,0.0,0.0,0.0,0.0,0.0,0.0,0.0,0.0,0.0,0.0,0.0,0.0,0.0,0.0,0.0,0.0,0.0,0.0,0.0,0.0,0.0,0.0,0.0,0.0,0.0,0.0,0.0,0.0,0.0,0.0,0.0,0.0,0.0,0.0,0.0,0.0,0.0,0.0,0.0,0.0,0.0,0.0,0.0,0.0,0.0,0.0,0.0,0.0,0.0,0.0,0.0,0.0,0.0,0.0,0.0,0.0,0.0,0.0,0.0,0.0,0.0,0.0,0.0,0.0,0.0,0.0,0.0,0.0,0.0,0.0,0.0,0.0,0.0,0.0,0.0,0.0,0.0,0.0,0.0,0.0,0.0,0.0,0.0,0.0,0.0,0.0,0.0,0.0,0.0,0.0,0.0,0.0,0.0,0.0,0.0,0.0,0.0,0.0,0.0,0.0,0.0,0.0,0.0,0.0,0.0,0.0,0.0,0.0,0.0,0.0,0.0,0.0,0.0,0.0,0.0,0.0,0.0,0.0,0.0,0.0,0.0,0.0,0.0,0.0,0.0,0.0,0.0,0.0,0.0,0.0,0.0,0.0,0.0,0.0,0.0,0.0,0.0,0.0,0.0,0.0,0.0,0.0,0.0,0.0,0.0,0.0,0.0,0.0,0.0,0.0,0.0,0.0,0.0,0.0,0.0,0.0,0.0,0.0,0.0,0.0,0.0,0.0,0.0,0.0,0.0,0.0,0.0,0.0,0.0,0.0,0.0,0.0,0.0,0.0,0.0,0.0,0.0,0.0,0.0,0.0,0.0,0.0,0.0,0.0,0.0,0.0,0.0,0.0,0.0,0.0,0.0,0.0,0.0,0.0,0.0,0.0,0.0,0.0,0.0,0.0,0.0,0.0,0.0,0.0,0.0,0.0,0.0,0.0,0.0,0.0,0.0,0.0,0.0,0.0,0.0,0.0,0.0,0.0,0.0,0.0,0.0,0.0,0.0,0.0,0.0,0.0,0.0,0.0,0.0,0.0,0.0,0.0,0.0,0.0,0.0,0.0,0.0,0.0,0.0,0.0,0.0,0.0,0.0,0.0,0.0,0.0,0.0,0.0,0.0,0.0,0.0,0.0,0.0,0.0,0.0,0.0,0.0,0.0,0.0,0.0,0.0,0.0,0.0,0.0,0.0,0.0,0.0,0.0,0.0,0.0,0.0,0.0,0.0,0.0,0.0,0.0,0.0,0.0,0.0,0.0,0.0,0.0,0.0,0.0,0.0,0.0,0.0,0.0,0.0,0.0,0.0,0.0,0.0,0.0,0.0,0.0,0.0,0.0,0.0,0.0,0.0,0.0,0.0,0.0,0.0,0.0,0.0,0.0,0.0,0.0,0.0,0.0,0.0,0.0,0.0,0.0,0.0,0.0,0.0,0.0,0.0,0.0,0.0,0.0,0.0,0.0,0.0,0.0,0.0,0.0,0.0,0.0,0.0,0.0,0.0,0.0,0.0,0.0,0.0,0.0,0.0,0.0,0.0,0.0,0.0,0.0,0.0,0.0,0.0,0.0,0.0,0.0,0.0,0.0,0.0,0.0,0.0,0.0,0.0,0.0,0.0,0.0,0.0,0.0,0.0,0.0,0.0,0.0,0.0,0.0,0.0,0.0,0.0,0.0,0.0,0.0,0.0,0.0,0.0,0.0,0.0,0.0,0.0,0.0,0.0,0.0,0.0,0.0,0.0,0.0,0.0,0.0,0.0,0.0,0.0,0.0,0.0,0.0,0.0,0.0,0.0,0.0,0.0,0.0,0.0,-3.0941,0.0,0.0,0.0,0.0,0.0,0.0,0.0,0.0,0.0,0.0,0.0,0.0,0.0,0.0,0.0,0.0,0.0,0.0,0.0,0.0,0.0,0.0,0.0,0.0,0.0,0.0,0.0,0.0,0.0,0.0,0.0,0.0,0.0,0.0,0.0,0.0,0.0,0.0,0.0,-2.8992,-2.8721,-2.8477,-2.8335,-2.7588,-2.6278,0.0,0.0,0.0,0.0,0.0,0.0,0.0,0.0,0.0,0.0,0.0,0.0,0.0,0.0,0.0,0.0,0.0,0.0,0.0,0.0,0.0,0.0,0.0,0.0,0.0,0.0,0.0,0.0,0.0,0.0,0.0,0.0,0.0,0.0,0.0,0.0,0.0,0.0,0.0,0.0,0.0,0.0,0.0,0.0,0.0,0.0,0.0,0.0,0.0,0.0,0.0,0.0,0.0,0.0,0.0,0.0,0.0,0.0,0.0,0.0,0.0,0.0,0.0,0.0,0.0,0.0,0.0,0.0,0.0,0.0,0.0,-3.1807,0.0,0.0,0.0,0.0,0.0,0.0,0.0,0.0,0.0,0.0,0.0,0.0,0.0,0.0,0.0,0.0,0.0,0.0,0.0,0.0,0.0,0.0,0.0,-2.6715,-2.6715,-2.6455,-2.652,-2.6411,0.0,0.0,0.0,0.0,0.0,0.0,0.0,-2.8232,-2.8674,-2.9442,-2.9157,-2.9095,-2.927,-3.0166,-2.9532,-2.7632,-2.7676,0.0,0.0,0.0,0.0,0.0,0.0,0.0,0.0,0.0,0.0,0.0,0.0,0.0,0.0,0.0,0.0,0.0,0.0,0.0,0.0,0.0,0.0,0.0,0.0,0.0,0.0,0.0,0.0,0.0,0.0,0.0,0.0,0.0,0.0,0.0,0.0,0.0,0.0,0.0,0.0,0.0,0.0,0.0,0.0,0.0,0.0,0.0,0.0,0.0,0.0,0.0,0.0,0.0,0.0,0.0,0.0,0.0,0.0,0.0,0.0,0.0,0.0,0.0,-3.6612,-3.7117,-3.8236,-3.8236,-3.8069,-3.7639,-3.6113,-3.4925,-3.403,0.0,0.0,0.0,0.0,0.0,0.0,0.0,0.0,0.0,0.0,0.0,0.0,0.0,0.0,0.0,0.0,0.0,0.0,0.0,0.0,0.0,0.0,-2.7064,-2.7012,-2.5781,-2.6009,-2.622,-2.6157,0.0,0.0,0.0,0.0,0.0,-2.8614,-2.9105,-2.9307,-2.9395,-2.9781,-3.045,-3.1258,-3.1826,-3.1935,-3.1542,-2.9925,-2.9401,-2.962,0.0,0.0,0.0,0.0,0.0,0.0,0.0,0.0,0.0,0.0,0.0,0.0,0.0,0.0,0.0,0.0,0.0,0.0,0.0,0.0,0.0,0.0,0.0,0.0,0.0,0.0,0.0,0.0,0.0,0.0,0.0,0.0,0.0,0.0,0.0,0.0,0.0,0.0,0.0,0.0,0.0,-3.0831,-3.1312,0.0,0.0,0.0,0.0,0.0,0.0,0.0,0.0,0.0,0.0,0.0,0.0,0.0,-3.428,-3.4994,-3.7177,-3.817,-3.8007,-3.9303,-4.0374,-4.1221,-4.1221,-4.1586,-4.2085,-4.1842,0.0,-3.5495,-3.6458,0.0,0.0,0.0,0.0,0.0,0.0,0.0,0.0,0.0,0.0,0.0,0.0,0.0,0.0,0.0,0.0,0.0,0.0,0.0,0.0,0.0,-2.8375,-2.8769,-2.8193,-2.9074,-2.9096,-2.7742,-2.8017,-2.796,-2.7348,-2.7855,-2.8567,-2.955,-2.9806,-3.0169,-3.0687,-3.1693,-3.2437,-3.2853,-3.3355,-3.3595,-3.3551,-3.27,-3.1673,-3.0515,-2.9117,0.0,0.0,0.0,0.0,0.0,0.0,0.0,0.0,0.0,0.0,0.0,0.0,0.0,0.0,0.0,0.0,0.0,0.0,0.0,0.0,0.0,0.0,0.0,0.0,0.0,0.0,0.0,0.0,0.0,0.0,0.0,0.0,0.0,0.0,0.0,0.0,0.0,0.0,0.0,-3.0518,-3.1192,-3.0807,-3.1096,-3.0759,0.0,0.0,0.0,0.0,0.0,0.0,0.0,0.0,0.0,-3.4968,-3.5889,-3.7236,-3.9144,-4.0166,-4.136,-4.2891,-4.2924,-4.3424,-4.4474,-4.4474,-4.4414,-4.442,-4.4773,-4.3182,-4.0145,-3.9013,-3.7501,-3.5873,0.0,0.0,0.0,0.0,-3.4712,-3.5315,0.0,0.0,0.0,0.0,0.0,0.0,0.0,0.0,0.0,0.0,0.0,0.0,-2.7938,-2.9241,-3.0199,-3.0262,-3.1257,-3.1105,-2.931,-2.9263,-2.897,-2.8096,-2.8522,-2.9353,-3.0464,-3.0698,-3.1426,-3.2667,-3.3656,-3.4294,-3.4556,-3.5037,-3.5255,-3.5255,-3.5124,-3.401,-3.2088,-3.0515,-2.9358,-2.8506,0.0,0.0,0.0,0.0,0.0,0.0,0.0,0.0,0.0,0.0,0.0,0.0,0.0,0.0,0.0,0.0,0.0,0.0,0.0,0.0,0.0,0.0,0.0,0.0,0.0,0.0,0.0,0.0,0.0,0.0,0.0,0.0,0.0,0.0,0.0,0.0,0.0,-3.1553,-3.2034,-3.0855,-3.2106,-3.2154,0.0,0.0,0.0,0.0,0.0,0.0,-3.4627,-3.5208,-3.6358,-3.827,-3.8993,-4.0568,-4.3174,-4.3227,-4.4318,-4.6455,-4.5587,-4.5614,-4.6482,-4.6482,-4.6238,-4.5858,-4.6292,-4.5614,-4.404,-4.1489,-3.9563,-3.8098,-3.729,-3.7118,-3.7253,-3.6571,-3.6702,-3.7231,0.0,0.0,0.0,0.0,0.0,0.0,0.0,0.0,0.0,0.0,0.0,-2.7476,-2.7938,-2.9102,-3.002,-3.043,-3.0578,-3.0578,-3.0451,-2.9408,-2.9245,-3.0019,-2.9261,-2.9465,-3.0847,-3.1829,-3.3261,-3.5169,-3.5202,-3.5627,-3.6566,-3.7025,-3.7243,-3.7221,-3.6784,-3.626,-3.5496,-3.2219,-3.1323,-3.1804,-2.8112,0.0,0.0,0.0,0.0,0.0,0.0,0.0,0.0,0.0,0.0,0.0,0.0,0.0,0.0,0.0,0.0,0.0,0.0,0.0,0.0,0.0,0.0,0.0,0.0,0.0,0.0,0.0,0.0,0.0,0.0,0.0,0.0,0.0,0.0,0.0,0.0,0.0,0.0,-3.2563,-3.5064,0.0,0.0,0.0,0.0,-3.3837,-3.5716,-3.7292,-3.8241,-3.9216,-4.09,-4.3573,-4.3912,-4.4626,-4.5757,-4.6706,-4.6916,-4.6482,-4.6428,-4.6428,-4.6482,-4.6482,-4.6455,-4.6428,-4.6455,-4.6102,-4.5397,-4.4094,-4.2168,-4.006,-4.0343,-3.945,-3.7929,-3.798,-3.7952,-3.7742,0.0,0.0,0.0,0.0,0.0,0.0,0.0,0.0,-2.5915,-2.5592,-2.737,-2.8888,-2.9358,-3.144,-3.3009,-3.3418,-3.4437,-3.4458,-3.3138,-3.2158,-3.1627,-3.1659,-3.0687,-3.1089,-3.2816,-3.4163,-3.5212,-3.5846,-3.6474,-3.6832,-3.7134,-3.7309,-3.7374,-3.7374,-3.7199,-3.7046,-3.6697,-3.3923,-3.2416,-3.1695,-2.9401,-2.7916,0.0,0.0,0.0,0.0,0.0,0.0,0.0,0.0,0.0,0.0,0.0,0.0,0.0,0.0,0.0,0.0,0.0,0.0,0.0,0.0,0.0,0.0,0.0,0.0,0.0,0.0,0.0,0.0,0.0,0.0,0.0,0.0,0.0,0.0,0.0,0.0,0.0,-3.516,-3.7517,0.0,-3.5761,-3.6748,-3.7466,-3.7466,-3.9701,-4.1282,-4.2047,-4.2751,-4.3862,-4.55,-4.5794,-4.6315,-4.7106,-4.7647,-4.7622,-4.7052,-4.7052,-4.6835,-4.6482,-4.6482,-4.6482,-4.6482,-4.6482,-4.6347,-4.6102,-4.5288,-4.3742,-4.1909,-4.1876,-4.1852,-4.1734,-4.1385,-4.157,-4.1726,0.0,0.0,0.0,0.0,0.0,0.0,0.0,0.0,-2.6194,-2.6023,-2.7956,-2.9729,-3.104,-3.3311,-3.5081,-3.5867,-3.6675,-3.6457,-3.4862,-3.3399,-3.2493,-3.2465,-3.1809,-3.2287,-3.4133,-3.5503,-3.6346,-3.6496,-3.7439,-3.7666,-3.7374,-3.7374,-3.7374,-3.7374,-3.7374,-3.7374,-3.7265,-3.5517,-3.4032,-3.2656,-3.0734,-2.9576,-2.8855,0.0,0.0,0.0,0.0,0.0,0.0,0.0,0.0,0.0,0.0,0.0,0.0,0.0,0.0,0.0,0.0,0.0,0.0,0.0,0.0,0.0,0.0,0.0,0.0,0.0,0.0,0.0,0.0,0.0,0.0,0.0,0.0,0.0,0.0,0.0,-3.8142,-3.706,-3.9777,-4.0812,-3.8503,-3.9922,-4.0981,-4.0981,-4.3361,-4.4843,-4.5025,-4.5611,-4.6402,-4.7257,-4.7113,-4.7393,-4.8193,-4.7999,-4.7758,-4.7351,-4.7161,-4.6862,-4.6482,-4.6482,-4.6482,-4.6482,-4.6482,-4.6482,-4.6428,-4.5614,-4.4583,-4.3487,-4.3464,-4.3942,-4.4584,-4.3918,-4.3734,-4.3514,0.0,0.0,0.0,0.0,0.0,0.0,0.0,-2.5589,-2.5765,-2.6267,-2.7834,-3.0022,-3.2787,-3.4403,-3.5845,-3.7287,-3.6981,-3.6304,-3.5299,-3.3005,-3.1878,-3.2386,-3.2438,-3.3192,-3.4726,-3.571,-3.6723,-3.7479,-3.7993,-3.7976,-3.7374,-3.7374,-3.7374,-3.7374,-3.7374,-3.7374,-3.7352,-3.6915,-3.6151,-3.5015,-3.2154,-3.1564,-3.2088,0.0,0.0,0.0,0.0,0.0,0.0,0.0,0.0,0.0,0.0,0.0,0.0,0.0,0.0,0.0,0.0,0.0,0.0,0.0,0.0,0.0,0.0,0.0,0.0,0.0,0.0,0.0,0.0,0.0,0.0,0.0,0.0,0.0,-3.4198,-3.7348,-3.932,-3.831,-4.187,-4.3385,-4.0836,-4.2848,-4.4344,-4.4344,-4.6513,-4.7615,-4.706,-4.7835,-4.8545,-4.9142,-4.8029,-4.7948,-4.9087,-4.7975,-4.7378,-4.7323,-4.6781,-4.6482,-4.6482,-4.6482,-4.6482,-4.6482,-4.6482,-4.6482,-4.6374,-4.5207,-4.4719,-4.4738,-4.5107,-4.5533,-4.6032,-4.5258,-4.4094,-4.2678,0.0,0.0,0.0,0.0,0.0,0.0,0.0,-2.6986,-2.7267,-2.748,-2.9736,-3.1949,-3.3399,-3.5496,-3.709,-3.7833,-3.7461,-3.6784,-3.5823,-3.3814,-3.284,-3.3003,-3.372,-3.4698,-3.6252,-3.6883,-3.7336,-3.7418,-3.8029,-3.7976,-3.7374,-3.7374,-3.7374,-3.7374,-3.7374,-3.7374,-3.7374,-3.7243,-3.7025,-3.6588,-3.4403,-3.3268,-3.2827,0.0,0.0,0.0,0.0,0.0,0.0,0.0,0.0,0.0,0.0,0.0,0.0,0.0,0.0,0.0,0.0,0.0,0.0,0.0,0.0,0.0,0.0,0.0,0.0,0.0,0.0,0.0,0.0,0.0,0.0,0.0,0.0,-3.605,-3.629,-3.9537,-4.2062,-4.2543,-4.4323,-4.5357,-4.502,-4.6116,-4.7002,-4.7002,-4.8505,-4.9346,-4.9185,-4.9409,-4.9603,-4.9766,-4.9033,-4.8599,-4.849,-4.8165,-4.7568,-4.6727,-4.6998,-4.6889,-4.6482,-4.6482,-4.6482,-4.6482,-4.6482,-4.6482,-4.6428,-4.5668,-4.5477,-4.5622,-4.4797,-4.4337,-4.4231,-4.4902,-4.4644,-4.3737,0.0,0.0,0.0,0.0,0.0,0.0,0.0,-2.7707,-2.8057,-2.8566,-3.0756,-3.2849,-3.4185,-3.6173,-3.7418,-3.7505,-3.7265,-3.6522,-3.5146,-3.3814,-3.3153,-3.3204,-3.4062,-3.5156,-3.6374,-3.7289,-3.7641,-3.768,-3.8287,-3.8287,-3.768,-3.768,-3.7571,-3.7374,-3.7374,-3.7483,-3.768,-3.7461,-3.7614,-3.7855,-3.6326,-3.5386,-3.4911,-3.5074,-3.4231,-3.3163,-3.3576,-3.3315,-3.2632,-3.215,0.0,0.0,0.0,0.0,0.0,0.0,0.0,0.0,0.0,0.0,0.0,0.0,0.0,0.0,0.0,0.0,0.0,0.0,0.0,0.0,0.0,0.0,0.0,0.0,-3.5978,-3.7757,-3.8719,-4.1293,-4.3481,-4.4539,-4.5405,-4.6054,-4.6343,-4.7333,-4.8051,-4.8051,-4.9276,-4.9901,-4.9657,-4.963,-4.963,-4.963,-4.906,-4.8599,-4.8246,-4.8002,-4.7405,-4.6482,-4.6835,-4.6808,-4.6482,-4.6482,-4.6769,0.0,-4.6665,-4.695,-4.7689,-4.6216,-4.5788,0.0,0.0,0.0,0.0,0.0,-4.4436,-4.4504,0.0,0.0,0.0,0.0,0.0,0.0,0.0,-2.7962,-2.8361,-2.9421,-3.1211,-3.3131,-3.4975,-3.6479,-3.7221,-3.6806,-3.6675,-3.5823,-3.3988,-3.342,-3.3224,-3.3377,-3.4229,-3.5146,-3.6107,-3.7177,-3.7843,-3.8117,-3.8775,-3.8798,-3.8182,-3.8182,-3.7964,-3.7549,-3.7549,-3.7789,-3.816,-3.7724,-3.8051,-3.875,-3.7955,-3.7659,-3.7591,-3.7736,-3.7572,-3.7442,-3.8086,-3.722,-3.5771,-3.6584,0.0,0.0,0.0,0.0,0.0,0.0,0.0,0.0,0.0,0.0,0.0,0.0,0.0,0.0,0.0,0.0,0.0,0.0,0.0,0.0,0.0,0.0,0.0,0.0,-3.808,-3.9744,-4.122,-4.2687,-4.3962,-4.4924,-4.5501,-4.5862,-4.6038,-4.7332,-4.8102,-4.8172,-4.9356,-4.9847,-4.9472,0.0,0.0,0.0,0.0,-4.8518,-4.8246,-4.7757,-4.7264,-4.6482,-4.6482,-4.6482,-4.6482,-4.6482,-4.695,-4.7717,-4.6873,-4.7643,-4.9231,-4.6855,-4.6045,-4.6123,-4.3739,-4.364,-4.4705,-4.3658,-4.4074,-4.5057,0.0,0.0,0.0,0.0,0.0,0.0,0.0,-2.8203,-2.894,-3.0411,-3.191,-3.3456,-3.509,-3.6516,-3.7352,-3.7243,-3.6544,-3.5605,-3.4469,-3.3923,-3.4185,-3.5364,-3.5583,-3.6129,-3.709,-3.7692,-3.8043,-3.8117,-3.8613,-3.881,-3.8685,-3.8685,-3.8641,-3.8554,-3.8554,-3.8597,-3.8685,-3.8597,-3.8663,-3.8794,-3.9286,-3.9249,-3.8889,-3.9457,-3.9163,-3.8623,-3.9365,-3.9203,-3.8631,-3.8042,-3.7221,-3.6378,-3.5824,-3.3826,0.0,0.0,0.0,0.0,0.0,0.0,0.0,0.0,0.0,0.0,0.0,0.0,0.0,0.0,0.0,0.0,0.0,0.0,0.0,-3.8485,-4.0458,-4.2046,-4.2951,-4.3721,-4.4275,-4.4467,-4.4972,-4.5682,-4.6956,-4.803,-4.8902,-4.918,-5.0077,-5.0898,-5.1235,-5.1207,0.0,-5.1207,-5.1449,-5.0594,-4.8246,-4.8553,-4.7944,-4.6482,0.0,0.0,-4.6482,-4.6482,-4.656,-4.6769,-4.656,-4.7157,-4.8296,-4.7707,-4.7476,-4.7117,-4.3559,-4.3157,-4.4675,-4.4531,-4.4995,-4.5489,0.0,0.0,0.0,0.0,0.0,0.0,0.0,-2.8042,-2.8763,-3.0326,-3.1481,-3.2664,-3.3765,-3.4692,-3.5015,-3.4534,-3.4076,-3.3901,-3.4141,-3.4382,-3.5146,-3.661,-3.6915,-3.7374,-3.8095,-3.8335,-3.8575,-3.8838,-3.9078,-3.9187,-3.9187,-3.9187,-3.9056,-3.8838,-3.8838,-3.8969,-3.9187,-3.8925,-3.8969,-3.9143,-3.9388,-3.9643,-4.0048,-4.1499,-4.178,-4.1508,-4.2455,-4.2327,-4.1695,-4.126,-4.0491,-3.9575,-3.8774,-3.7066,-3.4981,0.0,0.0,0.0,0.0,0.0,0.0,0.0,0.0,0.0,0.0,0.0,0.0,0.0,0.0,-3.6814,0.0,0.0,-4.0426,-4.1757,-4.2941,-4.3853,-4.4494,-4.4997,-4.5228,-4.5013,-4.5526,-4.6315,-4.7554,-4.8814,-4.961,-4.9416,-5.03,-5.0862,-5.0878,-5.1375,-5.1674,-5.1674,-5.2148,-5.1337,-4.9055,-4.8945,-4.8152,-4.6482,-4.6482,-4.6482,-4.6482,-4.6482,-4.6769,-4.726,-4.6769,-4.7335,-4.8766,-4.7857,-4.7375,-4.6855,-4.43,-4.4143,-4.5169,-4.4211,-4.4255,-4.4788,0.0,0.0,0.0,0.0,0.0,0.0,0.0,-2.7719,-2.8316,-2.9746,-3.0721,-3.1508,-3.2027,-3.2657,-3.259,-3.1695,-3.1891,-3.2612,-3.3988,-3.5059,-3.6238,-3.7593,-3.8117,-3.8575,-3.8969,-3.9165,-3.9406,-3.9689,-3.9886,-3.9864,-3.9689,-3.9799,-3.958,-3.9122,-3.9122,-3.934,-3.9668,-3.9384,-3.9471,-3.9799,-3.9296,-3.99,-4.1368,-4.313,-4.3712,-4.3967,-4.5037,-4.4696,-4.3702,-4.3702,-4.2944,-4.1847,-4.111,-3.9886,-3.8475,-3.6472,-3.6207,0.0,0.0,0.0,0.0,0.0,0.0,0.0,0.0,0.0,-3.6125,-3.695,-3.8424,-4.0032,-4.1346,-4.2286,-4.3333,-4.4967,-4.5348,-4.552,-4.5885,-4.6232,-4.6458,-4.6295,-4.6728,-4.7349,-4.8421,-4.9808,-5.0393,-4.9955,-5.0605,-5.0939,-5.0539,-5.1238,-5.1783,-5.2,-5.2578,-5.203,-5.0045,-4.9606,-4.8527,-4.6645,-4.6537,-4.6482,-4.6482,-4.6482,-4.695,-4.7643,-4.7053,-4.7745,-4.9133,-4.7716,-4.7058,-4.6943,-4.5356,-4.5135,-4.557,-4.3805,-4.3372,-4.3714,0.0,0.0,0.0,0.0,0.0,0.0,0.0,0.0,-2.7823,-2.9253,-2.992,-3.0431,-3.1038,-3.1951,-3.2241,-3.1673,-3.2809,-3.3967,-3.4993,-3.6369,-3.7593,-3.8619,-3.9122,-3.9406,-3.9471,-4.0323,-4.0585,-4.0192,-4.1044,-4.1022,-4.0214,-4.0651,-4.0585,-4.0126,-4.0126,-4.0148,-4.0214,-4.0607,-4.0804,-4.0804,-4.0323,-4.1254,-4.2765,-4.3283,-4.3517,-4.3778,-4.4571,-4.4121,-4.3127,-4.3127,-4.2343,-4.1481,-4.2176,-4.1051,-3.9354,-3.8474,-3.7042,-3.5526,-3.4527,-3.4552,-3.5224,-3.6599,-3.6599,-3.7142,0.0,0.0,-4.0069,-4.1748,-4.3145,-4.4094,-4.4238,-4.5646,-4.6706,-4.6631,-4.7073,-4.7283,-4.7041,-4.7077,-4.7365,-4.821,-4.805,-4.8472,-4.9955,-5.0775,-5.1243,-5.1539,-5.1602,-5.1911,-5.2268,-5.1902,-5.2108,-5.3203,-5.4259,-5.3495,-5.0769,-5.1087,-4.9944,-4.7242,-4.6727,-4.6482,-4.6482,-4.6482,-4.656,-4.6665,-4.7541,-4.792,-4.8167,-4.7419,-4.7928,-4.8977,-4.5934,-4.4924,-4.5327,-4.447,-4.3621,-4.2992,0.0,0.0,0.0,0.0,0.0,0.0,0.0,0.0,0.0,-2.8425,-2.8805,-2.9015,-2.9218,-2.9409,-2.9467,-2.9532,-3.1105,-3.2874,-3.4687,-3.6675,-3.8488,-4.0039,-4.0541,-4.0804,-4.0804,-4.1197,-4.1306,-4.1087,-4.1503,-4.1481,-4.1109,-4.1306,-4.1306,-4.1087,-4.1087,-4.1087,-4.1109,-4.1306,-4.1393,-4.1393,-4.1175,-4.1441,-4.192,-4.3333,-4.3095,-4.2193,-4.4035,-4.399,0.0,-4.2239,-4.1817,-4.1498,-4.1492,-4.1063,-4.0261,-3.8937,-3.8549,-3.8488,-3.7919,-3.7849,0.0,0.0,-3.9427,-4.0241,-4.2086,-4.2385,-4.2683,-4.4149,-4.588,-4.7327,-4.7688,-4.9154,-5.0185,0.0,-4.983,-4.9742,-4.8904,-4.8842,-4.8824,-4.8846,-4.9365,-5.0073,-5.1159,-5.1749,-5.211,-5.2371,-5.2018,-5.1789,-5.1591,-5.1961,-5.2287,-5.2459,-5.3489,-5.299,-5.0775,-5.0313,-4.9098,-4.7351,-4.6754,-4.6482,-4.6482,-4.6482,-4.6482,-4.6455,-4.695,-4.7157,-4.7129,-4.6881,-4.7216,-4.7689,-4.6326,-4.5212,-4.4387,-4.3864,-4.2642,-4.1415,0.0,0.0,0.0,0.0,0.0,0.0,0.0,0.0,0.0,0.0,-2.7577,-2.7698,-2.7832,-2.7261,-2.7173,-2.7964,-2.9562,-3.1644,-3.4076,-3.6391,-3.8641,-4.0716,-4.1371,-4.1765,-4.1896,-4.2158,-4.2158,-4.1896,-4.2289,-4.2223,-4.1699,-4.2114,-4.207,-4.1699,-4.183,-4.1808,-4.1699,-4.183,-4.1896,-4.1874,-4.1743,-4.1415,-4.1177,-4.2613,-4.209,-4.095,-4.3413,-4.331,-4.1951,-4.1115,-4.092,-4.0931,-4.0764,-4.0781,-4.068,-3.9451,-3.958,-3.9968,-3.9717,0.0,0.0,-4.0811,-4.1842,-4.2982,-4.3904,-4.4447,-4.5044,-4.6102,-4.7713,-4.9225,-4.982,-5.1204,-5.2148,-5.1932,-5.1779,-5.143,-5.0764,-5.0344,-4.9847,-4.9413,-4.9983,-5.0715,-5.1502,-5.2126,-5.2533,-5.2696,-5.2018,-5.1448,-5.1177,-5.1594,-5.1933,-5.1955,-5.2544,-5.2252,-5.0775,-4.9735,-4.8625,-4.7351,-4.6754,-4.6482,-4.6482,-4.6482,-4.6482,-4.6482,-4.6482,-4.6374,-4.6238,-4.6238,-4.6238,-4.6211,-4.6048,-4.5071,-4.3732,-4.3144,-4.1746,-4.0259,0.0,0.0,0.0,0.0,0.0,0.0,0.0,0.0,0.0,0.0,0.0,0.0,0.0,-2.6496,-2.6491,-2.7852,-2.8958,-3.0734,-3.3599,-3.5615,-3.7811,-4.0192,-4.1197,-4.1918,-4.2376,-4.3316,-4.3337,-4.2398,-4.3818,-4.3534,-4.1721,-4.3141,-4.3032,-4.1699,-4.218,-4.2136,-4.1721,-4.2201,-4.2398,-4.2354,-4.1874,-4.1415,-4.0979,-4.0978,-4.0527,-4.0347,-4.2387,-4.1638,-3.9703,-3.9677,-3.9475,-3.9295,-4.0106,-4.036,-4.0348,-4.0167,-3.9373,-3.8505,-3.8477,0.0,-4.0621,-4.2358,-4.3715,-4.5071,-4.6835,-4.7242,-4.7432,-4.8029,-4.8653,-4.92,-4.9749,-5.0831,-5.1909,-5.2261,-5.206,-5.1899,-5.2435,-5.1013,-5.001,-4.9983,-4.9521,-4.963,0.0,-5.1475,-5.2099,-5.2669,-5.1611,-5.1177,-5.1774,-5.0688,-5.0846,-5.2491,-5.2012,-5.1393,-5.0775,-5.0157,-4.9042,-4.7351,-4.6754,-4.6482,-4.6482,-4.6482,-4.6482,-4.6482,-4.6482,-4.6157,-4.5614,-4.5614,-4.5614,-4.556,-4.499,-4.4339,-4.3633,-4.2439,-4.1245,-4.0106,0.0,0.0,0.0,0.0,0.0,0.0,0.0,0.0,0.0,0.0,0.0,0.0,0.0,0.0,0.0,0.0,-2.8833,-3.0616,-3.3537,-3.5224,-3.7281,-3.9715,-4.0672,-4.1459,-4.1918,-4.2573,-4.29,-4.2922,-4.3403,-4.3316,-4.2704,-4.349,-4.3599,-4.3163,-4.3643,-4.3774,-4.3599,-4.3447,-4.3381,-4.3272,-4.2136,-4.1415,-4.0935,-4.049,-3.9336,-3.8137,0.0,-3.9689,-3.8972,-3.8606,-3.8359,-3.8299,-3.9002,-3.9371,-3.959,-3.9582,-3.959,-3.9671,-4.0106,0.0,-4.2412,-4.423,-4.5288,-4.6347,-4.8138,-4.8219,-4.8327,-4.9633,-4.8819,-4.807,-4.8951,-5.0126,-5.0896,-5.0708,-5.1481,-5.2166,-5.2036,-5.1594,-5.0634,-4.9033,-5.0417,0.0,0.0,0.0,0.0,-5.2615,-5.1964,-5.1421,-5.1231,-5.1204,-5.1047,-5.0874,-5.1038,-5.0654,-4.9639,-4.9035,-4.8352,-4.7351,-4.6754,-4.6482,-4.6482,-4.6482,-4.6482,-4.6482,-4.6482,-4.613,-4.5587,-4.5587,-4.5587,-4.5533,-4.4936,-4.4312,-4.3633,-4.2439,-4.1245,-4.0106,0.0,0.0,0.0,0.0,0.0,0.0,0.0,0.0,0.0,0.0,0.0,0.0,0.0,0.0,0.0,0.0,0.0,-2.9806,-3.2466,-3.3695,-3.5578,-3.823,-3.8675,-3.9308,-4.0144,-4.0344,-4.0694,-4.1371,-4.1721,-4.1983,-4.2158,-4.2966,-4.3163,-4.2879,-4.3512,-4.3709,-4.3512,-4.3032,-4.2835,-4.2704,-4.1066,-4.0039,-3.9401,-3.8447,-3.7065,0.0,-3.6692,-3.7267,-3.7568,-3.7834,-3.7911,-3.798,-3.8469,-3.8962,-3.9346,-3.9563,-4.0187,-4.1028,-4.1842,-4.309,-4.4556,-4.6157,-4.6971,-4.7785,-4.9142,-4.931,-4.9334,-5.0225,-4.864,-4.7319,-4.792,-4.8629,-4.9022,-4.8822,-4.9965,-5.1052,-5.1614,-5.1236,-5.0525,-4.963,-5.1041,-5.1557,0.0,0.0,0.0,-5.1964,-5.1909,-5.1557,-5.0932,-5.1285,-5.115,-5.0363,-5.0498,-5.001,-4.8816,-4.8653,-4.8165,-4.7351,-4.6754,-4.6482,-4.6482,-4.6482,-4.6482,-4.6482,-4.6482,-4.6021,-4.5288,-4.5288,-4.5288,-4.518,-4.4366,-4.3932,-4.3606,-4.2195,-4.1055,-4.0106,0.0,0.0,0.0,0.0,0.0,0.0,0.0,0.0,0.0,0.0,0.0,0.0,0.0,0.0,0.0,0.0,0.0,0.0,-3.0481,-3.1159,-3.275,-3.5694,-3.5376,-3.5781,-3.7322,-3.6824,-3.709,-3.8029,-3.8925,-3.9624,-4.0256,-4.1481,-4.1634,-4.0825,-4.1743,-4.1918,-4.1481,-4.1022,-4.0847,-4.0694,-3.8772,-3.7461,-3.65,-3.5037,-3.4244,-3.3902,-3.3879,-3.4481,-3.5579,-3.7206,-3.79,-3.8239,-3.8448,-3.8926,-3.9509,-4.0106,-4.1137,-4.2358,-4.3552,-4.5153,-4.6808,-4.8002,-4.8707,-4.9277,-4.9847,-5.0216,-5.0309,-4.9743,-4.8134,-4.6781,0.0,0.0,-4.6405,-4.6828,-4.7692,-4.908,-5.1393,-5.0409,-5.001,0.0,0.0,0.0,0.0,0.0,0.0,-5.096,0.0,-5.1557,-5.0932,-5.0932,-5.0905,-5.0851,-5.0308,-4.9467,-4.83,-4.8789,-4.8463,-4.7351,-4.6754,-4.6482,-4.6482,-4.6482,-4.6482,-4.6482,-4.6482,-4.5804,-4.4746,-4.4746,-4.4746,-4.4637,-4.3362,-4.3253,-4.3552,-4.1734,-4.0703,-4.0106,0.0,0.0,0.0,0.0,0.0,0.0,0.0,0.0,0.0,0.0,0.0,0.0,0.0,0.0,0.0,0.0,0.0,0.0,-3.0143,-3.066,-3.1459,-3.2712,-3.36,-3.4314,-3.4736,-3.5325,-3.6296,-3.7643,-3.7176,-3.7374,-3.8198,-3.8231,-3.8029,-3.7811,-3.8401,-3.8794,-3.8991,-3.851,-3.851,-3.8707,-3.7156,-3.6369,-3.5998,-3.4534,-3.3962,-3.3907,-3.3914,-3.4146,-3.4486,-3.5306,0.0,0.0,-3.8236,-3.9323,-4.048,-4.126,-4.2385,-4.3579,-4.48,-4.6102,-4.7405,-4.8599,-4.9033,-4.9169,-4.9304,-4.8763,-4.8199,-4.7998,-4.5251,-4.3016,0.0,0.0,0.0,-4.5985,-4.8325,0.0,-5.218,-5.2746,0.0,-5.1936,0.0,-5.427,-5.2642,-5.2995,0.0,0.0,-5.1991,-5.1557,-5.0932,-5.1339,-5.1177,-5.0254,-5.0091,-4.9657,-4.8924,-4.8165,-4.7649,-4.7351,-4.6754,-4.6482,-4.6482,-4.6482,-4.6482,-4.6482,-4.6482,-4.6048,-4.537,-4.537,-4.537,-4.5207,-4.3525,-4.3253,-4.3497,-4.1245,-4.0323,-4.0106,0.0,0.0,0.0,0.0,0.0,0.0,0.0,0.0,0.0,0.0,0.0,0.0,0.0,0.0,0.0,0.0,0.0,0.0,0.0,-2.9437,-2.9869,-3.0626,-3.099,-3.142,-3.194,-3.2413,-3.3382,-3.4922,-3.4317,-3.4736,-3.6207,-3.5663,-3.5545,-3.5773,-3.6027,-3.6282,-3.6522,-3.6238,-3.6151,0.0,0.0,-3.4447,-3.3967,-3.3158,-3.2862,-3.2958,-3.3152,-3.3389,-3.3792,0.0,0.0,-3.8049,-3.8825,-4.0271,-4.2027,-4.3111,0.0,-4.556,-4.6482,-4.7622,-4.868,-4.9359,-4.9331,-4.8924,-4.8138,-4.7421,-4.6623,-4.5895,-4.3371,0.0,-4.142,0.0,0.0,0.0,0.0,0.0,-5.1598,-5.2732,-5.3347,0.0,-5.465,0.0,-5.3619,-5.3619,-5.3537,0.0,-5.2805,-5.2235,-5.1339,-5.1638,-5.1394,-5.0417,-5.0146,-4.9847,-4.9521,-4.8355,-4.7758,-4.7731,-4.7134,-4.6727,-4.6482,-4.6482,-4.6482,-4.6482,0.0,-4.613,-4.556,-4.5316,-4.5207,-4.5044,-4.3497,-4.2928,-4.2792,-4.1191,-4.0268,-3.9753,0.0,0.0,0.0,0.0,0.0,0.0,0.0,0.0,0.0,0.0,0.0,0.0,0.0,0.0,0.0,0.0,0.0,0.0,0.0,0.0,-2.8281,-2.9066,-2.8318,-2.8294,-2.9255,-2.9398,-3.0167,-3.1639,-3.1461,-3.2307,-3.4051,-3.3471,-3.3435,-3.3777,-3.379,-3.3792,-3.3857,-3.3857,-3.3639,-3.3289,-3.2918,-3.2285,-3.152,0.0,-3.1772,-3.1959,-3.2464,-3.2915,0.0,0.0,-3.6734,-3.8641,-3.9701,-4.1594,-4.3808,-4.5042,-4.6488,-4.7731,-4.8327,-4.9277,-5.0118,-5.0037,-4.9576,-4.8653,-4.6781,-4.6082,-4.5363,-4.3573,-4.1926,-4.0691,-4.0062,-4.0653,-4.1263,-4.1544,0.0,-4.7568,-5.0688,-5.1747,-5.2995,-5.5166,-5.5003,-5.4704,-5.4623,-5.3592,-5.3158,-5.3673,-5.3565,-5.2995,-5.1882,-5.1747,-5.1421,-5.0797,-5.0281,-5.001,-5.001,-4.8924,-4.8355,-4.8355,-4.7676,-4.7079,-4.6591,-4.6509,-4.6482,-4.6482,0.0,0.0,-4.5668,-4.5071,-4.4827,-4.4691,-4.3389,-4.2521,-4.1924,-4.1245,-4.0268,-3.9292,0.0,0.0,0.0,0.0,0.0,0.0,0.0,0.0,0.0,0.0,-2.6472,-2.5968,0.0,0.0,0.0,0.0,0.0,0.0,0.0,0.0,0.0,-2.7602,-2.7782,-2.8071,-2.8316,-2.9078,-3.0191,-3.1669,-3.0859,-3.0856,-3.1616,-3.0633,-3.0097,-2.9811,-2.9803,-2.9969,-3.0362,-3.0362,-3.0537,-3.0865,-3.1149,-3.1171,-3.1061,-3.1476,0.0,0.0,-3.3499,0.0,0.0,-3.5004,-3.6956,-3.8941,-3.9766,-4.2169,-4.513,-4.6893,-4.7835,-4.8619,-4.9437,-5.02,-5.0634,-5.0118,-4.9576,-4.8545,-4.6265,-4.5002,0.0,0.0,-3.9645,-3.9053,-3.8707,-3.9341,-4.0716,-4.3328,0.0,0.0,0.0,0.0,-5.4379,0.0,0.0,0.0,0.0,0.0,0.0,0.0,0.0,-5.2561,-5.1882,-5.1339,-5.077,-5.02,-5.0064,-5.001,-5.001,-4.9331,-4.8979,-4.8952,-4.7866,-4.7296,-4.7188,-4.6699,-4.6482,-4.6482,-4.6482,0.0,-4.6265,-4.5668,-4.5424,-4.5261,-4.3552,-4.2521,-4.1869,-4.0757,-3.9916,-3.9292,0.0,0.0,0.0,0.0,0.0,0.0,0.0,0.0,0.0,-2.8309,-2.7829,-2.7282,-2.7042,-2.6953,0.0,0.0,0.0,0.0,0.0,0.0,0.0,0.0,0.0,0.0,-2.8027,-2.9127,-2.9986,-3.0462,0.0,-3.0742,-3.0913,-2.992,-2.9669,-2.9852,-2.9117,-2.9064,-2.9493,-2.9474,-2.9657,-2.9913,-3.0909,-3.1152,-3.102,0.0,0.0,0.0,0.0,0.0,0.0,0.0,-3.7003,-3.9129,-4.066,-4.3397,-4.6271,-4.741,-4.8685,-4.969,-5.0189,-5.0817,-5.1231,-5.0634,-4.9793,-4.8246,-4.4936,0.0,0.0,-3.8782,-3.7938,-3.7698,-3.763,-3.8439,0.0,0.0,0.0,0.0,0.0,0.0,0.0,0.0,0.0,0.0,0.0,0.0,0.0,0.0,0.0,0.0,-5.275,-5.1882,-5.096,-5.0037,-5.001,-5.001,-5.001,-4.9739,-4.944,-4.9114,-4.8545,-4.7948,-4.7351,-4.7052,-4.6781,-4.6482,-4.6482,0.0,-4.6401,-4.5505,-4.5126,-4.499,-4.347,-4.2331,-4.1462,-4.0892,-4.0106,-3.9292,0.0,0.0,0.0,0.0,0.0,0.0,0.0,-2.7894,-2.8331,-2.9904,-2.9685,-2.9226,-2.8855,-2.8003,-2.7459,0.0,0.0,0.0,0.0,0.0,0.0,0.0,0.0,0.0,0.0,0.0,0.0,0.0,-3.0524,0.0,0.0,0.0,0.0,0.0,-2.9485,-2.9117,-2.9324,-2.9349,-2.9377,0.0,0.0,-3.1233,0.0,0.0,0.0,0.0,0.0,0.0,0.0,0.0,-3.6987,-3.8887,-4.093,-4.3765,-4.6601,-4.7415,-4.8992,-5.0524,-5.0658,-5.135,-5.1882,-5.1258,-5.001,-4.7948,-4.4149,-4.2059,0.0,-3.7368,-3.6721,-3.666,-3.6676,-3.7466,-3.8561,0.0,-4.1393,0.0,0.0,0.0,0.0,0.0,0.0,0.0,0.0,0.0,0.0,0.0,0.0,0.0,-5.2995,-5.2018,-5.0987,-5.0037,-5.001,-5.001,-5.001,-5.001,-4.9766,-4.9304,-4.9196,-4.8572,-4.7541,-4.7405,-4.7025,-4.6482,-4.6482,0.0,0.0,-4.5126,-4.4637,-4.4393,-4.3308,-4.2249,-4.13,-4.13,-4.0621,-3.9699,0.0,0.0,0.0,0.0,0.0,0.0,0.0,-2.8746,-2.9969,-3.187,-3.1673,-3.1345,-3.1302,-2.9314,-2.7785,0.0,0.0,0.0,0.0,0.0,0.0,0.0,0.0,0.0,0.0,0.0,0.0,0.0,0.0,0.0,0.0,0.0,0.0,0.0,0.0,0.0,-2.8839,-2.8905,0.0,0.0,0.0,0.0,0.0,0.0,0.0,0.0,0.0,0.0,0.0,0.0,0.0,-3.7549,-3.881,-4.1998,-4.5623,-4.6928,0.0,0.0,-5.1142,-5.1944,-5.2479,-5.1882,-5.001,-4.7649,-4.5126,0.0,-3.9563,-3.7123,-3.6171,-3.5867,-3.599,-3.5967,-3.6962,-3.9923,-4.0392,-4.2493,0.0,0.0,0.0,0.0,0.0,0.0,0.0,0.0,0.0,0.0,0.0,0.0,0.0,-5.0525,-5.0118,-5.001,-5.001,-5.001,-5.001,-5.001,-4.9983,-4.9928,-4.9386,-4.8789,-4.8138,-4.7595,-4.7025,-4.6482,-4.6482,0.0,0.0,-4.4963,-4.4366,-4.3796,-4.3145,-4.2493,-4.1924,-4.1924,-4.1517,-4.0947,0.0,0.0,0.0,0.0,0.0,0.0,0.0,-2.8272,-2.962,-3.2437,-3.2372,-3.2088,-3.2088,-3.0952,-2.9532,0.0,0.0,0.0,0.0,0.0,0.0,0.0,0.0,0.0,0.0,0.0,0.0,0.0,0.0,0.0,0.0,0.0,0.0,0.0,0.0,0.0,0.0,-2.9024,0.0,0.0,0.0,0.0,0.0,0.0,0.0,0.0,0.0,0.0,0.0,0.0,0.0,0.0,-3.6628,-3.8517,0.0,0.0,-4.6816,-4.9037,-5.0461,-5.2025,-5.3103,-5.2506,-5.0281,-4.7622,-4.5261,0.0,-3.9074,-3.7012,-3.6117,-3.5709,-3.5782,-3.5407,-3.5926,-3.8306,-3.8269,0.0,-4.4691,0.0,0.0,0.0,0.0,0.0,0.0,0.0,0.0,0.0,0.0,0.0,0.0,-5.0661,-5.039,-5.001,-5.001,-5.001,-5.001,-5.001,-5.001,-5.001,-4.9413,-4.8816,-4.8219,-4.7622,-4.7025,-4.6482,-4.6482,0.0,0.0,-4.4963,-4.4339,-4.3715,-4.3118,-4.2521,-4.2005,-4.2005,-4.1625,-4.111,0.0,0.0,0.0,0.0,0.0,-2.4364,-2.6858,-2.7742,-2.9223,-3.2144,-3.2332,-3.2328,-3.2765,-3.1717,-3.0428,-2.9008,0.0,0.0,0.0,0.0,0.0,0.0,0.0,0.0,0.0,0.0,0.0,-2.8136,-3.022,0.0,0.0,0.0,0.0,0.0,0.0,0.0,0.0,0.0,0.0,0.0,0.0,0.0,0.0,0.0,0.0,0.0,0.0,0.0,0.0,0.0,0.0,0.0,0.0,-3.5421,-3.7146,0.0,-4.4594,-4.7291,-4.9098,-5.1358,-5.3119,-5.2446,-5.0081,-4.7432,0.0,0.0,-3.864,-3.7175,-3.6252,-3.571,-3.571,-3.5384,-3.5628,-3.7256,-3.7148,-3.8233,-4.2086,-4.366,0.0,0.0,0.0,0.0,0.0,0.0,0.0,0.0,0.0,0.0,0.0,-5.0715,-5.0444,-5.001,-5.001,-5.001,-5.001,-5.001,-5.001,-5.001,-4.9413,-4.8816,-4.8219,-4.7622,-4.7025,-4.6482,0.0,0.0,0.0,-4.4881,-4.423,-4.347,-4.3063,-4.2629,-4.2276,-4.2276,-4.2005,-4.1652,0.0,0.0,0.0,0.0,0.0,0.0,0.0,-2.7398,-2.9141,-3.1021,-3.1521,-3.2175,-3.3617,-3.1214,-2.9882,-3.0777,0.0,0.0,0.0,0.0,0.0,0.0,0.0,0.0,0.0,0.0,-2.9106,-2.7172,-2.9218,-2.9235,-2.7274,-2.9235,0.0,0.0,0.0,0.0,0.0,0.0,0.0,0.0,0.0,0.0,-3.3263,0.0,0.0,0.0,0.0,0.0,0.0,0.0,0.0,0.0,0.0,-3.3308,-3.4186,-3.8445,-4.2334,-4.5658,-4.6952,-4.9951,-5.2458,-5.1467,-4.9274,-4.7025,0.0,0.0,-3.826,-3.7663,-3.6551,-3.571,-3.571,-3.571,-3.6117,-3.7338,-3.7528,-3.8586,-4.1598,-4.3036,0.0,0.0,0.0,0.0,0.0,0.0,0.0,0.0,0.0,0.0,0.0,-5.0335,-5.001,-5.001,-5.001,-5.001,-5.001,-5.001,-5.001,-5.001,-4.9413,-4.8816,-4.8219,-4.7622,-4.7025,0.0,0.0,0.0,0.0,-4.4719,-4.3986,-4.29,-4.29,-4.29,-4.2873,-4.2873,-4.2873,-4.2873,0.0,0.0,0.0,0.0,0.0,0.0,0.0,-2.5128,-2.6525,-2.8736,-2.9104,-2.9722,-3.1338,-3.0483,-2.9934,-3.0329,0.0,0.0,0.0,0.0,0.0,0.0,0.0,0.0,0.0,0.0,-2.9969,-2.8631,-2.9984,-2.9581,-2.7696,-2.9015,-2.9754,-3.0011,0.0,0.0,0.0,0.0,0.0,0.0,0.0,-3.2404,-3.2759,0.0,0.0,0.0,0.0,0.0,0.0,0.0,0.0,0.0,0.0,0.0,0.0,-3.4977,-3.7998,-4.1209,-4.2967,-4.5031,-4.6829,-4.6491,-4.4941,-4.3472,-4.3125,0.0,-3.7772,-3.7582,-3.6578,-3.571,-3.571,-3.571,-3.6252,-3.7881,-3.8152,-3.8749,-4.0513,0.0,0.0,0.0,0.0,0.0,0.0,0.0,0.0,0.0,0.0,0.0,0.0,-5.0118,-5.001,-5.001,-5.001,-5.001,-5.001,-5.001,-4.9793,-4.9413,-4.8816,-4.8219,-4.7622,-4.7025,0.0,0.0,0.0,0.0,0.0,-4.4719,-4.3986,-4.29,-4.29,-4.29,-4.29,-4.29,-4.29,-4.29,0.0,0.0,0.0,0.0,0.0,0.0,0.0,-2.3563,-2.4754,-2.6383,-2.6919,-2.7901,-2.9663,-2.9283,-2.9183,-2.9536,0.0,0.0,0.0,0.0,0.0,0.0,0.0,0.0,0.0,-3.0217,-3.0202,-2.9232,-3.0571,-2.9987,-2.7843,-2.9287,-2.9693,-2.9338,-2.9824,0.0,0.0,0.0,0.0,0.0,-3.204,-3.2418,-3.2851,0.0,0.0,0.0,0.0,0.0,0.0,0.0,0.0,0.0,0.0,0.0,0.0,0.0,-3.4533,-3.6972,-3.9601,-4.1875,-4.3558,-4.3355,-4.2293,0.0,0.0,0.0,-3.7456,-3.7497,-3.6741,-3.5981,-3.5764,-3.571,-3.6171,-3.7501,-3.7935,-3.8586,-3.9997,0.0,0.0,0.0,0.0,0.0,0.0,0.0,0.0,0.0,0.0,0.0,0.0,0.0,-4.9766,-5.001,-5.001,-5.001,-5.001,-4.9793,-4.9494,-4.9114,-4.83,-4.7703,-4.7351,-4.6754,0.0,0.0,0.0,0.0,0.0,-4.4719,-4.3986,-4.29,-4.29,-4.29,-4.29,-4.29,-4.29,-4.29,0.0,0.0,0.0,0.0,0.0,0.0,0.0,0.0,0.0,-2.4021,-2.5026,-2.6396,-2.8188,-2.7868,-2.7738,-2.8431,0.0,0.0,0.0,0.0,0.0,0.0,0.0,0.0,0.0,-2.9618,-2.9834,-2.9393,-3.1027,-3.045,-2.7904,-2.9901,-2.9813,-2.8063,-2.9825,-3.0468,0.0,0.0,0.0,0.0,-3.1865,-3.2274,0.0,0.0,0.0,0.0,0.0,0.0,0.0,0.0,0.0,0.0,0.0,0.0,0.0,0.0,0.0,0.0,0.0,-3.9827,-4.1824,-4.1314,-4.0736,-4.0256,0.0,0.0,0.0,0.0,0.0,-3.6306,-3.5873,-3.5737,-3.5954,-3.6632,-3.7256,-3.826,0.0,0.0,0.0,0.0,0.0,0.0,0.0,0.0,0.0,0.0,0.0,0.0,0.0,0.0,-4.9413,-4.9928,-4.9843,-4.9843,-4.9956,-4.9359,-4.9033,-4.8979,-4.7893,-4.7351,-4.7269,-4.6727,0.0,0.0,0.0,0.0,0.0,-4.4664,-4.3959,-4.29,-4.29,-4.29,-4.29,-4.29,-4.29,-4.2873,0.0,0.0,0.0,0.0,0.0,0.0,0.0,0.0,0.0,0.0,-2.3299,-2.4108,-2.5489,-2.5761,-2.6328,0.0,0.0,0.0,0.0,0.0,0.0,0.0,0.0,0.0,0.0,-2.9886,-3.0458,-3.1049,-3.1837,-3.123,-2.937,-2.9974,-2.9597,-2.8421,-2.8557,-2.9161,0.0,0.0,0.0,0.0,-3.1721,-3.1817,0.0,0.0,0.0,0.0,-3.2539,-3.2322,0.0,0.0,0.0,0.0,0.0,0.0,0.0,0.0,-3.1745,-3.2195,-3.347,0.0,-3.5942,-3.5892,-3.6406,-3.6985,0.0,0.0,0.0,0.0,0.0,0.0,0.0,-3.6008,-3.6225,-3.7745,-3.8505,-3.9373,-4.0703,0.0,0.0,0.0,0.0,0.0,0.0,0.0,0.0,0.0,0.0,0.0,0.0,0.0,-4.9657,-4.9331,-4.8632,-4.8632,-4.9331,-4.8735,-4.8219,-4.7758,-4.7486,-4.7134,-4.6672,-4.6537,0.0,0.0,0.0,0.0,-4.4664,-4.4203,-4.3552,-4.29,-4.29,-4.29,-4.29,-4.29,-4.29,-4.2819,0.0,0.0,0.0,0.0,0.0,0.0,0.0,0.0,0.0,0.0,0.0,0.0,0.0,0.0,0.0,0.0,0.0,0.0,0.0,0.0,0.0,0.0,0.0,-2.8082,-2.913,-2.9839,-3.0784,-3.1956,-3.2231,-3.1728,-3.0532,-3.0431,-2.9558,-2.8065,-2.7791,-2.8284,0.0,0.0,0.0,-3.1357,-3.1567,0.0,0.0,0.0,0.0,0.0,-3.201,-3.1913,0.0,-3.1673,-3.1673,-3.1673,0.0,0.0,0.0,0.0,-3.1673,-3.1721,-3.2034,-3.2899,-3.3741,-3.3982,-3.4532,-3.5129,-3.5208,0.0,0.0,0.0,0.0,0.0,0.0,0.0,0.0,-3.7389,-3.8512,0.0,0.0,0.0,0.0,0.0,0.0,0.0,0.0,0.0,0.0,0.0,0.0,0.0,0.0,0.0,-4.8759,-4.825,-4.7267,-4.7092,-4.8016,-4.7096,-4.6425,-4.6107,-4.5843,-4.5552,-4.5235,-4.5395,-4.5498,0.0,0.0,0.0,-4.3627,-4.2977,-4.2298,-4.1743,-4.1743,-4.1743,-4.1743,-4.1743,-4.1584,-4.1444,0.0,0.0,0.0,0.0,0.0,0.0,0.0,0.0,0.0,0.0,0.0,0.0,0.0,0.0,0.0,0.0,0.0,0.0,0.0,0.0,0.0,0.0,0.0,-2.8139,-2.8751,-2.9625,-3.0787,-3.2156,-3.246,-3.2126,-3.1168,-3.1029,-2.9815,-2.7721,-2.7299,-2.7704,0.0,0.0,-3.0148,-3.0905,-3.1281,0.0,0.0,0.0,0.0,0.0,0.0,0.0,0.0,-3.1673,-3.1673,-3.1673,-3.1673,0.0,0.0,0.0,0.0,0.0,-3.1769,-3.2635,-3.3573,-3.3765,-3.3933,-3.4195,-3.478,0.0,0.0,0.0,0.0,0.0,0.0,0.0,0.0,0.0,0.0,0.0,0.0,0.0,0.0,0.0,0.0,0.0,0.0,0.0,0.0,0.0,0.0,0.0,0.0,0.0,0.0,-4.7052,-4.5897,-4.5654,-4.6402,-4.521,-4.4591,-4.4515,-4.4028,-4.3797,-4.3797,-4.3962,-4.4019,0.0,0.0,0.0,-4.2338,-4.1518,-4.0875,-4.0414,-4.0414,-4.0414,-4.0414,-4.0414,-4.0132,-3.9822,0.0,0.0,0.0,0.0,0.0,0.0,0.0,0.0,0.0,0.0,0.0,0.0,0.0,0.0,0.0,0.0,0.0,0.0,0.0,0.0,0.0,-2.7232,-2.7366,-2.7856,-2.8746,-2.9347,-3.0148,-3.1224,-3.2787,-3.2685,-3.1189,-3.2023,-3.073,-2.7637,-2.7255,-2.716,-2.7463,-2.7558,-2.8724,-3.0376,-3.0397,0.0,0.0,0.0,0.0,0.0,0.0,0.0,0.0,-3.1673,-3.1673,-3.1673,-3.1673,0.0,0.0,0.0,0.0,0.0,-3.225,-3.3452,-3.4294,-3.3044,-3.3404,-3.3933,-3.3687,0.0,0.0,0.0,0.0,0.0,0.0,0.0,0.0,0.0,0.0,0.0,0.0,0.0,0.0,0.0,0.0,0.0,0.0,0.0,0.0,0.0,0.0,0.0,0.0,0.0,0.0,-4.6513,-4.549,-4.4611,-4.3915,-4.4356,-4.4412,-4.3925,-4.3848,-4.3797,-4.3797,-4.3342,-4.3166,0.0,0.0,-4.1595,-4.1467,-4.0747,-4.0491,-4.0414,-4.0414,-4.0414,-4.0414,-4.0414,-4.0363,-4.0336,0.0,0.0,0.0,0.0,0.0,0.0,0.0,0.0,0.0,0.0,0.0,0.0,0.0,0.0,0.0,0.0,0.0,0.0,0.0,0.0,0.0,-2.844,-2.8745,-2.8925,-2.9149,-2.9966,-3.0739,-3.1406,-3.2605,-3.2599,-3.1329,-3.071,-2.9481,-2.7617,-2.6719,-2.6291,-2.6476,-2.701,-2.7746,-2.868,0.0,0.0,0.0,0.0,0.0,0.0,0.0,0.0,0.0,0.0,-3.1673,-3.1673,-3.1673,0.0,0.0,0.0,0.0,0.0,-3.1985,-3.2803,-3.3477,-3.3044,-3.4126,-3.5112,-3.4294,0.0,0.0,0.0,0.0,0.0,0.0,0.0,0.0,0.0,0.0,0.0,0.0,0.0,0.0,0.0,0.0,0.0,0.0,0.0,0.0,0.0,0.0,0.0,0.0,0.0,0.0,-4.4829,-4.42,-4.3448,-4.2665,-4.2988,-4.2921,-4.24,-4.24,-4.24,-4.2351,-4.1948,-4.1764,-4.1713,0.0,-4.0231,-4.0102,-3.9411,-3.9104,-3.9104,-3.9104,-3.9104,-3.9055,-3.8757,-3.8658,-3.8584,0.0,0.0,0.0,0.0,0.0,0.0,0.0,0.0,0.0,0.0,0.0,0.0,0.0,0.0,0.0,0.0,0.0,0.0,0.0,0.0,-2.7661,-2.9117,-2.9577,-2.9919,-3.0001,-3.0833,-3.1508,-3.1922,-3.2596,-3.2399,-3.1426,-2.9692,-2.8494,-2.7754,-2.6562,-2.5918,-2.5742,-2.6552,-2.701,-2.7369,0.0,0.0,0.0,0.0,0.0,0.0,0.0,0.0,0.0,0.0,0.0,0.0,0.0,0.0,0.0,-3.1673,-3.1673,-3.1697,-3.1817,-3.2346,-3.2923,-3.3212,-3.4487,-3.5617,-3.5425,0.0,0.0,0.0,0.0,0.0,0.0,0.0,0.0,0.0,0.0,0.0,0.0,0.0,0.0,0.0,0.0,0.0,0.0,0.0,0.0,0.0,0.0,0.0,0.0,0.0,0.0,-4.3337,-4.2952,-4.2495,-4.199,-4.1966,-4.1701,-4.1172,-4.1052,-4.1004,-4.0956,-4.0538,-4.035,-4.0301,-3.934,-3.8921,-3.8921,-3.8291,-3.7974,-3.7974,-3.7974,-3.7974,-3.7926,-3.7621,-3.7477,-3.7429,0.0,0.0,0.0,0.0,0.0,0.0,0.0,0.0,0.0,0.0,0.0,0.0,0.0,0.0,0.0,0.0,0.0,0.0,0.0,0.0,-2.6317,-2.807,-2.8631,-2.9736,-3.16,-3.1604,-3.1931,-3.2471,-3.2696,-3.2342,-3.1527,-3.0606,-2.9434,-2.8203,-2.7324,-2.6484,-2.5742,-2.5723,-2.638,-2.7179,-2.7369,0.0,0.0,0.0,0.0,0.0,0.0,0.0,0.0,0.0,0.0,0.0,0.0,0.0,-3.1673,-3.1673,-3.1673,-3.1769,-3.2298,-3.3164,-3.3837,-3.3404,-3.3404,0.0,-3.6483,-3.6627,0.0,0.0,0.0,0.0,0.0,0.0,0.0,0.0,0.0,0.0,0.0,0.0,0.0,0.0,0.0,0.0,0.0,0.0,0.0,0.0,0.0,0.0,0.0,0.0,0.0,-4.2951,-4.2784,-4.2495,-4.199,-4.1966,-4.1701,-4.1172,-4.0691,-4.0451,-4.0403,-3.9345,-3.8972,-3.8948,-3.8345,-3.808,-3.808,-3.7974,-3.7974,-3.7974,-3.7974,-3.7974,-3.7974,-3.8267,-3.8348,-3.8348,0.0,0.0,0.0,0.0,0.0,0.0,0.0,0.0,0.0,0.0,0.0,0.0,0.0,0.0,0.0,0.0,0.0,0.0,0.0,-2.5503,-2.6434,-2.7934,-2.8234,-2.8921,-3.0187,-3.1318,-3.156,-3.1095,-3.1368,-3.1304,-3.0834,-2.9679,-2.8649,-2.7851,-2.6719,-2.6035,-2.5742,-2.5742,-2.5917,-2.6284,-2.6914,-2.701,0.0,0.0,0.0,0.0,0.0,0.0,0.0,0.0,-2.9195,-2.9681,-3.0481,-3.1205,-3.1673,-3.1673,-3.1673,-3.1697,-3.1913,-3.2755,-3.3597,-3.3717,0.0,0.0,0.0,0.0,0.0,0.0,0.0,0.0,0.0,0.0,0.0,0.0,0.0,0.0,0.0,0.0,0.0,0.0,0.0,0.0,0.0,0.0,0.0,0.0,0.0,0.0,0.0,0.0,0.0,-4.2279,-4.1629,-4.1196,-4.1004,-4.0667,-4.0403,-4.021,-4.0331,-4.0403,-4.0355,-3.9296,-3.8815,-3.8791,-3.8214,-3.7974,-3.7974,-3.7974,-3.7974,-3.7974,-3.7974,-3.808,-3.8291,-3.8421,-3.8526,-3.8631,0.0,0.0,0.0,0.0,0.0,0.0,0.0,0.0,0.0,0.0,0.0,0.0,0.0,0.0,0.0,0.0,0.0,0.0,-2.473,-2.5104,-2.5888,-2.7281,-2.7522,-2.8014,-2.8691,-3.012,-3.0747,-3.0423,-3.0757,-3.0773,-3.0605,-2.923,-2.8535,-2.8316,-2.6604,-2.6016,-2.6113,-2.5859,-2.5742,-2.5742,-2.6456,-2.6284,0.0,0.0,0.0,0.0,0.0,0.0,0.0,0.0,-2.8094,-2.8567,-2.9398,-3.0325,-3.1056,-3.1158,-3.1472,-3.1673,-3.1673,-3.2022,-3.2554,0.0,0.0,0.0,0.0,0.0,0.0,0.0,0.0,0.0,0.0,0.0,0.0,0.0,0.0,0.0,0.0,0.0,0.0,0.0,0.0,0.0,0.0,0.0,0.0,0.0,0.0,0.0,0.0,0.0,0.0,0.0,-4.0619,-4.0138,-4.0138,-3.9777,-3.9609,-3.9609,-3.9801,-3.9898,-3.9874,-3.896,-3.8551,-3.8527,-3.8142,-3.7974,-3.7974,-3.7974,-3.7974,-3.7974,-3.7974,-3.8185,-3.8421,-3.8526,-3.8736,-3.8921,0.0,0.0,0.0,0.0,0.0,0.0,0.0,0.0,0.0,0.0,0.0,0.0,0.0,0.0,0.0,0.0,0.0,0.0,-2.375,-2.3789,-2.4416,-2.5813,-2.636,-2.691,-2.7333,-2.8249,-2.9372,-3.0808,-3.1103,-3.1182,-3.1135,-2.9628,-2.9212,-2.9661,-2.7441,-2.6621,-2.6953,-2.6094,-2.5742,-2.5742,-2.5742,-2.5742,-2.5742,0.0,0.0,0.0,0.0,0.0,0.0,0.0,-2.5924,-2.625,-2.8099,-2.9082,-2.9593,-3.0009,-3.0913,-3.1673,-3.1673,-3.1003,0.0,0.0,0.0,0.0,0.0,0.0,0.0,0.0,0.0,0.0,0.0,0.0,0.0,0.0,0.0,0.0,0.0,0.0,0.0,0.0,0.0,0.0,0.0,0.0,0.0,0.0,0.0,0.0,0.0,0.0,0.0,0.0,-3.9874,-3.9609,-3.9609,-3.9585,-3.9585,-3.9585,-3.9056,-3.8815,-3.8791,-3.8238,-3.7974,-3.7974,-3.7974,-3.7974,-3.7974,-3.7974,-3.7974,-3.7974,-3.7974,-3.821,-3.8421,-3.8736,-3.905,-3.9183,0.0,0.0,0.0,0.0,0.0,0.0,0.0,0.0,0.0,0.0,0.0,0.0,0.0,0.0,0.0,0.0,0.0,0.0,-2.332,-2.334,-2.3604,-2.4396,-2.4536,-2.4623,-2.4604,-2.5373,-2.6975,-2.9244,-2.9603,-2.9679,-2.9277,-2.8437,-2.8003,-2.7756,-2.678,-2.6289,-2.6094,-2.584,-2.5742,-2.5742,-2.5742,-2.5742,-2.5703,0.0,0.0,0.0,0.0,0.0,0.0,0.0,0.0,0.0,-2.6494,-2.7774,-2.9081,-2.9598,-3.0328,-3.1202,-3.1567,-3.2022,0.0,0.0,0.0,0.0,0.0,0.0,0.0,0.0,0.0,0.0,0.0,0.0,0.0,0.0,0.0,0.0,0.0,0.0,0.0,0.0,0.0,0.0,0.0,0.0,0.0,0.0,0.0,0.0,0.0,0.0,0.0,0.0,-3.9513,-3.9056,-3.9056,-3.8647,-3.8455,-3.8455,-3.831,-3.8431,-3.8791,-3.8238,-3.7974,-3.7974,-3.7974,-3.7974,-3.7974,-3.7974,-3.7974,-3.7974,-3.7974,-3.8315,-3.8736,-3.8736,-3.9154,-3.9569,0.0,0.0,0.0,0.0,0.0,0.0,0.0,0.0,0.0,0.0,-2.2553,0.0,0.0,0.0,0.0,0.0,0.0,0.0,0.0,-2.3242,-2.3262,-2.3516,-2.3535,-2.3602,-2.3751,-2.4792,-2.6077,-2.7783,-2.8622,-2.8972,-2.872,-2.8754,-2.864,-2.8361,-2.7708,-2.7148,-2.6738,-2.6387,-2.6055,-2.5723,-2.6091,-2.611,-2.5684,0.0,0.0,0.0,0.0,0.0,0.0,0.0,0.0,0.0,-2.5371,-2.6535,-2.7791,-2.8646,-2.9667,-3.0744,-3.141,0.0,0.0,0.0,0.0,0.0,0.0,0.0,0.0,0.0,0.0,0.0,0.0,0.0,0.0,0.0,0.0,0.0,0.0,0.0,0.0,0.0,0.0,0.0,0.0,0.0,0.0,0.0,0.0,0.0,0.0,0.0,0.0,0.0,-3.8936,-3.8479,-3.8479,-3.8142,-3.7974,-3.7974,-3.7974,-3.8166,-3.8479,-3.8142,-3.7974,-3.7974,-3.7974,-3.7974,-3.7974,-3.7974,-3.7974,-3.7974,-3.7974,-3.8291,-3.8631,-3.8736,-3.905,-3.9312,0.0,0.0,0.0,0.0,0.0,0.0,0.0,0.0,0.0,0.0,-2.2367,-2.2479,0.0,0.0,0.0,0.0,0.0,0.0,0.0,0.0,-2.3144,-2.3144,-2.3223,-2.3672,-2.457,-2.5797,-2.6396,-2.6387,-2.7954,-2.877,-2.8962,-2.9782,-3.0191,-3.0232,-2.9243,-2.8574,-2.8125,-2.7266,-2.6445,-2.5839,-2.6839,-2.6648,-2.5781,-2.6329,0.0,0.0,0.0,0.0,0.0,0.0,0.0,0.0,-2.4648,-2.5338,-2.6053,-2.7365,-2.882,-3.0262,-3.1338,0.0,0.0,0.0,0.0,0.0,0.0,0.0,0.0,0.0,0.0,0.0,0.0,0.0,0.0,0.0,0.0,0.0,0.0,0.0,0.0,0.0,0.0,0.0,0.0,0.0,0.0,0.0,0.0,0.0,0.0,0.0,0.0,0.0,-3.8262,-3.7974,-3.7974,-3.7974,-3.7974,0.0,-3.7974,-3.7974,-3.7974,-3.7974,-3.7974,-3.7974,-3.7974,-3.7974,-3.7974,-3.7974,-3.7974,-3.7974,-3.7974,-3.8161,-3.8348,-3.8558,-3.8767,-3.8723,0.0,0.0,0.0,0.0,0.0,0.0,0.0,0.0,0.0,0.0,0.0,0.0,0.0,0.0,0.0,0.0,0.0,0.0,0.0,0.0,-2.3144,-2.3144,-2.3789,-2.4707,-2.5937,-2.5681,-2.5817,-2.6387,-2.6768,-2.7383,-2.7969,-2.8147,-2.8423,-2.872,-2.8192,-2.7695,-2.7226,-2.6367,-2.5898,-2.5839,-2.6839,-2.6648,-2.5781,-2.6329,-2.5756,0.0,0.0,0.0,0.0,0.0,0.0,0.0,-2.3496,-2.4362,-2.5371,-2.6126,-2.7348,-2.8924,0.0,0.0,0.0,0.0,0.0,0.0,0.0,0.0,0.0,0.0,0.0,0.0,0.0,0.0,0.0,0.0,0.0,0.0,0.0,0.0,0.0,0.0,0.0,0.0,0.0,0.0,0.0,0.0,0.0,0.0,0.0,0.0,0.0,-3.8815,-3.8262,-3.7974,-3.7974,-3.7974,-3.7974,0.0,-3.7974,-3.7974,-3.7974,-3.7974,-3.7974,-3.7974,-3.7974,-3.7974,-3.7974,-3.7974,-3.7974,-3.7974,-3.7974,-3.7944,-3.7788,-3.7788,-3.8202,-3.8512,0.0,0.0,0.0,0.0,0.0,0.0,0.0,0.0,0.0,0.0,0.0,0.0,0.0,0.0,0.0,0.0,0.0,0.0,0.0,0.0,-2.3144,-2.3144,-2.3769,-2.4336,-2.4824,-2.5119,-2.5333,-2.5449,-2.5877,-2.642,-2.7051,-2.7759,-2.8078,-2.7988,-2.7969,-2.7617,-2.6992,-2.6543,-2.6113,-2.5839,-2.6839,-2.6914,-2.6416,-2.6516,-2.5972,-2.4977,-2.4106,0.0,0.0,0.0,0.0,0.0,0.0,0.0,-2.4879,-2.5618,-2.6492,-2.7777,0.0,0.0,0.0,0.0,0.0,0.0,0.0,0.0,0.0,0.0,0.0,0.0,0.0,0.0,0.0,0.0,0.0,0.0,0.0,0.0,0.0,0.0,0.0,0.0,0.0,0.0,0.0,0.0,0.0,0.0,0.0,-3.8551,-3.8383,-3.8407,-3.8142,-3.7974,-3.7974,-3.7974,-3.7974,-3.7974,-3.7974,-3.7974,-3.7974,-3.7974,-3.7974,-3.7974,-3.7974,-3.7974,-3.7974,-3.7974,-3.7974,-3.7974,-3.7974,-3.7911,-3.7774,-3.7879,-3.8087,-3.8221,0.0,0.0,0.0,0.0,0.0,0.0,0.0,0.0,0.0,0.0,0.0,0.0,0.0,0.0,0.0,0.0,0.0,0.0,0.0,0.0,0.0,-2.3359,-2.3711,-2.3809,-2.3594,-2.4551,-2.4922,-2.4648,-2.5312,-2.5879,-2.6387,-2.7703,-2.8045,-2.7676,-2.7949,-2.7676,-2.7012,-2.6855,-2.6387,-2.5839,-2.6839,-2.7105,-2.6873,-2.6786,-2.6351,-2.5644,-2.4394,-2.3691,-2.3242,-2.3242,0.0,0.0,0.0,0.0,-2.4453,-2.5195,-2.5744,-2.6598,0.0,0.0,0.0,0.0,0.0,0.0,0.0,0.0,0.0,0.0,0.0,0.0,0.0,0.0,0.0,0.0,0.0,0.0,0.0,0.0,0.0,0.0,0.0,0.0,0.0,0.0,0.0,0.0,0.0,0.0,-3.8046,-3.8431,-3.8455,-3.7998,-3.7974,-3.7974,-3.7974,-3.7974,-3.7974,-3.7974,-3.7974,-3.7926,-3.7853,-3.7853,-3.7902,-3.7974,-3.7974,-3.7974,-3.7974,-3.7974,-3.7974,-3.7974,-3.7878,-3.7781,-3.7709,-3.7919,-3.7919,-3.7742,0.0,0.0,0.0,0.0,0.0,0.0,0.0,0.0,0.0,0.0,-2.1909,0.0,0.0,0.0,0.0,0.0,0.0,0.0,-2.3223,0.0,0.0,-2.4219,-2.4297,-2.4668,-2.5371,-2.5176,-2.5234,-2.5566,-2.5293,-2.5586,0.0,0.0,-2.7349,-2.7656,-2.7324,-2.7129,-2.6973,-2.623,-2.584,-2.5839,-2.6839,-2.6648,-2.5994,-2.6853,-2.6357,-2.5149,-2.5016,-2.4375,-2.3711,-2.3711,-2.3496,0.0,0.0,0.0,-2.3906,-2.4023,-2.4349,-2.5252,0.0,0.0,0.0,0.0,0.0,0.0,0.0,0.0,0.0,0.0,0.0,0.0,0.0,0.0,0.0,0.0,0.0,0.0,0.0,0.0,0.0,0.0,0.0,0.0,0.0,0.0,0.0,0.0,0.0,0.0,-3.8022,-3.8046,-3.8046,-3.7974,-3.7974,-3.7974,-3.7974,-3.7974,-3.7974,-3.7974,-3.7974,-3.7733,-3.73,-3.73,-3.7541,-3.7974,-3.7974,-3.7974,-3.7974,-3.7974,-3.7974,-3.7926,-3.7469,-3.7012,-3.6603,-3.6627,-3.6831,-3.686,0.0,0.0,0.0,0.0,0.0,0.0,0.0,0.0,0.0,0.0,0.0,-2.1909,0.0,0.0,0.0,-2.2794,-2.2969,-2.3144,-2.3144,-2.3144,-2.3301,-2.3691,-2.3711,-2.3887,-2.4277,-2.4336,-2.4453,-2.4648,-2.4922,0.0,0.0,-2.6816,-2.7109,-2.7285,-2.6855,-2.666,-2.6621,-2.5996,-2.5625,-2.5528,-2.6091,-2.622,-2.6039,-2.628,-2.5873,-2.5219,-2.5164,-2.4512,-2.3789,-2.3789,-2.3828,-2.3769,-2.3281,0.0,0.0,0.0,-2.3926,0.0,0.0,0.0,0.0,0.0,0.0,0.0,0.0,0.0,0.0,0.0,0.0,0.0,0.0,0.0,0.0,0.0,0.0,0.0,0.0,0.0,0.0,0.0,0.0,0.0,0.0,0.0,0.0,0.0,0.0,-3.8238,-3.7998,-3.7974,-3.7974,-3.7974,-3.7685,-3.7541,-3.7541,-3.7541,-3.7685,-3.7974,-3.7974,-3.7709,-3.7204,-3.7204,-3.7324,-3.7517,-3.7228,-3.7252,-3.7517,-3.7228,-3.7108,-3.7084,-3.6843,-3.6795,-3.6843,-3.6843,-3.7139,-3.746,0.0,0.0,0.0,0.0,0.0,0.0,0.0,0.0,0.0,0.0,0.0,0.0,0.0,0.0,0.0,0.0,-2.2882,-2.3057,-2.3144,-2.3144,-2.3144,-2.3144,-2.3144,-2.3144,-2.3144,-2.3457,-2.3672,-2.3789,0.0,0.0,-2.6562,-2.6875,-2.7246,0.0,-2.6992,-2.6602,-2.6367,-2.5937,-2.5702,-2.5585,-2.5373,-2.5543,-2.5738,-2.5312,-2.5159,-2.5015,-2.4972,-2.459,-2.3965,0.0,0.0,0.0,-2.3516,-2.3457,0.0,0.0,0.0,0.0,0.0,0.0,0.0,0.0,0.0,0.0,0.0,0.0,0.0,0.0,0.0,0.0,0.0,0.0,0.0,0.0,0.0,0.0,0.0,0.0,0.0,0.0,0.0,0.0,0.0,0.0,0.0,0.0,0.0,-3.7974,-3.7974,-3.7974,-3.7974,-3.7974,-3.7469,-3.7204,-3.7204,-3.706,-3.7204,-3.7589,-3.7589,-3.73,-3.6795,-3.6795,-3.6795,-3.6771,-3.6507,-3.6627,-3.6964,-3.6579,-3.6411,-3.6386,-3.6266,-3.6435,-3.6819,-3.694,-3.7252,-3.7589,0.0,0.0,0.0,0.0,0.0,0.0,0.0,0.0,0.0,0.0,0.0,0.0,-2.1731,-2.1909,-2.2106,-2.2106,-2.253,-2.2882,-2.3057,-2.3144,-2.3144,-2.3144,-2.3144,0.0,-2.3144,-2.3164,-2.3379,-2.3789,0.0,0.0,-2.6973,-2.7012,-2.7871,-2.9375,-2.8144,-2.7148,-2.6387,0.0,0.0,0.0,-2.487,-2.4526,-2.4735,-2.4068,-2.399,-2.4175,-2.4619,0.0,0.0,0.0,0.0,0.0,-2.3769,-2.3496,-2.3184,0.0,0.0,0.0,0.0,-2.5508,0.0,0.0,0.0,0.0,0.0,0.0,0.0,0.0,0.0,0.0,0.0,0.0,0.0,0.0,0.0,0.0,0.0,0.0,0.0,0.0,0.0,0.0,0.0,0.0,0.0,0.0,0.0,-3.7974,-3.7974,-3.7974,-3.7974,-3.7974,-3.7469,-3.7204,-3.7204,-3.6699,-3.6459,-3.6483,-3.6483,-3.6218,-3.5689,-3.5689,-3.5689,-3.5737,-3.6194,-3.6411,-3.6435,-3.6411,-3.6411,-3.6362,-3.5857,-3.5665,-3.5761,-3.6266,-3.6459,-3.6555,0.0,0.0,0.0,0.0,0.0,0.0,0.0,0.0,0.0,0.0,0.0,0.0,0.0,-2.1909,-2.2106,-2.2106,-2.253,-2.2794,-2.2882,-2.3057,-2.3144,-2.3144,-2.3144,-2.3144,-2.3144,-2.3144,-2.3223,0.0,0.0,-2.4473,-2.5781,-2.6348,-2.709,-2.793,-2.7754,-2.75,-2.7148,-2.6229,0.0,0.0,0.0,-2.4584,-2.4107,-2.4051,0.0,0.0,0.0,0.0,0.0,0.0,0.0,0.0,-2.3555,-2.3262,-2.3144,-2.3144,-2.3242,-2.3516,-2.4219,0.0,0.0,0.0,0.0,0.0,0.0,0.0,0.0,0.0,0.0,0.0,0.0,0.0,0.0,0.0,0.0,0.0,0.0,0.0,0.0,0.0,0.0,0.0,0.0,0.0,0.0,0.0,0.0,0.0,-3.7974,-3.7974,-3.7829,-3.7493,-3.6964,-3.6531,-3.6194,-3.6002,-3.6074,-3.6411,-3.6411,-3.6122,-3.5617,-3.5617,-3.5425,-3.5112,-3.5304,-3.5593,-3.5881,-3.5545,-3.54,-3.5376,-3.5184,-3.5328,-3.5689,-3.6218,-3.6627,-3.6988,0.0,0.0,0.0,0.0,0.0,0.0,0.0,0.0,0.0,0.0,0.0,0.0,0.0,0.0,-2.2017,-2.2087,-2.2441,-2.2706,-2.2794,-2.2969,-2.3144,-2.3144,-2.3144,-2.3144,-2.3144,-2.3281,-2.3281,0.0,0.0,0.0,0.0,-2.5664,-2.6328,-2.7031,-2.7168,-2.7324,0.0,0.0,0.0,-2.5624,0.0,0.0,-2.3918,0.0,0.0,0.0,0.0,0.0,0.0,0.0,0.0,0.0,0.0,-2.3379,-2.3144,-2.3144,-2.3144,-2.3262,-2.3828,-2.4102,0.0,0.0,0.0,0.0,0.0,0.0,0.0,0.0,0.0,0.0,0.0,0.0,0.0,0.0,0.0,0.0,0.0,0.0,0.0,0.0,0.0,0.0,0.0,0.0,0.0,0.0,0.0,0.0,-3.7974,-3.7805,-3.7397,-3.6699,-3.6314,-3.5881,-3.5352,-3.5352,-3.5521,-3.5881,-3.5881,-3.5689,-3.5352,-3.5352,-3.516,-3.4823,-3.4823,-3.5016,-3.5328,-3.4968,-3.4823,-3.4823,-3.4823,-3.516,-3.5689,-3.6218,-3.6747,-3.7276,0.0,0.0,0.0,0.0,0.0,0.0,0.0,0.0,0.0,-2.1768,0.0,0.0,0.0,0.0,0.0,-2.2143,-2.2302,-2.2549,-2.2794,-2.2969,-2.3057,-2.3057,-2.3057,-2.3144,-2.3057,-2.3555,-2.3574,-2.3144,-2.3574,-2.4199,-2.5,-2.5019,-2.5723,-2.6914,-2.6523,-2.6582,-2.6953,0.0,-2.6536,-2.6209,0.0,-2.4066,-2.4258,0.0,0.0,0.0,-2.3821,-2.3899,0.0,0.0,0.0,0.0,0.0,-2.3809,-2.3144,-2.3144,-2.3144,-2.3144,0.0,0.0,0.0,0.0,0.0,0.0,0.0,0.0,0.0,0.0,0.0,0.0,0.0,0.0,0.0,0.0,0.0,0.0,0.0,0.0,0.0,0.0,0.0,0.0,0.0,0.0,0.0,0.0,0.0,-3.7421,-3.7926,-3.7445,-3.6675,-3.5641,-3.5593,-3.5352,-3.4847,-3.4823,-3.4823,-3.4823,-3.4823,-3.4823,-3.4823,-3.4823,-3.4823,-3.4823,-3.4823,-3.4823,-3.4823,-3.4823,-3.4823,-3.4823,-3.4823,-3.516,-3.5689,-3.6218,-3.6747,-3.7276,0.0,0.0,0.0,0.0,0.0,0.0,0.0,0.0,-2.2519,0.0,0.0,0.0,-2.2555,-2.2868,-2.2923,-2.2741,-2.2908,-2.2831,-2.2321,-2.2618,-2.2794,-2.2618,-2.2969,-2.3057,-2.2882,-2.3174,-2.3262,-2.3144,-2.3262,-2.3437,-2.3672,-2.4004,-2.4492,0.0,-2.5352,-2.5488,-2.5625,-2.5859,0.0,0.0,-2.5301,-2.5008,0.0,0.0,0.0,0.0,0.0,-2.4597,0.0,0.0,-2.4165,-2.4198,0.0,0.0,-2.3144,-2.3144,-2.3144,-2.3144,-2.3144,0.0,0.0,0.0,0.0,0.0,-2.5391,0.0,0.0,0.0,0.0,0.0,0.0,0.0,0.0,0.0,0.0,0.0,0.0,0.0,0.0,0.0,0.0,0.0,0.0,0.0,0.0,0.0,-3.7493,-3.7252,-3.7397,-3.6555,-3.593,-3.5617,-3.5256,-3.4968,-3.4823,-3.4823,-3.4823,-3.4823,-3.4823,-3.4823,-3.4823,-3.4823,-3.4823,-3.4823,-3.4823,-3.4823,-3.4823,-3.4823,-3.4823,-3.4823,-3.4823,-3.516,-3.5689,-3.6218,-3.6747,-3.7276,0.0,0.0,0.0,0.0,0.0,0.0,-2.4042,-2.3565,-2.3253,0.0,0.0,0.0,-2.3455,-2.3822,-2.3822,-2.3158,-2.3241,-2.3056,-2.2385,-2.2536,-2.253,-2.2441,-2.2706,-2.2794,-2.2618,-2.3055,-2.3144,-2.2969,-2.3144,-2.3144,-2.3144,-2.331,-2.3473,-2.3725,0.0,0.0,0.0,0.0,0.0,0.0,-2.5791,0.0,0.0,-2.5507,-2.5282,0.0,0.0,0.0,-2.5544,-2.4634,-2.4617,0.0,0.0,0.0,0.0,-2.3184,-2.3144,-2.3144,-2.3144,-2.3144,-2.3223,0.0,0.0,0.0,-2.457,-2.5469,0.0,0.0,0.0,0.0,0.0,0.0,0.0,0.0,0.0,0.0,0.0,0.0,0.0,0.0,0.0,0.0,0.0,0.0,0.0,-3.7637,-3.6964,-3.6531,-3.6531,-3.5954,-3.5521,-3.5304,-3.4992,-3.4823,-3.4823,-3.4823,-3.4823,-3.4823,-3.4823,-3.4823,-3.4823,-3.4823,-3.4823,-3.4823,-3.4823,-3.4823,-3.4823,-3.4823,-3.4823,-3.4823,-3.4823,-3.528,-3.5978,-3.629,-3.6867,-3.7565,0.0,0.0,0.0,-2.4702,-2.4464,-2.4354,-2.4776,-2.4225,-2.3877,0.0,-2.4005,-2.3987,-2.4445,-2.4739,-2.4592,-2.3804,-2.3537,-2.3168,-2.2704,-2.2565,-2.2391,-2.2353,-2.2353,-2.2353,-2.2353,-2.3019,-2.3127,-2.2794,-2.3127,-2.3287,-2.3057,-2.2882,-2.2794,-2.2813,0.0,0.0,0.0,0.0,0.0,-2.5606,-2.5932,-2.6092,0.0,0.0,-2.6033,0.0,-2.5454,-2.5436,-2.5466,-2.5136,-2.5107,0.0,0.0,0.0,0.0,0.0,-2.3203,-2.3203,-2.3144,-2.3144,-2.332,0.0,0.0,0.0,-2.459,-2.4902,-2.5156,0.0,0.0,0.0,0.0,0.0,0.0,0.0,0.0,0.0,0.0,0.0,0.0,0.0,0.0,0.0,0.0,-3.5939,-3.5898,-3.6939,-3.6189,-3.5689,-3.5617,-3.5569,-3.5304,-3.4847,-3.4823,-3.4823,-3.4823,-3.4823,-3.4823,-3.4823,-3.4823,-3.4823,-3.4823,-3.4823,-3.4823,-3.4823,-3.4823,-3.4823,-3.4823,-3.4823,-3.4823,-3.4823,-3.4823,-3.5449,-3.6314,-3.6386,-3.7036,-3.7902,-2.4134,0.0,0.0,-2.4702,-2.4721,-2.4794,-2.5197,-2.5124,-2.5051,-2.5124,-2.5344,-2.5766,-2.6499,-2.6078,-2.5546,-2.5051,-2.4435,-2.3699,-2.2887,-2.2722,-2.2423,-2.1839,-2.2176,-2.2353,-2.2176,-2.2749,-2.2839,-2.2441,-2.2839,-2.3019,-2.2882,-2.2794,-2.2794,-2.2813,0.0,0.0,0.0,0.0,0.0,-2.5006,-2.5724,0.0,-2.6424,-2.6532,-2.6534,-2.6316,-2.5968,-2.5839,-2.5779,0.0,-2.438,-2.4143,0.0,0.0,0.0,0.0,0.0,0.0,0.0,0.0,0.0,0.0,0.0,0.0,-2.3457,-2.3789,-2.418,0.0,0.0,0.0,0.0,0.0,0.0,0.0,0.0,0.0,0.0,0.0,0.0,0.0,0.0,0.0,0.0,-3.5482,-3.5718,-3.6372,-3.6327,-3.6074,-3.5641,-3.5208,-3.4944,-3.4823,-3.4823,-3.4823,-3.4823,-3.4823,-3.4823,-3.4823,-3.4823,-3.4823,-3.4823,-3.4823,-3.4823,-3.4823,-3.4823,-3.4823,-3.4823,-3.4823,-3.4823,-3.4823,-3.4823,-3.5208,-3.5833,-3.6242,-3.6819,-3.7397,-2.4189,0.0,0.0,-2.4996,-2.5069,-2.5271,-2.5894,-2.5803,-2.5803,-2.6224,-2.6793,-2.7178,-2.7178,-2.6995,-2.6463,-2.5454,-2.4812,-2.4115,-2.3308,-2.276,-2.2428,-2.2337,-2.2316,-2.2295,-2.2205,-2.259,-2.2678,-2.2264,-2.2678,-2.2749,-2.2637,-2.2877,-2.2858,-2.246,-2.2739,0.0,0.0,0.0,-2.4107,-2.4622,-2.5882,0.0,-2.6169,-2.6784,-2.6791,-2.6554,-2.6353,-2.6279,-2.6114,-2.5293,-2.4931,0.0,0.0,-2.4089,-2.4049,0.0,-2.3519,-2.3512,0.0,0.0,0.0,-2.3144,0.0,0.0,0.0,-2.3477,-2.3848,0.0,0.0,0.0,0.0,0.0,0.0,0.0,0.0,0.0,0.0,0.0,0.0,0.0,0.0,0.0,0.0,-3.3593,-3.3675,-3.4635,-3.4769,-3.4875,-3.5232,-3.4968,-3.4823,-3.4823,-3.4823,-3.4823,-3.4823,-3.4823,-3.4823,-3.4823,-3.4823,-3.4823,-3.4823,-3.4823,-3.4823,-3.4823,-3.4823,-3.4823,-3.4823,-3.4823,-3.4823,-3.4823,-3.4823,-3.516,-3.5689,-3.6218,-3.6747,-3.7276,-2.4244,0.0,0.0,-2.5307,-2.5362,-2.5637,-2.6463,-2.6298,-2.6371,-2.7178,-2.7856,-2.8058,-2.7471,-2.7563,-2.7215,-2.6151,-2.5271,-2.4592,0.0,0.0,0.0,-2.2832,-2.2502,-2.2282,-2.2208,-2.2464,-2.2407,-2.2017,-2.2481,-2.2572,-2.2372,-2.3037,-2.2926,0.0,-2.2715,0.0,0.0,0.0,0.0,-2.4334,0.0,-2.6191,-2.589,-2.6905,-2.7008,-2.6573,-2.6408,-2.6353,-2.6224,-2.5417,0.0,-2.5284,-2.4361,-2.4141,0.0,0.0,0.0,0.0,0.0,0.0,0.0,0.0,0.0,-2.3359,0.0,0.0,0.0,0.0,0.0,0.0,0.0,0.0,0.0,0.0,0.0,0.0,0.0,0.0,0.0,0.0,0.0,0.0,0.0,-3.1622,-3.1827,-3.3039,-3.3307,-3.3615,-3.4115,-3.4409,-3.4531,-3.4531,-3.4531,-3.4628,-3.4823,-3.4823,-3.4823,-3.4823,-3.4823,-3.4823,-3.4823,-3.4823,-3.4823,-3.4823,-3.4823,-3.4823,-3.4823,-3.4823,-3.4823,-3.4823,-3.4823,-3.516,-3.5689,-3.6218,-3.6747,-3.7276,-2.4244,-2.45,0.0,0.0,-2.5362,-2.5637,-2.6463,-2.6554,-2.6811,-2.76,-2.7783,-2.7948,0.0,0.0,0.0,0.0,0.0,0.0,-2.6169,0.0,-2.3107,-2.2428,-2.2355,-2.2153,-2.1805,-2.2153,-2.2135,-2.1731,-2.2502,-2.2575,-2.2106,-2.2945,-2.3094,0.0,-2.2684,0.0,0.0,0.0,-2.337,0.0,-2.5395,-2.59,0.0,-2.6495,-2.67,-2.6499,-2.5766,-2.5509,-2.5381,0.0,-2.4398,-2.4362,0.0,-2.4454,-2.4403,0.0,0.0,0.0,0.0,0.0,0.0,0.0,-2.4004,0.0,0.0,0.0,0.0,0.0,0.0,0.0,0.0,0.0,0.0,0.0,0.0,0.0,0.0,0.0,0.0,0.0,0.0,0.0,0.0,0.0,-3.1888,-3.2937,-3.3582,-3.3356,-3.2015,-3.2901,-3.34,-3.34,-3.34,-3.3819,-3.4823,-3.4823,-3.4823,-3.4823,-3.4823,-3.4823,-3.4823,-3.4823,-3.4823,-3.4823,-3.4823,-3.4823,-3.4823,-3.4823,-3.4823,-3.4823,-3.4823,-3.516,-3.5689,-3.6218,-3.6747,-3.7276,-2.4556,-2.4849,0.0,0.0,-2.5564,-2.5913,-2.6499,-2.738,-2.793,-2.7783,-2.859,0.0,0.0,0.0,0.0,0.0,0.0,-2.6683,0.0,0.0,-2.4207,-2.4097,0.0,0.0,-2.2795,-2.2942,-2.2722,-2.208,-2.2887,-2.2997,-2.2557,-2.3463,-2.337,0.0,-2.2668,0.0,-2.2944,0.0,0.0,0.0,0.0,0.0,0.0,-2.6476,-2.6682,-2.6481,-2.5656,-2.5527,-2.5546,0.0,-2.4317,0.0,0.0,0.0,0.0,0.0,0.0,0.0,0.0,0.0,0.0,0.0,0.0,0.0,0.0,0.0,-2.3919,0.0,0.0,0.0,0.0,0.0,0.0,0.0,-2.6797,0.0,0.0,0.0,0.0,0.0,0.0,0.0,0.0,0.0,0.0,0.0,0.0,-3.1396,-3.1564,-3.1806,-3.1984,-3.2275,-3.2901,-3.34,-3.3918,-3.4531,-3.4823,-3.4823,-3.4823,-3.4823,-3.4823,-3.4823,-3.4823,-3.4823,-3.4823,-3.4823,-3.4823,-3.4823,-3.5016,-3.528,-3.528,-3.5425,-3.5689,-3.6218,-3.6747,-3.7276,-2.4941,0.0,0.0,0.0,0.0,-2.5986,-2.6518,-2.7673,0.0,0.0,0.0,0.0,-2.9745,-2.9635,0.0,0.0,0.0,-2.8095,0.0,0.0,-2.5197,0.0,0.0,0.0,0.0,0.0,-2.3143,-2.2318,-2.3143,-2.329,-2.2795,-2.373,-2.3565,-2.252,0.0,-2.3015,-2.2832,0.0,0.0,-2.3767,-2.4664,-2.5256,-2.5706,-2.6513,-2.6717,-2.6316,-2.5619,-2.5491,-2.5491,-2.4482,-2.4354,0.0,-2.4244,0.0,0.0,0.0,0.0,0.0,-2.2628,0.0,0.0,0.0,0.0,0.0,0.0,0.0,0.0,0.0,0.0,0.0,0.0,0.0,0.0,0.0,0.0,-2.6367,0.0,0.0,0.0,0.0,0.0,0.0,0.0,0.0,0.0,-2.9428,-2.9312,-2.9701,-3.0448,-3.0563,-3.0809,-3.1154,-3.1869,-3.2499,-3.2801,-3.3499,-3.4115,-3.4311,-3.4311,-3.4531,-3.4823,-3.4823,-3.4823,-3.4823,-3.4823,-3.4823,-3.4823,-3.4823,-3.5136,-3.5617,-3.5617,-3.5785,-3.6098,-3.6483,-3.6964,-3.7469,-2.5344,-2.5051,0.0,0.0,0.0,0.0,0.0,0.0,0.0,0.0,0.0,0.0,0.0,0.0,0.0,0.0,0.0,-2.9104,-2.9434,0.0,-2.5839,0.0,0.0,0.0,0.0,0.0,0.0,-2.2318,-2.3143,-2.3125,-2.2373,-2.3584,-2.3712,-2.2848,0.0,-2.373,-2.4079,-2.3694,-2.3749,-2.417,-2.4611,-2.5252,-2.5986,0.0,-2.6334,-2.5931,-2.5509,0.0,0.0,-2.4299,-2.417,0.0,0.0,0.0,0.0,0.0,0.0,0.0,0.0,0.0,0.0,-2.4164,0.0,0.0,0.0,0.0,-2.269,0.0,0.0,0.0,0.0,0.0,-2.5352,-2.625,0.0,0.0,0.0,0.0,0.0,0.0,0.0,0.0,0.0,0.0,0.0,-2.8368,-2.8917,-2.886,-2.7885,-2.9164,-2.9911,-2.9911,-3.0016,-3.0535,-3.1688,-3.1688,-3.2196,-3.3201,-3.3201,-3.3819,-3.4823,-3.4823,-3.4823,-3.4823,-3.4823,-3.4823,-3.4823,-3.4823,-3.5136,-3.5617,-3.5617,-3.6242,-3.7156,-3.7156,-3.7493,-3.795,0.0,0.0,0.0,0.0,0.0,0.0,0.0,-2.7545,0.0,0.0,0.0,0.0,0.0,0.0,-3.2551,0.0,0.0,-3.0974,-3.0057,-2.8333,0.0,0.0,0.0,-2.4904,0.0,0.0,0.0,0.0,0.0,0.0,0.0,0.0,0.0,0.0,0.0,-2.3382,0.0,0.0,0.0,0.0,0.0,-2.4593,-2.5968,0.0,0.0,-2.5913,-2.5509,-2.5124,0.0,-2.4299,-2.4152,-2.4152,-2.4152,-2.4152,-2.4079,-2.3657,-2.3547,0.0,0.0,0.0,-2.357,-2.3407,0.0,0.0,0.0,0.0,0.0,0.0,0.0,0.0,0.0,0.0,-2.5412,-2.5898,-2.584,-2.5801,0.0,0.0,0.0,0.0,0.0,0.0,0.0,0.0,0.0,-2.7461,-2.7459,-2.7459,-2.7741,-2.7934,-2.8197,-2.8774,-2.9513,-3.0141,-3.0432,-3.1257,-3.1768,-3.2196,-3.2196,-3.2297,-3.27,-3.27,-3.3101,-3.372,-3.372,-3.4115,-3.4823,-3.4823,-3.5136,-3.5641,-3.6002,-3.6579,-3.7204,-3.7204,-3.7517,-3.7926,-2.5637,0.0,0.0,0.0,0.0,0.0,0.0,0.0,0.0,0.0,-3.1377,0.0,-3.4092,0.0,-3.3835,0.0,-3.323,-3.2129,-3.0516,-2.9415,0.0,-2.8187,-2.7068,0.0,0.0,0.0,0.0,0.0,0.0,-2.395,0.0,0.0,0.0,0.0,0.0,0.0,0.0,0.0,-2.2779,0.0,0.0,-2.3669,0.0,0.0,-2.5711,-2.5894,0.0,-2.4904,-2.4519,-2.4244,-2.4152,-2.4152,-2.4152,-2.4152,-2.4097,-2.384,-2.3767,-2.3712,-2.3455,-2.3565,0.0,-2.3437,-2.3767,0.0,-2.351,0.0,0.0,0.0,0.0,0.0,0.0,0.0,0.0,-2.4695,-2.4967,-2.5236,0.0,-2.5644,0.0,0.0,0.0,0.0,0.0,0.0,-2.709,-2.6816,-2.6543,-2.6699,0.0,0.0,-2.7578,-2.8262,-2.9006,-2.9303,-2.9303,-3.0037,-3.066,-3.0949,-3.0949,-3.1154,-3.1586,-3.1586,-3.1993,-3.26,-3.26,-3.3092,-3.3854,-3.4087,-3.4639,-3.5277,-3.5848,-3.6435,-3.6964,-3.7324,-3.7685,-3.7926,0.0,0.0,0.0,0.0,-2.6646,0.0,0.0,0.0,-3.0332,0.0,-3.2294,-3.3743,-3.499,-3.4403,-3.422,-3.4972,-3.3927,0.0,-3.0974,-3.0809,0.0,0.0,-2.8223,-2.7673,-2.6114,0.0,0.0,0.0,0.0,0.0,0.0,0.0,0.0,0.0,-2.3345,0.0,-2.3565,-2.3547,-2.285,-2.1906,-2.2281,-2.2656,-2.3203,-2.4332,-2.5234,-2.5839,-2.5051,-2.4519,-2.4152,-2.4152,-2.4152,-2.4152,-2.4152,-2.4152,-2.4152,-2.4152,-2.4152,-2.4152,-2.4152,-2.4152,-2.4152,-2.4152,0.0,0.0,0.0,0.0,-2.1011,0.0,0.0,0.0,0.0,0.0,0.0,-2.3009,-2.3654,-2.4311,-2.5019,0.0,0.0,0.0,0.0,0.0,0.0,-2.6875,-2.6387,-2.6367,-2.6367,-2.6543,0.0,0.0,-2.7832,-2.8242,-2.8281,-2.8301,-2.8301,-2.8301,-2.8794,-2.9828,-2.9828,-3.0349,-3.1483,-3.1483,-3.1483,-3.1483,-3.1483,-3.1745,-3.2241,-3.2926,-3.3821,-3.4647,-3.5355,-3.6026,-3.6603,-3.7589,-3.7926,-3.7902,-2.6536,-2.6664,-2.6866,0.0,-2.6793,-2.705,0.0,0.0,0.0,0.0,-3.3468,-3.4678,-3.6201,-3.5907,-3.5449,-3.5064,-3.3927,0.0,0.0,0.0,0.0,-3.002,-2.8975,-2.8205,-2.7783,-2.6995,0.0,-2.5216,0.0,0.0,-2.3012,0.0,0.0,0.0,0.0,0.0,-2.3969,-2.3675,-2.3028,-2.218,-2.0641,-2.1434,0.0,0.0,-2.4079,-2.5454,-2.4959,-2.4519,-2.4152,-2.4152,-2.4152,-2.4152,-2.4152,-2.4152,-2.4152,-2.4152,-2.4152,-2.4152,-2.4152,-2.4152,-2.4152,-2.4152,-2.4152,-2.4152,0.0,0.0,0.0,0.0,0.0,0.0,0.0,0.0,0.0,-2.2753,-2.3802,-2.4658,0.0,0.0,0.0,-2.6328,0.0,0.0,-2.666,-2.6523,-2.625,-2.5937,-2.5898,-2.6094,-2.6523,0.0,0.0,-2.7812,-2.8125,-2.8301,-2.8301,-2.8301,-2.8388,-2.8708,-2.8708,-2.89,-2.9112,-2.9112,-2.9618,-3.0328,-3.0328,-3.1019,-3.2263,-3.339,-3.4119,-3.4716,-3.6264,-3.7108,-3.7565,-3.7445,-3.7156,-3.6867,-2.6921,0.0,0.0,-2.771,0.0,0.0,-2.9085,0.0,0.0,-3.2918,-3.4073,0.0,-3.5944,-3.5999,-3.5705,-3.5082,-3.3927,0.0,0.0,0.0,0.0,-3.0791,-2.9764,-2.9104,-2.892,-2.7545,0.0,-2.5913,0.0,0.0,-2.3103,0.0,0.0,0.0,0.0,-2.3198,0.0,-2.2558,-2.1661,-2.0979,-1.9746,0.0,0.0,-2.2265,-2.3199,-2.4181,-2.4491,-2.4354,-2.4152,-2.4152,-2.4152,-2.4152,-2.4152,-2.4152,-2.4152,-2.4152,-2.4152,-2.4152,-2.4152,-2.4152,-2.4152,-2.4152,-2.4152,-2.4152,-2.4152,-2.257,-2.1219,0.0,0.0,0.0,0.0,0.0,0.0,0.0,0.0,0.0,0.0,0.0,0.0,0.0,-2.5781,0.0,-2.6074,-2.6094,-2.5996,-2.5762,-2.5742,-2.5918,0.0,0.0,0.0,-2.7656,-2.8262,-2.8476,-2.8301,-2.8476,-2.8476,-2.8301,-2.8301,-2.8301,-2.8301,-2.8301,-2.8601,-2.9217,-2.9217,-2.988,-3.11,-3.2162,-3.3204,-3.4381,-3.6176,-3.7036,-3.7276,-3.7204,-3.7156,-3.7132,0.0,0.0,0.0,0.0,0.0,0.0,0.0,-3.0629,0.0,-3.3266,0.0,-3.4976,-3.5265,-3.5485,-3.5467,-3.5064,0.0,-3.2918,-3.2221,-3.2074,-3.1689,-3.0974,-3.0461,-3.002,-2.9654,-2.8022,0.0,0.0,0.0,0.0,-2.3437,-2.2685,0.0,0.0,0.0,0.0,0.0,-2.1032,-1.9836,-1.9228,-1.902,-1.902,-1.9435,-2.1505,-2.2316,-2.2417,-2.3737,-2.4152,-2.4152,-2.4152,-2.4152,-2.4152,-2.4152,-2.4152,-2.4152,-2.4152,-2.4152,-2.4152,-2.4152,-2.4152,-2.4152,-2.4152,-2.4152,-2.4152,-2.4152,-2.2518,-2.0877,-2.0877,-1.9168,-1.7635,0.0,0.0,0.0,0.0,0.0,0.0,0.0,0.0,0.0,0.0,0.0,0.0,-2.5742,-2.5742,-2.5742,-2.5742,-2.5742,-2.5898,0.0,0.0,0.0,-2.7578,-2.8398,-2.8691,-2.8379,0.0,-2.8672,-2.8379,-2.832,-2.8301,-2.8301,-2.8301,-2.8301,-2.8301,-2.8359,-2.8828,-2.9662,-3.0513,-3.2038,-3.4075,-3.5712,-3.6501,-3.6675,-3.7132,-3.7541,-3.7878,0.0,0.0,0.0,0.0,0.0,-3.0501,-3.0114,-3.072,-3.2071,-3.4445,-3.4563,0.0,-3.6362,-3.5981,-3.5467,-3.5064,-3.3927,0.0,0.0,0.0,0.0,-3.1799,-3.0772,-3.0167,-3.0094,-2.8168,-2.6976,0.0,0.0,0.0,-2.2957,-2.2557,-2.2502,0.0,0.0,0.0,-2.2512,-2.0948,0.0,-1.9124,-1.8199,-1.8408,-1.9332,-2.0672,-2.12,-2.1505,-2.3438,-2.4152,-2.4152,-2.4152,-2.4152,-2.4152,-2.4152,-2.4152,-2.4152,-2.4152,-2.4152,-2.4152,-2.4152,-2.4152,-2.4152,-2.4152,-2.4152,-2.4152,-2.4152,-2.2518,-2.0877,-2.0877,-1.9357,-1.7889,-1.7622,0.0,0.0,0.0,0.0,0.0,0.0,0.0,0.0,0.0,0.0,-2.6133,0.0,-2.5742,-2.5742,-2.5742,-2.5742,-2.5781,0.0,0.0,0.0,0.0,-2.7949,0.0,0.0,0.0,-2.8535,-2.8809,-2.8457,-2.8301,-2.8301,-2.8301,-2.8301,-2.832,-2.8652,-2.9101,-2.9702,-3.1166,-3.3353,-3.5745,-3.611,-3.6838,-3.7709,-3.7805,-3.7637,-3.7397,0.0,0.0,0.0,0.0,0.0,0.0,0.0,-3.1193,0.0,-3.3265,-3.3457,-3.3683,-3.4883,-3.5174,-3.5064,-3.4458,-3.3468,-3.29,-3.29,-3.2129,-3.1689,-3.1689,-3.0736,0.0,-3.0204,-2.8022,-2.6885,-2.6885,0.0,0.0,-2.3253,-2.263,-2.2428,-2.2648,0.0,-2.2575,0.0,0.0,0.0,-1.8304,-1.7793,-1.7884,-1.8513,-1.9642,-2.0055,-2.0261,-2.2518,-2.3338,-2.3438,-2.4053,-2.4152,-2.4152,-2.4152,-2.4152,-2.4152,-2.4152,-2.4152,-2.4152,-2.4152,-2.4152,-2.4152,-2.4152,-2.4152,-2.4152,-2.4152,-2.2518,-2.0877,-2.0877,-1.9255,-1.8022,-1.854,-1.8941,0.0,0.0,0.0,0.0,0.0,0.0,0.0,0.0,0.0,0.0,0.0,0.0,0.0,0.0,0.0,-2.5644,0.0,0.0,0.0,0.0,0.0,0.0,0.0,0.0,0.0,-2.8594,-2.8398,-2.8398,-2.8613,-2.8613,-2.875,-2.8965,-2.918,-2.9492,-3.0035,-3.1697,-3.3135,-3.4469,-3.5024,-3.5991,-3.7096,-3.7096,-3.7109,-3.7276,0.0,-2.9745,0.0,0.0,-3.2047,0.0,0.0,-3.0969,-3.0918,-3.1806,-3.1793,-3.2098,-3.3247,-3.3982,-3.4323,-3.4128,-3.3248,-3.2735,-3.2735,-3.1964,-3.1506,-3.1506,-3.0662,-3.0204,-3.0204,-2.7985,-2.6903,0.0,0.0,0.0,0.0,-2.3015,-2.2667,0.0,0.0,0.0,0.0,0.0,-1.9227,-1.7582,-1.7582,-1.7582,-1.7687,-1.8812,-1.902,-1.9124,-2.1404,-2.2165,-2.2435,-2.3562,-2.4108,-2.417,-2.4262,-2.4225,-2.4152,-2.4152,-2.4152,-2.4152,-2.4152,-2.4152,-2.4152,-2.4152,-2.4152,-2.4152,-2.4152,-2.2619,-2.12,-2.0995,-1.9138,-1.8007,-1.922,-1.9341,0.0,0.0,0.0,0.0,0.0,0.0,0.0,0.0,0.0,0.0,-2.5139,0.0,0.0,0.0,0.0,-2.5488,-2.5215,-2.5879,-2.6289,0.0,0.0,-2.8203,-2.8301,0.0,-2.8672,-2.8418,-2.834,-2.8457,-2.8789,-2.8887,-2.9101,-2.9434,-2.9629,-2.9941,-3.0486,-3.1741,-3.2457,-3.2799,-3.3685,-3.4781,-3.5904,-3.6122,-3.6447,-3.6939,0.0,0.0,0.0,0.0,0.0,0.0,0.0,-2.8835,-2.9396,-3.1125,-3.0115,-3.0407,-3.3361,-3.3145,-3.3366,-3.4774,-3.3835,-3.3175,-3.3175,-3.2404,-3.1946,-3.1946,-3.0827,-3.0204,-3.0204,-2.8535,-2.7325,0.0,0.0,0.0,0.0,0.0,0.0,0.0,0.0,0.0,0.0,-2.0353,-1.9227,-1.7582,-1.7582,-1.7582,-1.7687,-1.8812,-1.8603,-1.7989,-2.0261,-2.129,-2.1771,-2.2808,-2.3622,-2.4225,-2.4611,-2.4464,-2.4152,-2.4152,-2.4152,-2.4152,-2.4152,-2.4152,-2.4152,-2.4152,-2.4152,-2.4152,-2.4152,-2.3238,-2.2114,-2.1081,-1.9138,-1.7756,-1.8453,-1.8332,-1.8576,0.0,0.0,0.0,0.0,0.0,0.0,0.0,0.0,0.0,0.0,-2.466,0.0,0.0,-2.5022,-2.5293,-2.5664,-2.5742,-2.5977,-2.6387,0.0,-2.791,-2.8281,-2.834,-2.8516,-2.8848,-2.8476,-2.832,-2.8359,-2.875,-2.8945,-2.9023,-2.9805,-3.041,-3.084,-3.0976,-3.1672,-3.2685,-3.2799,-3.3572,-3.467,-3.5795,-3.591,-3.5839,0.0,0.0,0.0,0.0,0.0,0.0,0.0,-2.9185,-2.8555,-2.8374,-2.87,-2.9623,-3.1479,-3.2238,-3.2629,-3.2878,-3.3062,-3.312,-3.2863,-3.2313,-3.1781,-3.1304,-3.0589,-3.0075,-2.9837,-2.8462,-2.7618,0.0,0.0,0.0,0.0,0.0,0.0,0.0,0.0,-2.2327,-2.0655,-2.0432,-1.9227,-1.7582,-1.7582,-1.7582,-1.7687,-1.8094,-1.7989,-1.7793,-1.9332,-1.9925,-2.0419,-2.2716,-2.4154,-2.4867,-2.4812,-2.4666,-2.4482,-2.4225,-2.4152,-2.4152,-2.4152,-2.4152,-2.4152,-2.4152,-2.4152,-2.4152,-2.4152,-2.3338,-2.2215,-2.1081,-1.9444,-1.8196,-1.845,-1.8531,-1.8891,0.0,0.0,0.0,0.0,0.0,0.0,0.0,0.0,0.0,0.0,0.0,0.0,0.0,0.0,-2.543,-2.5332,-2.5586,-2.582,-2.5996,0.0,-2.748,-2.791,-2.8164,-2.8379,-2.8535,-2.8379,-2.8555,-2.9062,-2.9238,-2.9609,-3.0117,-3.0469,-3.0723,-3.0898,-3.0898,-3.1228,-3.1556,-3.1556,-3.2342,-3.3572,-3.467,-3.544,-3.6064,-3.2826,0.0,-3.29,0.0,-3.2088,-3.0838,-3.0521,-2.8866,-2.7368,-2.6504,-2.724,-2.833,-2.9559,-3.0643,-3.1364,-3.1588,-3.212,-3.2358,-3.2606,-3.2111,-3.1506,-3.0827,-3.0406,0.0,-2.9764,-2.8682,-2.8058,-2.7948,-2.6683,0.0,0.0,0.0,0.0,0.0,-2.3602,-2.2502,-2.0718,-2.0559,-1.9316,-1.7582,-1.7582,-1.7582,-1.7595,-1.7689,-1.7662,-1.7701,-1.852,-1.9132,-1.9896,-2.1964,-2.3785,-2.5198,-2.5021,-2.4867,-2.4702,-2.428,-2.4152,-2.4152,-2.4152,-2.4152,-2.4152,-2.4152,-2.4152,-2.4152,-2.4152,-2.3538,-2.2619,-2.1183,-1.9575,-1.8384,-1.8477,-1.8731,-1.9145,-2.0033,0.0,0.0,0.0,0.0,0.0,0.0,-2.0988,-2.101,-2.2068,-2.2522,0.0,0.0,0.0,0.0,-2.5178,-2.5353,0.0,0.0,0.0,0.0,0.0,-2.8086,-2.8301,-2.8301,-2.8418,-2.8789,-2.9394,-2.9648,-3.0176,-3.0898,-3.0898,-3.0898,-3.0898,-3.0898,-3.0898,-3.0898,-3.0898,-3.146,-3.2342,-3.3459,-3.4447,-3.5356,-3.4367,-3.4367,-3.4367,-3.4385,-3.1912,-2.987,-3.0087,-2.6934,-2.5077,-2.6239,-2.5638,-2.6047,-2.8147,-2.8081,-2.8938,-3.1786,-3.1028,-3.0937,-3.2454,-3.1836,-3.1212,0.0,0.0,-3.0204,-3.0185,-2.9397,-2.8773,-2.8388,0.0,0.0,-2.5931,0.0,-2.4152,-2.4134,-2.373,-2.2345,-2.0369,-2.0734,-1.9642,-1.7582,-1.7582,-1.7582,-1.7609,-1.7929,-1.7849,-1.7622,-1.7929,-1.8972,-2.0317,-2.0317,-2.2292,-2.4861,-2.5285,-2.5106,-2.4702,-2.428,-2.4152,-2.4152,-2.4152,-2.4152,-2.4152,-2.4152,-2.4152,-2.4152,-2.4152,-2.4152,-2.3538,-2.1387,-1.94,-1.8143,-1.8437,-1.8731,-1.8918,-1.8918,0.0,0.0,0.0,0.0,0.0,0.0,-1.9758,-1.9466,-2.1641,-2.2132,0.0,0.0,0.0,0.0,0.0,0.0,0.0,-2.6348,-2.6797,0.0,-2.7656,-2.8086,-2.8301,-2.8301,-2.8711,-2.8926,-2.8945,-2.9805,-3.0449,-3.0898,-3.0898,-3.0898,-3.0898,-3.0898,-3.0898,-3.0898,-3.0898,-3.0898,-3.1112,-3.2227,-3.2685,-3.314,-3.5284,-3.5009,-3.4733,-3.4458,-3.2663,-3.0953,-3.0032,-2.8015,-2.6556,-2.5899,-2.5545,-2.5509,-2.6102,-2.6894,-2.7733,0.0,-2.9856,-3.0789,0.0,-3.1547,-3.1506,-3.0827,-3.0406,-3.0204,-3.0204,-2.9397,-2.892,-2.8792,0.0,0.0,0.0,-2.5289,-2.4831,-2.4556,-2.4152,-2.2746,-2.0718,-2.0829,-1.9642,-1.7582,-1.7582,-1.7582,-1.7595,-1.7689,-1.7796,-1.7916,-1.8009,-1.8455,-1.9278,-2.025,-2.1083,-2.2009,-2.361,-2.4629,-2.5051,-2.4354,-2.4152,-2.4152,-2.4152,-2.4152,-2.4152,-2.4152,-2.4152,-2.4152,-2.4152,-2.302,-2.1794,-2.1081,-1.94,-1.8143,-1.8437,-1.8731,-1.8918,-1.8918,-1.9387,0.0,0.0,0.0,0.0,0.0,-1.8817,-1.8947,0.0,-2.1147,0.0,0.0,0.0,0.0,0.0,0.0,0.0,0.0,-2.627,0.0,-2.7323,-2.7748,-2.8067,-2.8301,-2.8437,-2.8789,-2.9394,-3.0273,-3.0762,-3.0898,-3.0898,-3.0898,-3.0898,-3.0898,-3.0898,-3.0898,-3.0898,-3.0898,-3.0995,-3.2248,-3.2685,-3.3027,-3.5687,-3.543,-3.5064,-3.4495,-3.3091,-3.1625,-3.0759,-2.8796,-2.7179,-2.653,-2.5621,-2.5157,-2.509,-2.5866,0.0,-2.6778,-2.8021,-2.8907,-2.936,-3.0362,-3.0674,-3.0048,-3.0301,-3.0351,-3.0204,0.0,0.0,-2.9195,-2.8242,-2.7306,-2.6408,-2.5858,-2.5381,-2.4977,-2.4574,-2.3059,-2.0877,-2.0877,-1.9642,-1.7582,-1.7582,-1.7582,-1.7595,-1.7716,-1.7876,-1.8063,-1.817,-1.841,-1.8789,-1.9738,-2.0312,-2.0877,-2.2055,-2.3538,-2.4679,-2.429,-2.4152,-2.4189,-2.4354,-2.439,-2.4427,-2.4574,-2.45,-2.4354,-2.4189,-2.2518,-2.0877,-2.0877,-1.9502,-1.8263,-1.8464,-1.8811,-1.9052,-1.8945,-1.9163,-1.9015,-1.8116,0.0,0.0,0.0,0.0,0.0,0.0,-2.0734,-2.1963,0.0,0.0,0.0,0.0,0.0,0.0,-2.5774,-2.6191,0.0,-2.7237,-2.7611,-2.7822,-2.8211,-2.8649,-2.9264,-3.0078,-3.0644,-3.0898,-3.0898,-3.0898,-3.0898,-3.0898,-3.0898,-3.0898,-3.0898,-3.0898,-3.0898,-3.0995,-3.1787,-3.2018,-3.2342,-3.5577,-3.5632,0.0,0.0,-3.3251,0.0,-3.2039,-2.9152,-2.7159,-2.7609,-2.5852,-2.4743,-2.5024,-2.4783,-2.5062,-2.6156,0.0,0.0,0.0,-2.8693,-2.9111,-2.8897,-3.0157,-3.0626,-3.0296,-3.0222,-3.0002,-2.9562,-2.8388,-2.7618,-2.7233,-2.6389,-2.5803,-2.5436,-2.5014,-2.3458,-2.1059,-2.0956,-1.9702,-1.7714,-1.7609,-1.7595,-1.7622,-1.7929,-1.8063,-1.8116,-1.841,-1.8704,-1.8958,-1.8958,-1.9904,-2.0972,-2.0667,-2.1978,-2.3599,-2.4007,-2.417,-2.4244,-2.4666,-2.4776,-2.4867,-2.5234,-2.5032,-2.4629,-2.4244,-2.2518,-2.0979,-2.0877,-1.9619,-1.8547,-1.8477,-1.8931,-1.9225,-1.8958,-1.9556,-1.9576,-1.8185,0.0,0.0,0.0,0.0,0.0,0.0,-2.0695,-2.1748,0.0,0.0,0.0,0.0,0.0,-2.5349,-2.5947,-2.6484,-2.6918,-2.7206,-2.7314,-2.763,-2.8047,-2.924,-3.0103,-3.084,-3.0879,-3.0879,-3.0879,-3.0898,-3.0898,-3.0898,-3.0898,-3.0898,-3.0898,-3.0898,-3.0898,-3.0898,-3.0898,-3.0995,-3.1344,0.0,0.0,-3.5467,-3.4972,-3.4321,-3.341,-3.1821,-2.9981,-2.8274,-2.7291,-2.5589,-2.4663,-2.473,-2.4476,-2.4327,-2.4446,-2.5257,-2.6399,-2.7783,-2.8827,-2.9752,-3.0717,-3.081,-3.0882,-3.1102,-3.0516,-3.0002,-2.9562,-2.8682,-2.8205,-2.8077,-2.6958,-2.6389,-2.6261,-2.5546,-2.4417,-2.2938,-2.2079,-2.0772,-1.917,-1.8238,-1.7796,-1.7622,-1.7929,-1.8183,-1.8424,-1.8718,-1.9011,-1.9265,-1.9265,-1.9388,-1.9566,-2.037,-2.1432,-2.247,-2.3083,-2.3669,-2.4244,-2.4666,-2.4776,-2.4812,-2.4904,-2.4611,-2.428,-2.417,-2.3138,-2.1912,-2.1097,-1.9881,-1.8879,-1.8617,-1.8611,-1.8744,-1.8905,-1.9077,-1.8959,-1.809,-1.8185,0.0,0.0,-1.8721,-1.9184,-1.8783,-2.0524,-2.1687,0.0,0.0,0.0,0.0,-2.3565,-2.407,-2.4175,-2.5518,-2.6025,-2.5735,-2.6645,-2.7413,-2.8047,-2.9013,-2.9488,-2.9718,-3.0257,-3.0509,-3.0509,-3.0762,-3.0898,-3.0898,-3.0898,-3.0898,-3.0898,-3.0898,-3.0898,-3.0898,-3.0898,-3.146,-3.2457,-3.4406,-3.4979,-3.4971,-3.4106,-3.4396,-3.4052,-3.2316,-3.1067,-2.9647,-2.8213,-2.6648,-2.5359,-2.4636,-2.4489,-2.4289,-2.3995,-2.441,-2.5,-2.5672,-2.7343,-2.8592,-2.9378,-3.0516,-3.1066,-3.1102,-3.0864,-3.0442,-2.9855,-2.9048,-2.8572,-2.8388,-2.7728,-2.7123,-2.6573,-2.6114,-2.5164,-2.3631,-2.2445,-2.1156,-1.993,-1.8673,-1.8156,-1.8009,-1.8183,-1.8437,-1.8704,-1.8865,-1.9118,-1.9372,-1.9372,-1.9265,-1.9233,-1.9904,-2.0676,-2.1355,-2.1834,-2.3218,-2.4794,-2.5216,-2.4995,-2.4524,-2.4346,-2.4132,-2.3985,-2.4144,-2.3338,-2.2215,-2.1081,-2.0074,-1.9184,-1.8617,-1.849,-1.8544,-1.8704,-1.8611,-1.8357,-1.7889,-1.7822,0.0,-1.8009,-1.8686,-1.9002,-1.8651,-2.0207,-2.1372,-2.1565,-2.2063,0.0,-2.2707,-2.295,-2.2947,-2.2782,-2.3962,-2.4446,-2.4189,-2.5775,-2.7176,-2.839,-2.9047,-2.9483,-2.96,-2.9944,-3.0157,-3.0157,-3.0509,-3.0645,-3.0645,-3.0898,-3.0898,-3.0898,-3.0898,-3.0898,-3.0898,-3.0898,-3.1672,-3.2913,-3.3651,-3.4255,-3.4311,-3.2956,-3.3709,-3.4162,-3.279,-3.1666,-3.0501,-2.9218,-2.7505,-2.5932,-2.4784,-2.4636,-2.4502,-2.4168,-2.3688,-2.3399,-2.3214,-2.5682,-2.7254,-2.7387,-3.0048,-3.1231,-3.0882,-3.1084,-3.0846,-3.0112,-2.936,-2.881,-2.848,-2.8425,-2.782,-2.6756,-2.6701,-2.5685,-2.3802,-2.2608,-2.1402,-2.0281,-1.9099,-1.8531,-1.849,-1.8544,-1.8704,-1.8931,-1.8971,-1.9158,-1.9372,-1.9372,-1.9372,-1.9372,-1.9372,-1.9974,-2.0638,-2.0638,-2.2743,-2.5074,-2.5326,-2.4736,-2.3911,-2.355,-2.3555,-2.379,-2.3919,-2.3283,-2.2384,-2.1242,-2.0286,-1.9492,-1.8865,-1.8601,-1.849,-1.849,-1.8237,-1.7943,-1.7622,0.0,-1.7756,-1.8076,-1.837,-1.8677,-1.8958,-1.9864,-2.084,-2.1805,-2.1681,-2.1953,-2.277,-2.2409,-2.1963,-2.1449,-2.2403,-2.3087,-2.3311,-2.504,-2.6858,-2.8626,-2.9207,-2.9568,-2.9804,-2.9804,-2.9804,-2.9804,-3.0157,-3.0392,-3.0392,-3.0762,-3.0879,-3.0898,-3.0898,-3.0898,-3.0898,-3.1112,-3.1903,-3.3027,-3.274,-3.35,-3.3713,-3.2809,-3.2836,-3.2722,-3.1962,-2.9663,-2.8228,-2.8243,-2.6064,-2.4475,-2.4636,-2.4636,-2.4422,-2.3888,-2.3754,-2.4118,-2.502,-2.6341,-2.7652,-2.8871,-3.0584,-3.1341,-3.1286,-3.0699,-3.0149,-2.9672,-2.9214,-2.8957,-2.8883,-2.8553,-2.8113,-2.7563,-2.7233,-2.6149,-2.4607,-2.3373,-2.1973,-2.0507,-1.9302,-1.8704,-1.8517,-1.8758,-1.8878,-1.8958,-1.9212,-1.9332,-1.9372,-1.9372,-1.9372,-1.9372,-1.9372,-2.0242,-2.1101,-2.1101,-2.2189,-2.3308,-2.3047,-2.2873,-2.2718,-2.2847,-2.3568,-2.3945,-2.3019,-2.3154,-2.3127,-2.1873,-2.062,-1.9706,-1.9808,-1.9126,-1.849,-1.849,-1.8237,-1.7943,-1.7622,0.0,-1.8063,-1.8384,-1.8677,-1.8971,-1.9265,-1.9523,-2.0288,-2.2167,-2.1364,-2.1103,-2.206,-2.1338,-2.0439,-1.9401,-2.1759,-2.3536,-2.4556,-2.5515,-2.6619,-2.7989,-2.8744,-2.9094,-2.9094,-2.945,-2.9568,-2.9568,-2.9804,-3.0157,-3.0392,-3.0509,-3.0645,-3.0898,-3.0898,-3.0898,-3.0995,-3.2018,-3.2913,-3.3572,-3.2025,-3.2439,-3.2643,-3.1861,-3.207,-3.2117,-3.133,-3.0381,-2.9171,-2.7712,-2.6388,-2.5243,-2.4249,-2.3971,-2.3773,-2.3794,-2.3621,-2.3674,-2.4024,-2.5216,-2.6337,-2.7004,-2.9134,-3.0584,-3.1377,-3.0607,-3.0112,-2.991,-2.9287,-2.8975,-2.8975,-2.8792,-2.8498,-2.8095,-2.7673,-2.7046,-2.598,-2.3842,-2.2542,-2.1729,-1.9946,-1.9078,-1.8971,-1.9118,-1.9158,-1.9185,-1.9319,-1.9372,-1.9372,-1.9372,-1.9372,-1.9372,-1.9372,-1.9822,-2.027,-2.027,-2.1517,-2.283,-2.1984,-2.1729,-2.1759,-2.1783,-2.2158,-2.2529,-2.2573,-2.2815,-2.2796,-2.1597,-2.0811,-2.0308,-1.9808,-1.9027,-1.8544,-1.8704,-1.8196,0.0,0.0,-1.805,-1.8196,-1.8664,-1.8838,-1.9038,-1.9332,-1.9372,-1.9915,-2.136,-2.0514,-2.0358,-2.1118,-2.0427,-1.9718,-1.9158,-2.043,-2.1795,-2.3415,-2.4531,-2.5846,-2.7335,-2.8437,-2.8975,-2.8993,-2.9213,-2.9213,-2.9213,-2.9568,-2.9804,-2.9922,-3.0039,-3.0157,-3.0392,-3.0142,-3.0199,-3.049,-3.1277,-3.2344,-3.3438,-3.1458,-3.1614,-3.1706,-3.1022,-3.1367,-3.1488,-3.0825,-3.0656,-2.9884,-2.7605,-2.6786,-2.5741,-2.4037,-2.3563,-2.3379,-2.3532,-2.3514,-2.3273,-2.2886,-2.3938,-2.4602,-2.5008,-2.78,-2.9882,-3.1249,-3.0644,-3.0241,-3.0057,-2.9434,-2.9067,-2.8975,-2.8975,-2.8773,-2.837,-2.7948,-2.7432,-2.6583,-2.4036,-2.2862,-2.241,-2.027,-1.9372,-1.9372,-1.9372,-1.9372,-1.9372,-1.9372,-1.9372,-1.9372,-1.9372,-1.9372,-1.9372,-1.9372,-1.9372,-1.9372,-1.9372,-2.073,-2.1957,-2.106,-2.073,-2.073,-2.0686,-2.0975,-2.1364,-2.194,-2.2284,-2.2269,-2.1276,-2.0917,-2.0585,-1.9918,-1.9266,-1.8771,-1.8985,0.0,0.0,0.0,-1.8357,-1.8424,-1.8865,-1.8985,-1.9118,-1.9345,-1.9372,-1.9713,-2.0696,-1.9915,-1.9828,-2.0696,-1.9915,-1.9372,-1.9372,-1.9439,-2.0372,-2.2008,-2.3211,-2.4865,-2.6884,-2.7949,-2.8737,-2.8975,-2.8975,-2.8975,-2.8975,-2.9213,-2.945,-2.9568,-2.9686,-2.9747,-2.9732,-2.941,-2.9429,-2.9716,-3.073,-3.1851,-3.2931,-3.1458,-3.1363,-3.1405,-3.0918,-3.0687,-3.0319,-2.987,-2.8634,-2.7825,-2.7955,-2.594,-2.4458,-2.4761,-2.4024,-2.3366,-2.2959,-2.3439,-2.3487,-2.2899,-2.2996,-2.3665,-2.5008,-2.78,-2.976,-3.0846,-3.0772,-3.0369,-2.9617,-2.9562,-2.9342,-2.8975,-2.8975,-2.8773,-2.837,-2.7948,-2.696,-2.5422,-2.3682,-2.2297,-2.1174,-1.9938,-1.9372,-1.9372,-1.9372,-1.9372,-1.9372,-1.9372,-1.9372,-1.9372,-1.9372,-1.9372,-1.9372,-1.9372,-1.9372,-1.9372,-1.9372,-1.9475,-1.9591,-1.9591,-1.9475,-1.9542,-1.9811,-2.1019,-2.1814,-2.0629,-2.1336,-2.2083,-2.1437,-2.0572,-2.0115,-2.1042,-2.0192,-1.9305,-1.9332,0.0,0.0,-1.8477,-1.8704,-1.8878,-1.8918,-1.9172,-1.9345,-1.9359,-1.9372,-1.9924,-2.1031,-2.0026,-1.9924,-2.1145,-2.004,-1.9372,-1.9372,-1.9626,-2.0364,-2.1686,-2.2377,-2.4018,-2.6473,-2.697,-2.7762,-2.8975,-2.8975,-2.8975,-2.8975,-2.8975,-2.9213,-2.945,-2.9568,-2.9442,-2.9316,-2.9278,-2.907,-2.9144,-3.1482,-3.2093,-3.2085,-3.1744,-3.1363,-3.1014,-3.0886,-3.0394,-2.9965,-2.9838,-2.9086,-2.8341,-2.7538,-2.5956,-2.4823,-2.4215,-2.3028,-2.2421,-2.2473,-2.2688,-2.2823,-2.2598,-2.2722,-2.3938,-2.6188,-2.7387,-2.8918,-3.1157,-3.0919,-3.0644,-3.0332,-2.9819,-2.9489,-2.9342,-2.9104,-2.8902,-2.8737,-2.8333,-2.7347,-2.5861,-2.4105,-2.2605,-2.1336,-2.0007,-1.9372,-1.9386,-1.9559,-1.9639,-1.9653,-1.984,-1.9907,-1.988,-1.9693,-1.9639,-1.9639,-1.9639,-1.9639,-1.9666,-1.9853,-1.9907,-1.9907,-1.9907,-1.9639,-1.9479,-1.9947,-2.0509,-2.0915,-2.0819,-2.1135,-2.1465,-2.1231,-2.0848,-2.0738,-2.1094,-2.0456,-1.996,-2.0147,0.0,-1.9158,-1.9519,-1.9506,-1.9466,-1.9466,-1.9573,-1.9559,-1.9386,-1.9372,-1.9591,-2.004,-1.9707,-1.9591,-2.0053,-1.9591,-1.9372,-1.9372,-1.9826,-2.0307,-2.0773,-2.2011,-2.317,-2.4345,-2.5359,-2.6399,-2.7762,-2.7762,-2.8241,-2.8975,-2.8975,-2.9094,-2.9194,-2.8954,-2.875,-2.8681,-2.8162,-2.8502,-2.9449,-3.051,-3.156,-3.2692,-3.1919,-3.1443,-3.1029,-3.1029,-3.0442,-2.9981,-2.9981,-2.96,-2.8916,-2.7937,-2.6284,-2.4943,-2.4323,-2.2705,-2.1845,-2.2039,-2.2307,-2.2536,-2.2597,-2.2921,-2.4036,-2.6321,-2.6855,-2.818,-3.0714,-3.0847,-3.0919,-3.0791,-3.0222,-2.9892,-2.9764,-2.9489,-2.9287,-2.914,-2.8755,-2.8011,-2.6876,-2.4713,-2.3193,-2.2243,-2.0413,-1.9639,-1.9653,-1.9867,-1.9933,-1.996,-2.016,-2.0227,-2.0214,-2.0107,-2.0013,-1.9947,-2.004,-2.0013,-1.9973,-2.0174,-2.0227,-2.0227,-2.0227,-2.0013,-1.988,-2.0267,-2.0441,-2.0588,-2.0909,-2.1042,-2.1082,-2.0989,-2.1042,-2.1136,-2.1229,-2.0762,-2.0468,-2.0762,-2.0147,-1.9773,-2.0174,-2.0054,-1.9933,-1.9933,-1.9933,-1.9853,-1.9653,-1.9639,-1.9639,-1.9639,-1.9559,-1.9506,-1.9506,-1.9506,-1.9506,-1.9506,-1.9973,-2.0227,-2.0227,-2.1449,-2.2486,-2.3076,-2.3946,-2.5301,-2.7021,-2.7021,-2.7744,-2.8975,-2.8975,-2.892,-2.8773,-2.8498,-2.8242,-2.7948,-2.7398,-2.7865,-2.8878,-2.9769,-3.0901,-3.2204,-3.1919,-3.1633,-3.1395,-3.1379,-3.0791,-3.0315,-3.0315,-2.9743,-2.9298,-2.9298,-2.6825,-2.5003,-2.5003,-2.33,-2.1914,-2.1641,-2.2413,-2.3062,-2.321,-2.3205,-2.3735,-2.4887,-2.6321,-2.7784,-2.9265,-3.0714,-3.1194,-3.0791,-3.0791,-3.0589,-3.0204,-3.0204,-2.9984,-2.9562,-2.9159,-2.8773,-2.8253,-2.5227,-2.4007,-2.3771,-2.118,-2.0227,-2.0227,-2.0241,-2.0241,-2.0241,-2.0241,-2.0241,-2.0281,-2.0575,-2.0481,-2.0294,-2.0588,-2.0481,-2.0241,-2.0241,-2.0241,-2.0241,-2.0241,-2.0454,-2.0681,-2.0681,-2.0895,-2.1042,-2.0748,-2.0909,-2.1029,-2.0748,-2.0909,-2.1203,-2.151,-2.1082,-2.0775,-2.1069,-2.0628,-2.0241,-2.0241,-2.0241,-2.0241,-2.0241,-2.0241,-2.0241,-2.0227,-2.0227,-2.0227,-2.0227,-1.996,-1.98,-1.98,-1.98,-1.98,-1.98,-2.008,-2.0227,-2.0227,-2.0815,-2.1727,-2.3076,-2.3076,-2.4425,-2.7021,-2.7021,-2.7762,-2.8975,-2.8975,-2.8755,-2.8388,-2.8388,-2.7911,-2.7178,-2.7178,-2.694,-2.6902,-2.9549,-3.0138,-3.0221,-3.1919,-3.1633,-3.1315,-3.1061,-3.0839,-3.0537,-3.0044,-2.9806,-2.9584,-2.9329,-2.7067,-2.5552,-2.5341,-2.3326,-2.1788,-2.1521,-2.2075,-2.2337,-2.2473,-2.2806,-2.2902,-2.3133,-2.4723,-2.6337,-2.7784,-2.9117,-2.9865,-2.976,-3.041,-3.0736,-3.0607,-3.0332,-2.9984,-2.9562,-2.9452,-2.8679,-2.7312,-2.525,-2.3894,-2.2901,-2.0901,-2.0227,-2.0254,-2.0468,-2.0548,-2.0575,-2.0775,-2.0842,-2.0828,-2.0722,-2.0615,-2.0561,-2.0641,-2.0748,-2.0842,-2.0842,-2.0842,-2.0842,-2.0842,-2.1069,-2.1243,-2.1029,-2.1203,-2.1456,-2.1563,-2.1657,-2.1697,-2.1617,-2.167,-2.1817,-2.2111,-2.1844,-2.1697,-2.1977,-2.1537,-2.1162,-2.1162,-2.0975,-2.0775,-2.0575,-2.0548,-2.0468,-2.0254,-2.0227,-2.0227,-2.0227,-2.0147,-2.0107,-2.0107,-1.9907,-1.98,-1.98,-2.008,-2.0227,-2.0227,-2.0815,-2.1362,-2.1727,-2.1727,-2.3076,-2.5546,-2.5546,-2.69,-2.8975,-2.8682,-2.8498,-2.8352,-2.7783,-2.7563,-2.7526,-2.6976,-2.7474,-2.8477,-2.8552,-2.9273,-3.0397,-3.1919,-3.1633,-3.1331,-3.1109,-3.095,-3.068,-3.0108,-2.9917,-2.9695,-2.9345,-2.7127,-2.552,-2.5468,-2.331,-2.18,-2.1643,-2.2165,-2.2393,-2.225,-2.2563,-2.2512,-2.2215,-2.3311,-2.4723,-2.6188,-2.7668,-2.8723,-2.9265,-2.9966,-3.0501,-3.1011,-3.0772,-3.0442,-3.0057,-3.0057,-2.936,-2.7955,-2.5896,-2.4499,-2.3382,-2.1368,-2.0575,-2.0601,-2.0775,-2.0842,-2.0869,-2.1042,-2.1109,-2.1096,-2.1042,-2.1029,-2.1002,-2.0882,-2.0962,-2.1109,-2.1109,-2.1189,-2.1283,-2.1283,-2.1496,-2.1683,-2.1496,-2.159,-2.1804,-2.2084,-2.2071,-2.1991,-2.1991,-2.1991,-2.2071,-2.2365,-2.2178,-2.2084,-2.2378,-2.2031,-2.1683,-2.1563,-2.1403,-2.1176,-2.0882,-2.0842,-2.0775,-2.0601,-2.0575,-2.0535,-2.0414,-2.0521,-2.0481,-2.0241,-2.0067,-1.9973,-1.9973,-2.0147,-2.0294,-2.0401,-2.0869,-2.1109,-2.1109,-2.1109,-2.2466,-2.5056,-2.5056,-2.6332,-2.8755,-2.8663,-2.8352,-2.7893,-2.7545,-2.7361,-2.7251,-2.6774,-2.7215,-2.8142,-2.8109,-2.8622,-2.953,-3.1872,-3.1617,-3.1395,-3.1395,-3.1125,-3.0791,-3.0426,-3.0076,-2.9743,-2.9393,-2.6993,-2.5496,-2.5496,-2.3349,-2.1909,-2.1909,-2.2423,-2.2744,-2.2313,-2.2513,-2.251,-2.2192,-2.2215,-2.301,-2.4738,-2.6188,-2.7652,-2.9134,-2.9265,-3.0065,-3.1377,-3.1377,-3.1176,-3.0791,-3.0791,-3.0351,-2.9495,-2.6844,-2.5389,-2.4857,-2.2104,-2.1109,-2.1109,-2.1109,-2.1109,-2.1109,-2.1109,-2.1109,-2.1149,-2.143,-2.151,-2.147,-2.1189,-2.1109,-2.1109,-2.1109,-2.1296,-2.1523,-2.155,-2.175,-2.1951,-2.1977,-2.2004,-2.2098,-2.2352,-2.2231,-2.2058,-2.2058,-2.2058,-2.2151,-2.2405,-2.2245,-2.2151,-2.2418,-2.2218,-2.1937,-2.167,-2.159,-2.1456,-2.1176,-2.1149,-2.1136,-2.1109,-2.1109,-2.1002,-2.0735,-2.0962,-2.0882,-2.0334,-2.0294,-2.0267,-2.0267,-2.0267,-2.0401,-2.0668,-2.0962,-2.1109,-2.1109,-2.1109,-2.2466,-2.481,-2.4778,-2.6044,-2.829,-2.8619,-2.8107,-2.7196,-2.7563,-2.7288,-2.6628,-2.6609,-2.6609,-2.6792,-2.7986,-2.8071,-2.7891,-3.1554,-3.1443,-3.1395,-3.1395,-3.1331,-3.1157,-3.0791,-3.0442,-3.0092,-2.9758,-2.7334,-2.566,-2.566,-2.3632,-2.2174,-2.2174,-2.2372,-2.2299,-2.2032,-2.2251,-2.2281,-2.177,-2.2116,-2.2393,-2.2859,-2.4588,-2.6203,-2.7519,-2.8723,-3.0065,-3.1377,-3.1377,-3.1176,-3.0791,-3.0791,-3.0516,-2.9915,-2.696,-2.5657,-2.5312,-2.2314,-2.1109,-2.1109,-2.1109,-2.1109,-2.1109,-2.1109,-2.1109,-2.1122,-2.1189,-2.1203,-2.1189,-2.1122,-2.1109,-2.1109,-2.1109,-2.1149,-2.1256,-2.1496,-2.1603,-2.1697,-2.1924,-2.2151,-2.2338,-2.2405,-2.2552,-2.2672,-2.2672,-2.2672,-2.2686,-2.2752,-2.2712,-2.2699,-2.2752,-2.2512,-2.2298,-2.2231,-2.1844,-2.1537,-2.147,-2.1456,-2.1363,-2.1136,-2.1109,-2.1082,-2.1015,-2.1069,-2.1056,-2.0922,-2.0708,-2.0575,-2.0575,-2.0575,-2.0615,-2.0681,-2.0962,-2.1109,-2.1109,-2.1109,-2.1964,-2.3435,-2.3305,-2.4458,-2.6793,-2.6685,-2.6875,-2.7178,-2.727,-2.7196,-2.7013,-2.6719,-2.6774,-2.7031,-2.7012,-2.6974,-2.7008,-3.1713,-3.1649,-3.1649,-3.1649,-3.1649,-3.1304,-3.0159,-3.0395,-3.0245,-2.8989,-2.7276,-2.5926,-2.5786,-2.3722,-2.2259,-2.2259,-2.2259,-2.2198,-2.2066,-2.208,-2.2032,-2.1738,-2.2032,-2.2115,-2.1963,-2.3046,-2.4474,-2.6054,-2.7519,-2.8986,-3.0455,-3.112,-3.1267,-3.1066,-3.1066,-3.0846,-3.0336,-2.7427,-2.6104,-2.5676,-2.2722,-2.1523,-2.1523,-2.1523,-2.1523,-2.1523,-2.1523,-2.1523,-2.151,-2.1363,-2.1323,-2.1323,-2.1323,-2.1229,-2.1109,-2.1109,-2.1203,-2.139,-2.1683,-2.1764,-2.183,-2.2124,-2.2311,-2.2418,-2.2418,-2.2645,-2.2859,-2.2859,-2.2859,-2.2859,-2.2859,-2.2859,-2.2859,-2.2859,-2.2726,-2.2579,-2.2432,-2.2164,-2.1911,-2.1777,-2.1764,-2.1643,-2.1349,-2.1323,-2.1256,-2.1122,-2.1109,-2.1042,-2.0909,-2.0762,-2.0681,-2.0681,-2.0681,-2.0735,-2.0882,-2.1176,-2.1323,-2.1323,-2.1323,-2.2143,-2.3545,-2.3369,-2.4471,-2.6594,-2.6696,-2.7094,-2.7765,-2.7765,-2.7636,-2.7416,-2.7013,-2.6885,-2.6866,-2.6664,-2.6591,-2.67,-3.1983,-3.1919,-3.1903,-3.184,-3.1824,-3.1307,-2.964,-3.0218,-3.0253,-2.8475,-2.7111,-2.6052,-2.5786,-2.3722,-2.2259,-2.2259,-2.2259,-2.2259,-2.2259,-2.2054,-2.1921,-2.1873,-2.1946,-2.182,-2.1616,-2.1898,-2.3001,-2.4873,-2.6321,-2.7784,-2.9265,-3.0714,-3.1377,-3.1377,-3.1377,-3.1194,-3.0756,-2.7927,-2.6567,-2.5911,-2.3159,-2.1991,-2.1991,-2.1991,-2.1991,-2.1991,-2.1991,-2.1991,-2.1951,-2.171,-2.163,-2.163,-2.163,-2.1456,-2.1243,-2.1203,-2.1363,-2.1603,-2.1844,-2.1911,-2.1977,-2.2271,-2.2378,-2.2418,-2.2418,-2.2645,-2.2859,-2.2859,-2.2859,-2.2859,-2.2859,-2.2859,-2.2859,-2.2859,-2.2859,-2.2779,-2.2525,-2.2458,-2.2325,-2.2084,-2.2017,-2.1897,-2.1657,-2.163,-2.151,-2.1203,-2.1189,-2.1082,-2.0842,-2.0775,-2.0748,-2.0748,-2.0748,-2.0869,-2.1109,-2.1403,-2.1577,-2.163,-2.167,-2.2442,-2.3681,-2.3623,-2.4568,-2.6288,-2.6957,-2.7574,-2.8129,-2.8308,-2.815,-2.771,-2.7251,-2.6885,-2.6591,-2.6591,-2.6591,-2.67,-3.1983,-3.1919,-3.1824,-3.1522,-3.1458,-3.1427,-3.1178,-3.064,-3.0362,-2.9954,-2.7644,-2.5814,-2.5772,-2.3722,-2.2259,-2.2259,-2.2259,-2.2259,-2.2259,-2.2235,-2.2102,-2.1885,-2.1983,-2.186,-2.1629,-2.1616,-2.2445,-2.4046,-2.5771,-2.737,-2.8854,-3.0584,-3.1377,-3.1377,-3.1377,-3.1341,-3.1139,-2.8043,-2.6695,-2.6371,-2.3243,-2.1991,-2.1991,-2.1991,-2.1991,-2.1991,-2.1991,-2.1991,-2.1977,-2.1937,-2.1924,-2.1924,-2.1924,-2.1897,-2.1817,-2.1563,-2.1523,-2.1563,-2.1603,-2.1617,-2.1683,-2.1977,-2.2231,-2.2418,-2.2418,-2.2645,-2.2859,-2.2859,-2.2859,-2.2859,-2.2859,-2.2859,-2.2859,-2.2859,-2.2859,-2.2846,-2.2806,-2.2579,-2.2405,-2.2365,-2.2138,-2.1977,-2.1937,-2.1924,-2.1804,-2.151,-2.1496,-2.147,-2.143,-2.1189,-2.1056,-2.1056,-2.1056,-2.1069,-2.1109,-2.1403,-2.1683,-2.1937,-2.2178,-2.2324,-2.2241,-2.1984,-2.258,-2.4007,-2.5313,-2.6348,-2.7177,-2.8048,-2.815,-2.7691,-2.6958,-2.6628,-2.6591,-2.6591,-2.6591,-2.6591,-3.2523,-3.2332,-3.2205,-3.2253,-3.1935,-3.137,-3.0731,-2.9992,-2.9486,-2.9302,-2.7347,-2.5954,-2.5786,-2.3722,-2.2259,-2.2259,-2.2259,-2.2259,-2.2259,-2.2259,-2.2211,-2.209,-2.209,-2.1983,-2.1579,-2.1726,-2.2007,-2.2393,-2.4402,-2.5786,-2.6455,-2.8986,-3.0195,-3.0325,-3.112,-3.1377,-3.123,-2.8146,-2.6883,-2.6603,-2.3708,-2.2472,-2.2472,-2.2472,-2.2472,-2.2458,-2.2285,-2.2338,-2.2445,-2.2285,-2.2338,-2.2472,-2.2472,-2.2472,-2.2418,-2.2124,-2.1924,-2.183,-2.1991,-2.1924,-2.1897,-2.2365,-2.2579,-2.2672,-2.2672,-2.2899,-2.3126,-2.3126,-2.3126,-2.3126,-2.3126,-2.2979,-2.2859,-2.2859,-2.2859,-2.2859,-2.2859,-2.2752,-2.2672,-2.2672,-2.2552,-2.2405,-2.2245,-2.2231,-2.2111,-2.1817,-2.1643,-2.155,-2.155,-2.2019,-2.1839,-2.1109,-2.1853,-2.1922,-2.1349,-2.1643,-2.1937,-2.2231,-2.2525,-2.2592,-2.2472,-2.2338,-2.2974,-2.3985,-2.551,-2.6837,-2.7912,-2.8469,-2.8608,-2.8352,-2.7325,-2.6774,-2.6591,-2.6591,-2.6591,-2.6591]}]]